[[{"header":{"parameterUnit":"m.s-1","parameterCategory":1,"la1":31.0,"la2":29.5877,"lo1":-88.7671,"lo2":-86.6584,"dy":0.0162,"dx":0.0185,"nx":115,"ny":88,"refTime":"2024-04-22T18:00:00:Z","depth":0,"parameterNumber":2,"parameterNumberName":"U-component_of_WINDS"},"data":[0.0,0.0,0.0,0.0,0.0,0.0,0.0,0.0,0.0,0.0,0.0,0.0,0.0,0.0,0.0,0.0,0.0,0.0,0.0,0.0,0.0,0.0,0.0,0.0,0.0,0.0,0.0,0.0,0.0,0.0,0.0,0.0,0.0,0.0,0.0,0.0,0.0,0.0,0.0,0.0,0.0,0.0,0.0,0.0,0.0,0.0,0.0,0.0,0.0,0.0,0.0,0.0,0.0,0.0,0.0,0.0,0.0,0.0,0.0,0.0,0.0,0.0,0.0,0.0,0.0,0.0,0.0,0.0,0.0,0.0,0.0,0.0,0.0,0.0,0.0,0.0,0.0,0.0,0.0,0.0,0.0,0.0,0.0,0.0,0.0,0.0,0.0,0.0,0.0,0.0,0.0,0.0,0.0,0.0,0.0,0.0,0.0,0.0,0.0,0.0,0.0,0.0,0.0,0.0,0.0,0.0,0.0,0.0,0.0,0.0,0.0,0.0,0.0,0.0,0.0,0.0,0.0,0.0,0.0,0.0,0.0,0.0,0.0,0.0,0.0,0.0,0.0,0.0,0.0,0.0,0.0,0.0,0.0,0.0,0.0,0.0,0.0,0.0,0.0,0.0,0.0,0.0,0.0,0.0,0.0,0.0,0.0,0.0,0.0,0.0,0.0,0.0,0.0,0.0,0.0,0.0,0.0,0.0,0.0,0.0,0.0,0.0,0.0,0.0,0.0,0.0,0.0,0.0,0.0,0.0,0.0,0.0,0.0,0.0,0.0,0.0,0.0,0.0,0.0,0.0,0.0,0.0,0.0,0.0,0.0,0.0,0.0,0.0,0.0,0.0,0.0,0.0,0.0,0.0,0.0,0.0,0.0,0.0,0.0,0.0,0.0,0.0,0.0,0.0,0.0,0.0,0.0,0.0,0.0,0.0,0.0,0.0,0.0,0.0,0.0,0.0,0.0,0.0,0.0,0.0,0.0,0.0,0.0,0.0,0.0,0.0,0.0,0.0,0.0,0.0,0.0,0.0,0.0,0.0,0.0,0.0,0.0,0.0,0.0,0.0,0.0,0.0,0.0,0.0,0.0,0.0,0.0,0.0,0.0,0.0,0.0,0.0,0.0,0.0,0.0,0.0,0.0,0.0,0.0,0.0,0.0,0.0,0.0,0.0,0.0,0.0,0.0,0.0,0.0,0.0,0.0,0.0,0.0,0.0,0.0,0.0,0.0,0.0,0.0,0.0,0.0,0.0,0.0,0.0,0.0,0.0,0.0,0.0,0.0,0.0,0.0,0.0,0.0,0.0,0.0,0.0,0.0,0.0,0.0,0.0,0.0,0.0,0.0,0.0,0.0,0.0,0.0,0.0,0.0,0.0,0.0,0.0,0.0,0.0,0.0,0.0,0.0,0.0,0.0,0.0,0.0,0.0,0.0,0.0,0.0,0.0,0.0,0.0,0.0,0.0,0.0,0.0,0.0,0.0,0.0,0.0,0.0,0.0,0.0,0.0,0.0,0.0,0.0,0.0,0.0,0.0,0.0,0.0,0.0,0.0,0.0,0.0,0.0,0.0,0.0,0.0,0.0,0.0,0.0,0.0,0.0,0.0,0.0,0.0,0.0,0.0,0.0,0.0,0.0,0.0,0.0,0.0,0.0,0.0,0.0,0.0,0.0,0.0,0.0,0.0,0.0,0.0,0.0,0.0,0.0,0.0,0.0,0.0,0.0,0.0,0.0,0.0,0.0,0.0,0.0,0.0,0.0,0.0,0.0,0.0,0.0,0.0,0.0,0.0,0.0,0.0,0.0,0.0,0.0,0.0,0.0,0.0,0.0,0.0,0.0,0.0,0.0,0.0,0.0,0.0,0.0,0.0,0.0,0.0,0.0,0.0,0.0,0.0,0.0,0.0,0.0,0.0,0.0,0.0,0.0,0.0,0.0,0.0,0.0,0.0,0.0,0.0,0.0,0.0,0.0,0.0,0.0,0.0,0.0,0.0,0.0,0.0,0.0,0.0,0.0,0.0,0.0,0.0,0.0,0.0,0.0,0.0,0.0,0.0,0.0,0.0,0.0,0.0,0.0,0.0,0.0,0.0,0.0,0.0,0.0,0.0,0.0,0.0,0.0,0.0,0.0,0.0,0.0,0.0,0.0,0.0,0.0,0.0,0.0,0.0,0.0,0.0,0.0,0.0,0.0,0.0,0.0,0.0,0.0,0.0,0.0,0.0,0.0,0.0,0.0,0.0,0.0,0.0,0.0,0.0,0.0,0.0,0.0,0.0,0.0,0.0,0.0,0.0,0.0,0.0,0.0,0.0,0.0,0.0,0.0,0.0,0.0,0.0,0.0,0.0,0.0,0.0,0.0,0.0,0.0,0.0,0.0,0.0,0.0,0.0,0.0,0.0,0.0,0.0,0.0,0.0,0.0,0.0,0.0,0.0,0.0,0.0,0.0,0.0,0.0,0.0,0.0,0.0,0.0,0.0,0.0,0.0,0.0,0.0,0.0,0.0,0.0,0.0,0.0,0.0,0.0,0.0,0.0,0.0,0.0,0.0,0.0,0.0,0.0,0.0,0.0,0.0,0.0,0.0,0.0,0.0,0.0,0.0,0.0,0.0,0.0,0.0,0.0,0.0,0.0,0.0,0.0,0.0,0.0,0.0,0.0,0.0,0.0,0.0,0.0,0.0,0.0,0.0,0.0,0.0,0.0,0.0,0.0,0.0,0.0,0.0,0.0,0.0,0.0,0.0,0.0,0.0,0.0,0.0,0.0,0.0,0.0,0.0,0.0,0.0,0.0,0.0,0.0,0.0,0.0,0.0,0.0,0.0,0.0,0.0,0.0,0.0,0.0,0.0,0.0,0.0,0.0,0.0,0.0,0.0,0.0,0.0,0.0,0.0,0.0,0.0,0.0,0.0,0.0,0.0,0.0,0.0,0.0,0.0,0.0,0.0,0.0,0.0,0.0,0.0,0.0,0.0,0.0,0.0,0.0,0.0,0.0,0.0,0.0,0.0,0.0,0.0,0.0,0.0,0.0,0.0,0.0,0.0,0.0,0.0,0.0,0.0,0.0,0.0,0.0,0.0,0.0,0.0,0.0,0.0,0.0,0.0,0.0,0.0,0.0,0.0,0.0,0.0,0.0,0.0,0.0,0.0,0.0,0.0,0.0,0.0,0.0,0.0,0.0,0.0,0.0,0.0,0.0,0.0,0.0,0.0,0.0,0.0,0.0,0.0,0.0,0.0,0.0,0.0,0.0,0.0,0.0,0.0,0.0,0.0,0.0,0.0,0.0,0.0,0.0,0.0,0.0,0.0,0.0,0.0,0.0,0.0,0.0,0.0,0.0,0.0,0.0,0.0,0.0,0.0,0.0,0.0,0.0,0.0,0.0,0.0,0.0,0.0,0.0,0.0,0.0,0.0,0.0,0.0,0.0,0.0,0.0,0.0,0.0,0.0,0.0,0.0,0.0,0.0,0.0,0.0,0.0,0.0,0.0,0.0,0.0,0.0,0.0,0.0,0.0,0.0,0.0,0.0,0.0,0.0,0.0,0.0,0.0,0.0,0.0,0.0,0.0,0.0,0.0,0.0,0.0,0.0,0.0,0.0,0.0,0.0,0.0,0.0,0.0,0.0,0.0,0.0,0.0,0.0,0.0,0.0,0.0,0.0,0.0,0.0,0.0,0.0,0.0,0.0,0.0,0.0,0.0,0.0,0.0,0.0,0.0,0.0,0.0,0.0,0.0,0.0,0.0,0.0,0.0,0.0,0.0,0.0,0.0,0.0,0.0,0.0,0.0,0.0,0.0,0.0,0.0,0.0,0.0,0.0,0.0,0.0,0.0,0.0,0.0,0.0,0.0,0.0,0.0,0.0,0.0,0.0,0.0,0.0,0.0,0.0,0.0,0.0,0.0,0.0,0.0,0.0,0.0,0.0,0.0,0.0,0.0,0.0,0.0,0.0,0.0,0.0,0.0,0.0,0.0,0.0,0.0,0.0,0.0,0.0,0.0,0.0,0.0,0.0,0.0,0.0,0.0,0.0,0.0,0.0,0.0,0.0,0.0,0.0,0.0,0.0,0.0,0.0,0.0,0.0,0.0,0.0,0.0,0.0,0.0,0.0,0.0,0.0,0.0,0.0,0.0,0.0,0.0,0.0,0.0,0.0,0.0,0.0,0.0,0.0,0.0,0.0,0.0,0.0,0.0,0.0,0.0,0.0,0.0,0.0,0.0,0.0,0.0,0.0,0.0,0.0,0.0,0.0,0.0,0.0,0.0,0.0,1.0108,0.0,0.0,0.0,0.0,0.0,0.0,0.0,0.0,0.0,0.0,0.0,0.0,0.0,0.0,0.0,0.0,0.0,0.0,0.0,0.0,0.0,0.0,0.0,0.0,0.0,0.0,0.0,0.0,0.0,0.0,0.0,0.0,0.0,0.0,0.0,0.0,0.0,0.0,0.0,0.0,0.0,0.0,0.0,0.0,0.0,0.0,0.0,0.0,0.0,0.0,0.0,0.0,0.0,0.0,0.0,0.0,0.0,0.0,0.0,0.0,0.0,0.0,0.0,0.0,0.0,0.0,0.0,0.0,0.0,0.0,0.0,0.0,0.0,0.0,0.0,0.0,0.0,0.0,0.0,0.0,0.0,0.0,0.0,0.0,0.0,0.0,0.0,0.0,0.0,0.0,0.0,0.0,0.0,0.0,0.0,0.0,0.0,0.0,0.0,0.0,0.0,0.0,0.0,0.0,0.0,0.0,0.0,0.0,0.0,0.0,1.0184,1.0151,1.0155,1.0116,1.0044,0.0,0.0,0.0,0.0,0.0,0.0,0.0,0.0,0.0,0.0,0.0,0.0,0.0,0.0,0.0,0.0,0.0,0.0,0.0,0.0,0.0,0.0,0.0,0.0,0.0,0.0,0.0,0.0,0.0,0.0,0.0,0.0,0.0,0.0,0.0,0.0,0.0,0.0,0.0,0.0,0.0,0.0,0.0,0.0,0.0,0.0,0.0,0.0,0.0,0.0,0.0,0.0,0.0,0.0,0.0,0.0,0.0,0.0,0.0,0.0,0.0,0.0,0.0,0.0,0.0,0.0,0.0,0.0,0.0,0.0,0.0,0.0,0.0,0.0,0.0,0.0,0.0,0.0,0.0,0.0,0.0,0.0,0.0,0.0,0.0,0.0,0.0,0.0,0.0,0.0,0.0,0.0,0.0,0.0,0.0,0.0,0.0,0.0,0.0,0.0,0.0,0.0,0.0,0.0,0.0,0.0,0.0,0.0,0.0,0.0,0.0,0.0,1.0058,1.002,0.9974,0.0,0.0,0.0,0.0,0.0,0.0,0.0,0.0,0.0,0.0,0.0,0.0,0.0,0.0,0.0,0.0,0.0,0.0,0.0,0.0,0.0,0.0,0.0,0.0,0.0,0.0,0.0,0.0,0.0,0.0,0.0,0.0,0.0,0.0,0.0,0.0,0.0,0.0,0.0,0.0,0.0,0.0,0.0,0.0,0.0,0.0,0.0,0.0,0.0,0.0,0.0,0.0,0.0,0.0,0.0,0.0,0.0,0.0,0.0,0.0,0.0,0.0,0.0,0.0,0.0,0.0,0.0,0.0,0.0,0.0,0.0,0.0,0.0,0.0,0.0,0.0,0.0,0.0,0.0,0.0,0.0,0.0,0.0,0.0,0.0,0.0,0.0,0.0,0.0,0.0,0.0,0.0,0.0,0.0,0.0,0.0,0.0,0.0,0.0,0.0,0.0,0.0,0.0,0.0,0.0,0.0,0.0,0.0,0.0,0.0,1.0059,0.9927,0.9927,0.0,0.9831,0.0,0.0,0.0,0.0,0.0,0.0,0.0,0.0,0.0,0.0,0.0,0.0,0.0,0.0,0.0,0.0,0.0,0.0,0.0,0.0,0.0,0.0,0.0,0.0,0.0,0.0,0.0,0.0,0.0,0.0,0.0,0.0,0.0,0.0,0.0,0.0,0.0,0.0,0.0,0.0,0.0,0.0,0.0,0.0,0.0,0.0,0.0,0.0,0.0,0.0,0.0,0.0,0.0,0.0,0.0,0.0,0.0,0.0,0.0,0.0,0.0,0.0,0.0,0.0,0.0,0.0,0.0,0.0,0.0,0.0,0.0,0.0,0.0,0.0,0.0,0.0,0.0,0.0,0.0,0.0,0.0,0.0,0.0,0.0,0.0,0.0,0.0,0.0,0.0,0.0,0.0,0.0,0.0,0.0,0.0,0.0,0.0,0.0,0.0,0.0,0.0,0.0,0.0,0.0,0.0,0.0,0.0,0.0,0.0,0.0,1.0856,1.1201,1.0627,1.0086,0.0,0.0,0.0,0.0,0.0,0.0,0.0,0.0,0.0,0.0,0.0,0.0,0.0,0.0,0.0,0.0,0.0,0.0,0.0,0.0,0.0,0.0,0.0,0.0,0.0,0.0,0.0,0.0,0.0,0.0,0.0,0.0,0.0,0.0,0.0,0.0,0.0,0.0,0.0,0.0,0.0,0.0,0.0,0.0,0.0,0.0,0.0,0.0,0.0,0.0,0.0,0.0,0.0,0.0,0.0,0.0,0.0,0.0,0.0,0.0,0.0,0.0,0.0,0.0,0.0,0.0,0.0,0.0,0.0,0.0,0.0,0.0,0.0,0.0,0.0,0.0,0.0,0.0,0.0,0.0,0.0,0.0,0.0,0.0,0.0,0.0,0.0,0.0,0.0,0.0,0.0,0.0,0.0,0.0,0.0,0.0,0.0,0.0,0.0,0.0,0.0,0.0,0.0,0.0,0.0,0.0,0.0,0.0,0.0,0.0,1.133,1.155,1.1871,1.0976,1.0156,0.9492,0.0,0.0,0.0,0.0,0.0,0.0,0.0,0.0,0.0,0.0,0.0,0.0,0.0,0.0,0.0,0.0,0.0,0.0,0.0,0.0,0.0,0.0,0.0,0.0,0.0,0.0,0.0,0.0,0.0,0.0,0.0,0.0,0.0,0.0,0.0,0.0,0.0,0.0,0.0,0.0,0.0,0.0,0.0,0.0,0.0,0.0,0.0,0.0,0.0,0.0,0.0,0.0,0.0,0.0,0.0,0.0,0.0,0.0,0.0,0.0,0.0,0.0,0.0,0.0,0.0,0.0,0.0,0.0,0.0,0.0,0.0,0.0,0.0,0.0,0.0,0.0,0.0,0.0,0.0,0.0,0.0,0.0,0.0,0.0,0.0,0.0,0.0,0.0,0.0,0.0,0.0,0.0,0.0,0.0,0.0,0.0,0.0,0.0,0.0,0.0,0.0,0.0,0.0,0.0,0.0,0.0,0.0,0.0,1.1171,1.1754,1.1889,1.1568,1.0618,0.9986,0.0,0.0,0.0,0.0,0.0,0.0,0.0,0.0,0.0,0.0,0.0,0.0,0.0,0.0,0.0,0.0,0.0,0.0,0.0,0.0,0.0,0.0,0.0,0.0,0.0,0.0,0.0,0.0,0.0,0.0,0.0,0.0,0.0,0.0,0.0,0.0,0.0,0.0,0.0,0.0,0.0,0.0,0.0,0.0,0.0,0.0,0.0,0.0,0.0,0.0,0.0,0.0,0.0,0.0,0.0,0.0,0.0,0.0,0.0,0.0,0.0,0.0,0.0,0.0,0.0,0.0,0.0,0.0,0.0,0.0,0.0,0.0,0.0,0.0,0.0,0.0,0.0,0.0,0.0,0.0,0.0,0.0,0.0,0.0,0.0,0.0,0.0,0.0,0.0,0.0,0.0,0.0,0.0,0.0,0.0,0.0,0.0,0.0,0.0,0.0,0.0,0.0,0.0,0.0,0.0,0.0,0.0,0.0,0.0,1.2544,1.3015,1.2872,1.211,1.1502,1.0616,0.0,0.0,0.0,0.0,0.0,0.0,0.0,0.0,0.0,0.0,0.0,0.0,0.0,0.0,0.0,0.0,0.0,0.0,0.0,0.0,0.0,0.0,0.0,0.0,0.0,0.0,0.0,0.0,0.0,0.0,0.0,0.0,0.0,0.0,0.0,0.0,0.0,0.0,0.0,0.0,0.0,0.0,0.0,0.0,0.0,0.0,0.0,0.0,0.0,0.0,0.0,0.0,0.0,0.0,0.0,0.0,0.0,0.0,0.0,0.0,0.0,0.0,0.0,0.0,0.0,0.0,0.0,0.0,0.0,0.0,0.0,0.0,0.0,0.0,0.0,0.0,0.0,0.0,0.0,0.0,0.0,0.0,0.0,0.0,0.0,0.0,0.0,0.0,0.0,0.0,0.0,0.0,0.0,0.0,0.0,0.0,0.0,0.0,0.0,0.0,0.0,0.0,0.0,0.0,0.0,0.0,0.0,0.0,0.0,1.3614,0.0,1.3482,1.2702,1.2033,1.096,0.0,0.0,0.0,0.0,0.0,0.0,0.0,0.0,0.0,0.0,0.0,0.0,0.0,0.0,0.0,0.0,0.0,0.0,0.0,0.0,0.0,0.0,0.0,0.0,0.0,0.0,0.0,0.0,0.0,0.0,0.0,0.0,0.0,0.0,0.0,0.0,0.0,0.0,0.0,0.0,0.0,0.0,0.0,0.0,0.0,0.0,0.0,0.0,0.0,0.0,0.0,0.0,0.0,0.0,0.0,0.0,0.0,0.0,0.0,0.0,0.0,0.0,0.0,0.0,0.0,0.0,0.0,0.0,0.0,0.0,0.0,0.0,0.0,0.0,0.0,0.0,0.0,0.0,0.0,0.0,0.0,0.0,0.0,0.0,0.0,0.0,0.0,0.0,0.0,0.0,0.0,0.0,0.0,0.0,0.0,0.0,0.0,0.0,0.0,0.0,0.0,0.0,0.0,0.0,0.0,0.0,0.0,0.0,1.3792,1.4178,1.3934,1.3629,1.3287,1.2151,1.099,0.0,0.0,0.0,0.0,0.0,0.0,0.0,0.0,0.0,0.0,0.0,0.0,0.0,0.0,0.0,0.0,0.0,0.0,0.0,0.0,0.0,0.0,0.0,0.0,0.0,0.0,0.0,0.0,0.0,0.0,0.0,0.0,0.0,0.0,0.0,0.0,0.0,0.0,0.0,0.0,0.0,0.0,0.0,0.0,0.0,0.0,0.0,0.0,0.0,0.0,0.0,0.0,0.0,0.0,0.0,0.0,0.0,0.0,0.0,0.0,0.0,0.0,0.0,0.0,0.0,0.0,0.0,0.0,0.0,0.0,0.0,0.0,0.0,0.0,0.0,0.0,0.0,0.0,0.0,0.0,0.0,0.0,0.0,0.0,0.0,0.0,0.0,0.0,0.0,0.0,0.0,0.0,0.0,0.0,0.0,0.0,0.0,0.0,0.0,0.0,0.0,0.0,0.0,0.0,0.0,0.0,0.0,0.0,0.0,1.4192,1.3888,1.3589,1.3295,1.2527,1.1594,0.0,0.0,0.0,0.0,0.0,0.0,0.0,0.0,0.0,0.0,0.0,0.0,0.0,0.0,0.0,0.0,0.0,0.0,0.0,0.0,0.0,0.0,0.0,0.0,0.0,0.0,0.0,0.0,0.0,0.0,0.0,0.0,0.0,0.0,0.0,0.0,0.0,0.0,0.0,0.0,0.0,0.0,0.0,0.0,0.0,0.0,0.0,0.0,0.0,0.0,0.0,0.0,0.0,0.0,0.0,0.0,0.0,0.0,0.0,0.0,0.0,0.0,0.0,0.0,0.0,0.0,0.0,0.0,0.0,0.0,0.0,0.0,0.0,0.0,0.0,0.0,0.0,0.0,0.0,0.0,0.0,0.0,0.0,0.0,0.0,0.0,0.0,0.0,0.0,0.0,0.0,0.0,0.0,0.0,0.0,0.0,0.0,0.0,0.0,0.0,0.0,0.0,0.0,0.0,0.0,0.0,0.0,0.0,0.0,1.4305,1.3973,1.3636,1.3346,1.2801,1.198,1.081,0.0,0.0,0.0,0.0,0.0,0.0,0.0,0.0,0.0,0.0,0.0,0.0,0.0,0.0,0.0,0.0,0.0,0.0,0.0,0.0,0.0,0.0,0.0,0.0,0.0,0.0,0.0,0.0,0.0,0.0,0.0,0.0,0.0,0.0,0.0,0.0,0.0,0.0,0.0,0.0,0.0,0.0,0.0,0.0,0.0,0.0,0.0,0.0,0.0,0.0,0.0,0.0,0.0,0.0,0.0,0.0,0.0,0.0,0.0,0.0,0.0,0.0,0.0,0.0,0.0,0.0,0.0,0.0,0.0,0.0,0.0,0.0,0.0,0.0,0.0,0.0,0.0,0.0,0.0,0.0,0.0,0.0,0.0,0.0,0.0,0.0,0.0,0.0,0.0,0.0,0.0,0.0,0.0,0.0,0.0,0.0,0.0,0.0,0.0,0.0,0.0,0.0,0.0,0.0,0.0,0.0,0.0,0.0,1.4576,1.4244,1.3852,1.3429,1.2962,1.2166,0.0,0.0,0.0,0.0,0.0,0.0,0.0,0.0,0.0,0.0,0.0,0.0,0.0,0.0,0.0,0.0,0.0,0.0,0.0,0.0,0.0,0.0,0.0,0.0,0.0,0.0,0.0,0.0,0.0,0.0,0.0,0.0,0.0,0.0,0.0,0.0,0.0,0.0,0.0,0.0,0.0,0.0,0.0,0.0,0.0,0.0,0.0,0.0,0.0,0.0,0.0,0.0,0.0,0.0,0.0,0.0,0.0,0.0,0.0,0.0,0.0,0.0,0.0,0.0,0.0,0.0,0.0,0.0,0.0,0.0,0.0,0.0,0.0,0.0,0.0,0.0,0.0,0.0,0.0,0.0,0.0,0.0,0.0,0.0,0.0,0.0,0.0,0.0,0.0,0.0,0.0,0.0,0.0,0.0,0.0,0.0,0.0,0.0,0.0,0.0,0.0,0.0,0.0,0.0,0.0,0.0,0.0,0.0,0.0,1.556,1.5866,1.526,1.3679,1.3132,1.2514,0.0,0.0,0.0,0.0,0.0,0.0,0.0,0.0,0.0,0.0,0.0,0.0,0.0,0.0,0.0,0.0,0.0,0.0,0.0,0.0,0.0,0.0,0.0,0.0,0.0,0.0,0.0,0.0,0.0,0.0,0.0,0.0,0.0,0.0,0.0,0.0,0.0,0.0,0.0,0.0,0.0,0.0,0.0,0.0,0.0,0.0,0.0,0.0,0.0,0.0,0.0,0.0,0.0,0.0,0.0,0.0,0.0,0.0,0.0,0.0,0.0,0.0,0.0,0.0,0.0,0.0,0.0,0.0,0.0,0.0,0.0,0.0,0.0,0.0,0.0,0.0,0.0,0.0,0.0,0.0,0.0,0.0,0.0,0.0,0.0,0.0,0.0,0.0,0.0,0.0,0.0,0.0,0.0,0.0,0.0,0.0,0.0,0.0,0.0,0.0,0.0,0.0,0.0,0.0,0.0,0.0,0.0,0.0,1.6291,1.6536,1.6778,1.6269,1.4991,1.4042,1.3113,0.0,0.0,0.0,0.0,0.0,0.0,0.0,0.0,0.0,0.0,0.0,0.0,0.0,0.0,0.0,0.0,0.0,0.0,0.0,0.0,0.0,0.0,0.0,0.0,0.0,0.0,0.0,0.0,0.0,0.0,0.0,0.0,0.0,0.0,0.0,0.0,0.0,0.0,0.0,0.0,0.0,0.0,0.0,0.0,0.0,0.0,0.0,0.0,0.0,0.0,0.0,0.0,0.0,0.0,0.0,0.0,0.0,0.0,0.0,0.0,0.0,0.0,0.0,0.0,0.0,0.0,0.0,0.0,0.0,0.0,0.0,0.0,0.0,0.0,0.0,0.0,0.0,0.0,0.0,0.0,0.0,0.0,0.0,0.0,0.0,0.0,0.0,0.0,0.0,0.0,0.0,0.0,0.0,0.0,0.0,0.0,0.0,0.0,0.0,0.0,0.0,0.0,0.0,0.0,0.0,0.0,0.0,0.0,1.6815,1.7529,1.7382,1.7161,1.6824,1.5278,1.3847,0.0,0.0,0.0,0.0,0.0,0.0,0.0,0.0,0.0,0.0,0.0,0.0,0.0,0.0,0.0,0.0,0.0,0.0,0.0,0.0,0.0,0.0,0.0,0.0,0.0,0.0,0.0,0.0,0.0,0.0,0.0,0.0,0.0,0.0,0.0,0.0,0.0,0.0,0.0,0.0,0.0,0.0,0.0,0.0,0.0,0.0,0.0,0.0,0.0,0.0,0.0,0.0,0.0,0.0,0.0,0.0,0.0,0.0,0.0,0.0,0.0,0.0,0.0,0.0,0.0,0.0,0.0,0.0,0.0,0.0,0.0,0.0,0.0,0.0,0.0,0.0,0.0,0.0,0.0,0.0,0.0,0.0,0.0,0.0,0.0,0.0,0.0,0.0,0.0,0.0,0.0,0.0,0.0,0.0,0.0,0.0,0.0,0.0,0.0,0.0,0.0,0.0,0.0,0.0,0.0,0.0,0.0,0.0,1.7763,1.8479,1.8969,1.8755,1.7808,1.5738,1.431,0.0,0.0,0.0,0.0,0.0,0.0,0.0,0.0,0.0,0.0,0.0,0.0,0.0,0.0,0.0,0.0,0.0,0.0,0.0,0.0,0.0,0.0,0.0,0.0,0.0,0.0,0.0,0.0,0.0,0.0,0.0,0.0,0.0,0.0,0.0,0.0,0.0,0.0,0.0,0.0,0.0,0.0,0.0,0.0,0.0,0.0,0.0,0.0,-0.1589,0.0,0.0,0.0,0.0,0.0,0.0,0.0,0.0,0.0,0.0,0.0,0.0,0.0,0.0,0.0,0.0,0.0,0.0,0.0,0.0,0.0,0.0,0.0,0.0,0.0,0.0,0.0,0.0,0.0,0.0,0.0,0.0,0.0,0.0,0.0,0.0,0.0,0.0,0.0,0.0,0.0,0.0,0.0,0.0,0.0,0.0,0.0,0.0,0.0,0.0,0.0,0.0,0.0,0.0,0.0,0.0,0.0,0.0,0.0,1.8729,1.9479,1.9753,1.9545,1.8776,1.6706,1.5115,0.0,0.0,0.0,0.0,0.0,0.0,0.0,0.0,0.0,0.0,0.0,0.0,0.0,0.0,0.0,0.0,0.0,0.0,0.0,0.0,0.0,0.0,0.0,0.0,0.0,0.0,0.0,0.0,0.0,0.0,0.0,0.0,0.0,0.0,0.0,0.0,0.0,0.0,0.0,0.0,0.0,0.0,0.0,0.0,0.0,0.0,0.0,0.0,0.0,0.0,0.0,0.0,0.0,0.0,0.0,0.0,0.0,0.0,0.0,0.0,0.0,0.0,0.0,0.0,0.0,0.0,0.0,0.0,0.0,0.0,0.0,0.0,0.0,0.0,0.0,0.0,0.0,0.0,0.0,0.0,0.0,0.0,0.0,0.0,0.0,0.0,0.0,0.0,0.0,0.0,0.0,0.0,0.0,0.0,0.0,0.0,0.0,0.0,0.0,0.0,0.0,0.0,0.0,0.0,0.0,0.0,0.0,1.8698,1.9504,2.0265,2.0133,1.9911,1.961,1.7711,1.6011,1.4627,0.0,0.0,0.0,0.0,0.0,0.0,0.0,0.0,0.0,0.0,0.0,0.0,0.0,0.0,0.0,0.0,0.0,0.0,0.0,0.0,0.0,0.0,0.0,0.0,0.0,0.0,0.0,0.0,0.0,0.0,0.0,0.0,0.0,0.0,0.0,0.0,0.0,0.0,0.1759,0.0961,0.0,0.0,0.0,0.0,0.0,0.0,0.0,0.0,-0.1897,0.0,0.0,0.0,0.0,0.0,0.0,0.0,0.0,0.0,0.0,0.0,0.0,0.0,0.0,0.0,0.0,0.0,0.0,0.0,0.0,0.0,0.0,0.0,0.0,0.0,0.0,0.0,0.0,0.0,0.0,0.0,0.0,0.0,0.0,0.0,0.0,0.0,0.0,0.0,0.0,0.0,0.0,0.0,0.0,0.0,0.0,0.0,0.0,0.0,0.0,0.0,0.0,0.0,0.0,0.0,0.0,1.7904,1.875,1.9565,2.0359,2.024,2.0031,1.9728,1.7929,1.6606,1.5849,0.0,0.0,0.0,0.0,0.0,0.0,0.0,0.0,0.0,0.0,0.0,0.0,0.0,0.0,0.0,0.0,0.0,0.0,0.0,0.0,0.0,0.0,0.0,0.0,0.0,0.0,0.0,0.0,0.0,0.0,0.0,0.0,0.0,0.0,0.0,0.0,0.0,0.0,0.0,0.0824,0.0313,0.0,0.0,0.0,0.0,0.0,0.0,0.0,0.0,-0.2555,0.0,0.0,0.0,0.0,0.0,0.0,0.0,0.0,0.0,0.0,0.0,0.0,0.0,0.0,0.0,0.0,0.0,0.0,0.0,0.0,0.0,0.0,0.0,0.0,0.0,0.0,0.0,0.0,0.0,0.0,0.0,0.0,0.0,0.0,0.0,0.0,0.0,0.0,0.0,0.0,0.0,0.0,0.0,0.0,0.0,0.0,0.0,0.0,0.0,0.0,0.0,0.0,0.0,0.0,0.0,1.8617,1.9441,2.0052,2.0438,2.0361,2.0187,1.9924,1.8146,1.6929,0.0,0.0,0.0,0.0,0.0,0.0,0.0,0.0,0.0,0.0,0.0,0.0,0.0,0.0,0.0,0.0,0.0,0.0,0.0,0.0,0.0,0.0,0.0,0.0,0.0,0.0,0.0,0.0,0.0,0.0,0.0,0.0,0.0,0.0,0.0,0.0,0.0,0.0,0.0,0.0,0.0717,0.019,-0.0333,0.0,0.0,0.0,0.0,0.0,0.0,-0.2714,-0.301,0.0,0.0,0.0,0.0,0.0,0.0,0.0,0.0,0.0,0.0,0.0,0.0,0.0,0.0,0.0,0.0,0.0,0.0,0.0,0.0,0.0,0.0,0.0,0.0,0.0,0.0,0.0,0.0,0.0,0.0,0.0,0.0,0.0,0.0,0.0,0.0,0.0,0.0,0.0,0.0,0.0,0.0,0.0,0.0,0.0,0.0,0.0,0.0,0.0,0.0,0.0,0.0,0.0,0.0,0.0,1.9296,2.0082,2.0508,2.0509,2.0431,2.0311,2.0119,1.8335,1.7141,0.0,0.0,0.0,0.0,0.0,0.0,0.0,0.0,0.0,0.0,0.0,0.0,0.0,0.0,0.0,0.0,0.0,0.0,0.0,0.0,0.0,0.0,0.0,0.0,0.0,0.0,0.0,0.0,0.0,0.0,0.0,0.0,0.0,0.0,0.0,0.0,0.0,0.0,0.0,0.0,0.0,-0.0025,-0.0652,-0.1175,0.0,0.0,0.0,0.0,-0.3084,-0.3334,0.0,0.0,0.0,0.0,0.0,0.0,0.0,0.0,0.0,0.0,0.0,0.0,0.0,0.0,0.0,0.0,0.0,0.0,0.0,0.0,0.0,0.0,0.0,0.0,0.0,0.0,0.0,0.0,0.0,0.0,0.0,0.0,0.0,0.0,0.0,0.0,0.0,0.0,0.0,0.0,0.0,0.0,0.0,0.0,0.0,0.0,0.0,0.0,0.0,0.0,0.0,0.0,0.0,0.0,0.0,0.0,1.9288,2.0103,2.0508,2.0503,2.045,2.0358,2.0254,1.8515,1.7394,0.0,0.0,0.0,0.0,0.0,0.0,0.0,0.0,0.0,0.0,0.0,0.0,0.0,0.0,0.0,0.0,0.0,0.0,0.0,0.0,0.0,0.0,0.0,0.0,0.0,0.0,0.0,0.0,0.0,0.0,0.0,0.0,0.0,0.0,0.0,0.0,0.0,0.0,0.0,0.0,0.0,-0.0325,-0.1024,-0.1593,-0.211,0.0,0.0,-0.3297,-0.3478,-0.3856,0.0,0.0,0.0,0.0,0.0,0.0,0.0,0.0,0.0,0.0,0.0,0.0,0.0,0.0,0.0,0.0,0.0,0.0,0.0,0.0,0.0,0.0,0.0,0.0,0.0,0.0,0.0,0.0,0.0,0.0,0.0,0.0,0.0,0.0,0.0,0.0,0.0,0.0,0.0,0.0,0.0,0.0,0.0,0.0,0.0,0.0,0.0,0.0,0.0,0.0,0.0,0.0,0.0,0.0,0.0,1.911,1.9957,2.0333,2.0508,2.0505,2.0478,2.0416,2.0353,1.8632,1.7595,0.0,0.0,0.0,0.0,0.0,0.0,0.0,0.0,0.0,0.0,0.0,0.0,0.0,0.0,0.0,0.0,0.0,0.0,0.0,0.0,0.0,0.0,0.0,0.0,0.0,0.0,0.0,0.0,0.0,0.0,0.0,0.0,0.0,0.0,0.0,0.0,0.0,0.0,0.0,0.0,0.0,0.0,-0.1643,-0.2343,0.0,0.0,0.0,-0.4347,-0.4583,0.0,0.0,0.0,0.0,0.0,0.0,0.0,0.0,0.0,0.0,0.0,0.0,0.0,0.0,0.0,0.0,0.0,0.0,0.0,0.0,0.0,0.0,0.0,0.0,0.0,0.0,0.0,0.0,0.0,0.0,0.0,0.0,0.0,0.0,0.0,0.0,0.0,0.0,0.0,0.0,0.0,0.0,0.0,0.0,0.0,0.0,0.0,0.0,0.0,0.0,0.0,0.0,0.0,0.0,0.0,0.0,0.0,2.0458,2.0458,2.0451,2.0445,2.0448,2.0426,2.0349,1.8677,0.0,0.0,0.0,0.0,0.0,0.0,0.0,0.0,0.0,0.0,0.0,0.0,0.0,0.0,0.0,0.0,0.0,0.0,0.0,0.0,0.0,0.0,0.0,0.0,0.0,0.0,0.0,0.5891,0.0,0.0,0.0,0.0,0.0,0.0,0.0,0.0,0.0,0.0,0.0,0.0,0.0,0.0,-0.1576,-0.2404,-0.3282,-0.4052,0.0,0.0,-0.5429,-0.563,-0.5727,-0.5742,0.0,0.0,0.0,0.0,0.0,0.0,0.0,0.0,0.0,0.0,0.0,0.0,0.0,0.0,0.0,0.0,0.0,0.0,0.0,0.0,0.0,0.0,0.0,0.0,0.0,0.0,0.0,0.0,0.0,0.0,0.0,0.0,0.0,0.0,0.0,0.0,0.0,0.0,0.0,0.0,0.0,0.0,0.0,0.0,0.0,0.0,0.0,0.0,0.0,0.0,0.0,0.0,0.0,0.0,0.0,2.0367,2.034,2.0302,2.0315,2.0312,2.0303,2.0284,1.8627,1.7708,0.0,0.0,0.0,0.0,0.0,0.0,0.0,0.0,0.0,0.0,0.0,0.0,0.0,0.0,0.0,0.0,0.0,0.0,0.0,0.0,0.0,0.0,0.0,0.0,0.0,0.0,0.0,0.0,0.0,0.0,0.0,0.0,0.0,0.0,0.0,0.0,0.0,0.0,0.0,0.0,0.0,-0.2504,-0.331,-0.4317,-0.5192,0.0,-0.6133,-0.635,-0.6419,-0.6423,-0.6405,-0.628,0.0,0.0,0.0,0.0,0.0,0.0,0.0,0.0,0.0,0.0,0.0,0.0,0.0,0.0,0.0,0.0,0.0,0.0,0.0,0.0,0.0,0.0,0.0,0.0,0.0,0.0,0.0,0.0,0.0,0.0,0.0,0.0,0.0,0.0,0.0,0.0,0.0,0.0,0.0,0.0,0.0,0.0,0.0,0.0,0.0,0.0,0.0,0.0,0.0,0.0,0.0,0.0,0.0,1.9877,2.0211,2.0122,2.0058,2.0058,2.0018,1.9979,1.998,1.8866,1.8042,0.0,0.0,0.0,0.0,0.0,0.0,0.0,0.0,0.0,0.0,0.0,0.0,0.0,0.0,0.0,0.0,0.0,0.0,0.0,0.0,0.0,0.0,0.0,0.0,0.0,0.0,0.0,0.0,0.7194,0.6794,0.6083,0.0,0.0,0.0,0.0,0.0,0.0,0.0,0.0,0.0,0.0,-0.3631,-0.4436,-0.5493,0.0,0.0,-0.7136,-0.7322,-0.735,-0.7311,-0.7193,-0.6944,-0.6613,0.0,0.0,0.0,0.0,0.0,0.0,0.0,0.0,0.0,0.0,0.0,0.0,0.0,0.0,0.0,0.0,0.0,0.0,0.0,0.0,0.0,0.0,0.0,0.0,0.0,0.0,0.0,0.0,0.0,0.0,0.0,0.0,0.0,0.0,0.0,0.0,0.0,0.0,0.0,0.0,0.0,0.0,0.0,0.0,0.0,0.0,0.0,0.0,0.0,0.0,0.0,0.0,1.9726,1.9912,1.9777,1.9698,1.9665,1.9604,1.9563,1.9516,1.8786,1.757,0.0,0.0,0.0,0.0,0.0,0.0,0.0,0.0,0.0,0.0,0.0,0.0,0.0,0.0,0.0,0.0,0.0,0.0,0.0,0.0,0.0,0.0,0.0,0.0,0.0,0.0,0.0,0.0,0.7768,0.7323,0.6169,0.0,0.0,0.0,0.0,0.0,0.0,0.0,0.0,0.0,0.0,-0.4912,-0.58,-0.6817,-0.7646,-0.7988,-0.8234,-0.8362,-0.83,-0.821,-0.8006,-0.7695,0.0,0.0,0.0,0.0,0.0,0.0,0.0,0.0,0.0,0.0,0.0,0.0,0.0,0.0,0.0,0.0,0.0,0.0,0.0,0.0,0.0,0.0,0.0,0.0,0.0,0.0,0.0,1.2268,0.0,0.0,1.2715,0.0,0.0,0.0,0.0,0.0,0.0,0.0,0.0,0.0,0.0,0.0,0.0,0.0,0.0,0.0,0.0,0.0,0.0,0.0,0.0,0.0,0.0,1.8868,1.9483,1.9351,1.9241,1.9112,1.9056,1.8966,1.8899,1.8231,1.598,1.1972,0.0,0.0,0.0,0.0,0.0,0.0,0.0,0.0,0.0,0.0,0.0,0.0,0.0,0.0,0.0,0.0,0.0,0.0,0.0,0.0,0.0,0.0,0.0,0.0,0.0,0.0,0.8349,0.8456,0.8016,0.0,0.0,0.0,0.0,0.0,0.0,0.0,0.0,0.0,0.0,-0.5071,-0.6294,-0.7404,-0.8308,-0.8933,-0.9195,-0.9336,-0.9348,-0.9286,-0.9066,-0.8772,0.0,0.0,0.0,0.0,0.0,0.0,0.0,0.0,0.0,0.0,0.0,0.0,0.0,0.0,0.0,0.0,0.0,0.0,0.0,0.0,0.0,0.0,0.0,0.0,0.0,0.0,0.0,1.2601,1.3268,0.0,0.0,0.0,0.0,0.0,0.0,0.0,0.0,0.0,0.0,0.0,1.7497,1.7449,0.0,0.0,0.0,0.0,0.0,0.0,0.0,0.0,0.0,0.0,0.0,0.0,1.8252,1.8806,1.8512,1.8336,1.8239,1.8121,1.8061,1.7994,1.4887,1.1121,0.6757,0.0,0.0,0.0,0.0,0.0,0.0,0.0,0.0,0.0,0.0,0.0,0.0,0.0,0.0,0.0,0.0,0.0,0.0,0.0,0.0,0.0,0.0,0.0,0.0,0.0,0.8706,0.0,0.0,0.0,0.0,0.0,0.0,0.0,0.0,0.0,0.0,0.0,-0.3739,-0.5209,-0.6417,-0.7565,-0.8642,-0.9477,-1.002,0.0,0.0,0.0,0.0,0.0,0.0,0.0,0.0,0.0,0.0,0.0,0.0,0.0,0.0,-0.5875,-0.5295,-0.4976,-0.4718,-0.4488,0.0,0.0,0.0,0.0,0.0,0.0,0.0,0.0,0.0,0.0,0.0,0.0,0.0,0.0,1.3638,0.0,1.4361,0.0,0.0,0.0,0.0,0.0,0.0,0.0,0.0,1.8391,1.8342,1.8277,1.8185,1.792,0.0,1.6744,1.6101,0.0,0.0,0.0,0.0,0.0,0.0,0.0,0.0,1.7403,1.7835,1.7481,1.7211,1.7104,1.7026,1.6201,1.4511,0.8831,0.4455,0.1687,-0.0142,-0.0349,0.0,0.0,0.0,0.0,0.0,0.0,0.0,0.0,0.0,0.0,0.0,0.0,0.0,0.0,0.0,0.0,0.0,0.0,0.0,0.0,0.0,0.0,0.0,0.9876,0.0,0.0,0.0,0.0,0.0,0.0,0.0,0.0,0.0,-0.3498,-0.43,-0.5542,-0.7102,-0.8108,-0.9032,-0.9978,0.0,0.0,0.0,0.0,0.0,0.0,0.0,-1.0352,-0.9957,-0.9518,-0.9002,-0.8417,-0.7935,-0.754,-0.7353,0.0,0.0,-0.5983,-0.5641,-0.5383,-0.5131,-0.4776,-0.4398,-0.404,-0.3721,-0.3395,0.0,0.0,0.0,0.0,0.0,0.0,0.0,0.0,1.4958,1.5107,0.0,1.5352,0.0,0.0,0.0,0.0,1.801,1.7949,0.0,0.0,1.9158,1.9099,1.9021,1.8878,1.8278,1.7279,1.6886,1.6551,1.6231,1.5139,0.0,0.0,0.0,0.0,0.0,0.0,1.6241,1.6602,1.6221,1.593,1.5722,1.5576,1.3207,0.8277,0.0535,-0.3452,-0.3299,-0.5861,-0.6211,-0.3722,-0.2015,0.0,0.0,0.0,0.0,0.0,0.0,0.0,0.0,0.0,0.0,0.0,0.0,0.0,0.0,0.0,0.0,0.0,0.0,0.0,0.0,1.0525,0.0,0.0,0.0,0.0,0.0,0.0,0.0,0.0,0.0,0.0,-0.5933,-0.6501,-0.7647,-0.94,0.0,0.0,0.0,0.0,-1.1848,-1.1912,-1.1862,-1.1768,-1.163,-1.1296,-1.0943,-1.0753,0.0,0.0,-0.8877,-0.8556,-0.8308,-0.7986,-0.786,-0.7559,-0.6725,-0.6348,-0.6033,-0.5723,-0.5376,-0.5039,-0.4648,-0.4322,-0.403,1.5239,0.0,0.0,0.0,0.0,1.4562,1.472,1.5053,1.5761,1.6105,1.6232,1.6885,0.0,0.0,0.0,0.0,0.0,0.0,1.9212,1.9968,1.9909,1.9819,1.9703,1.9434,1.8992,1.8382,1.7398,1.6666,1.62,1.4939,1.4599,1.5174,0.0,0.0,0.0,0.0,1.4809,1.5081,1.463,1.4359,1.4301,1.0991,0.5609,-0.1923,-0.4174,-0.6616,-0.9282,-0.9885,-0.9139,-0.6869,-0.4954,0.0,0.0,0.0,0.0,0.0,0.0,0.0,0.0,0.0,0.0,0.0,0.0,0.0,0.0,0.0,0.0,0.0,0.0,0.0,0.9049,0.9526,0.9045,0.0,0.0,0.0,0.0,0.0,0.0,0.0,0.0,0.0,-0.9773,-0.9289,-0.9351,0.0,0.0,-1.1392,-1.2171,-1.2368,-1.2443,-1.2463,-1.2368,0.0,-1.2192,-1.1876,-1.1534,-1.125,-1.0592,-0.9951,-0.9437,-0.9182,-0.8943,-0.8612,-0.8449,-0.8218,-0.784,-0.728,-0.6837,-0.6561,-0.6256,-0.594,-0.5619,-0.5297,-0.4988,1.6957,1.559,1.5695,1.5818,1.5971,1.6067,1.6153,1.6236,1.68,1.7093,1.7144,1.7659,1.7918,1.7988,1.8287,0.0,0.0,0.0,1.9793,2.0207,2.0095,1.9944,1.9743,1.9365,1.8919,1.8383,1.7363,1.652,1.5919,1.4766,1.424,1.4306,0.0,0.0,1.4312,1.3732,1.3374,1.3265,1.3067,1.1873,0.9507,0.3165,-0.2625,-0.7624,-0.911,-1.094,-1.3272,-1.2589,-1.1443,-0.9962,-0.8018,-0.6365,0.0,0.0,0.0,0.0,0.0,0.0,0.0,0.0,0.0,0.0,0.0,0.3918,0.5027,0.0,0.0,0.0,0.7821,0.7841,0.7377,0.723,0.0,0.0,0.0,0.0,0.0,0.0,0.0,-0.9664,-1.0558,-1.1382,-1.2332,-1.177,-1.1429,-1.1835,-1.2021,-1.2295,-1.2797,0.0,-1.3344,-1.3339,-1.3474,-1.3545,-1.3463,-1.3161,-1.2696,-1.1967,-1.1133,-1.0441,-1.0021,-0.9783,-0.9592,-0.9457,-0.9323,-0.922,-0.9155,-0.8776,-0.8132,-0.7338,-0.709,-0.6856,-0.6395,-0.6048,-0.578,1.8514,1.7879,1.7825,1.7756,1.7733,1.7795,1.7841,1.7901,1.798,1.7996,1.8017,1.8083,1.8101,1.8142,1.8857,0.0,2.0382,2.0306,2.0246,2.0174,2.0017,1.9787,1.9472,1.901,1.8393,1.7726,1.6952,1.6192,1.5433,1.4575,1.3736,1.3026,1.3106,1.3198,1.3289,1.2602,1.1934,1.1318,1.1064,0.8023,0.1973,-0.6234,-1.0587,-1.0626,-1.3974,-1.5712,-1.5581,-1.4376,-1.3443,-1.2857,-1.1203,-0.9554,-0.8048,0.0,0.0,0.0,0.0,0.0,0.0,0.0,0.0,0.0,0.0,0.0,0.0,0.0,0.0,0.0,0.5355,0.0,0.4379,0.3906,0.0,0.0,0.0,-0.2199,-0.635,-0.7325,-0.9006,-1.2391,0.0,0.0,-1.3759,-1.3838,-1.3672,-1.332,-1.3236,-1.3295,-1.3396,-1.3944,-1.4335,-1.4396,-1.484,-1.5159,-1.4939,-1.4621,-1.3992,-1.2933,-1.1925,-1.1238,-1.0832,-1.0525,-1.042,-1.0476,-1.0402,-1.0333,-1.0517,-1.0369,-0.9846,-0.8169,-0.794,-0.7798,-0.7138,-0.6795,-0.6617,1.9688,1.9519,1.9516,1.8842,1.7794,1.7851,1.788,1.7946,1.8612,1.8888,1.8921,1.952,1.9787,1.9743,1.9879,2.0015,2.0185,2.068,2.0825,2.0719,2.0979,2.0868,2.0369,1.9658,1.8843,1.7959,1.6962,1.5938,1.5005,1.4026,1.3036,1.2119,1.1399,1.1296,1.179,1.1096,1.0644,1.0401,0.6178,-0.0145,-0.8528,-1.0476,-1.2949,-1.6211,-1.713,-1.7294,-1.6736,-1.6442,-1.5707,-1.4537,-1.4147,-1.3536,-1.2543,-1.0946,0.0,0.0,0.0,0.0,0.0,0.0,0.0,0.0,0.0,0.2089,0.1957,0.0,0.3365,0.0,0.3071,0.2572,0.0716,-0.0152,0.0,0.0,-0.6881,-0.8837,-1.0817,-1.209,-1.3225,-1.4229,-1.4237,-1.4161,-1.4175,-1.4609,-1.4896,-1.4773,-1.4087,-1.3782,-1.4281,-1.4477,-1.4773,-1.5204,-1.5395,-1.539,-1.5284,-1.4861,-1.4405,-1.3817,-1.3295,-1.2824,-1.2455,-1.2123,-1.1866,-1.1658,-1.1381,-1.1155,-1.1023,-1.1096,-1.0825,-0.9825,-0.9327,-0.9018,-0.8593,-0.8229,-0.793,1.9843,1.9828,1.9828,1.9354,1.8629,1.8828,1.8921,1.8969,1.9435,1.9643,1.9672,2.0079,2.021,2.0129,2.0078,2.0012,1.9959,2.0568,2.0793,2.0655,2.0953,2.0779,2.0157,1.9323,1.8314,1.7232,1.6068,1.4942,1.3807,1.2704,1.1684,1.0781,0.9773,0.9427,0.9701,0.9435,0.8077,0.5545,-0.1943,-0.8121,-1.2732,-1.489,-1.7074,-1.9359,-1.9216,-1.8914,-1.8657,-1.8423,-1.7781,-1.6684,-1.6545,-1.6182,-1.5515,-1.4375,-1.3537,0.0,0.0,0.0,0.0,0.0,0.0,0.0,0.0,0.0,0.0,0.0,0.0324,-0.0263,-0.0987,-0.2155,-0.3917,-0.4959,-0.6518,-0.8958,-1.1169,-1.2867,-1.3861,-1.5134,-1.5974,-1.6048,-1.5884,-1.5677,-1.5484,-1.5704,-1.5849,-1.5839,-1.5269,-1.498,-1.5315,-1.5582,-1.587,-1.6177,-1.6418,-1.6475,-1.6238,-1.5668,-1.5168,-1.4796,-1.4189,-1.3608,-1.3313,-1.2946,-1.269,-1.263,-1.2349,-1.2102,-1.2016,-1.2007,-1.1802,-1.1166,-1.0703,-1.0207,-0.9452,-0.8984,-0.8646,1.9408,1.9378,1.94,1.9436,1.9516,1.9881,2.006,2.0126,2.0148,2.0134,2.0108,2.0031,1.9944,1.9829,1.9821,1.975,1.9669,2.0353,2.0543,2.0336,2.0603,2.0326,1.9533,1.8633,1.7534,1.6224,1.4985,1.375,1.2473,1.1236,1.0193,0.9372,0.8357,0.7498,0.6718,0.6901,0.3995,-0.2051,-1.0598,-1.4818,-1.45,-1.9,-2.1293,-2.111,-2.0629,-2.05,-2.0694,-2.0249,-1.9639,-1.8958,-1.8599,-1.8189,-1.7657,-1.7445,-1.6931,0.0,-1.4977,0.0,0.0,0.0,0.0,0.0,0.0,0.0,0.0,-0.3586,-0.325,-0.3738,-0.6098,-0.7985,-0.8922,-0.9971,-1.1047,-1.2248,-1.3962,-1.5314,-1.5999,-1.6971,-1.7567,-1.7495,-1.7319,-1.7107,-1.6862,-1.6795,-1.6733,-1.6675,-1.6635,-1.657,-1.6545,-1.6812,-1.7019,-1.7102,-1.7544,-1.7541,-1.7241,-1.6682,-1.6111,-1.5725,-1.5018,-1.42,-1.3961,-1.3597,-1.3361,-1.3468,-1.3247,-1.3064,-1.3151,-1.2896,-1.2544,-1.2027,-1.1754,-1.1206,-1.0092,-0.9521,-0.9212,1.8822,1.877,1.8839,1.8855,1.888,1.9011,1.9346,1.9804,1.9787,1.9764,1.9703,1.9592,1.9501,1.9416,1.9355,1.9282,1.9274,2.0454,2.0787,2.0425,2.1148,2.0973,1.9954,1.8856,1.7685,1.6421,1.4917,1.3627,1.2392,1.1002,0.9722,0.867,0.7866,0.5198,0.0961,0.0,0.0,0.0,-1.4092,-1.6681,-2.0362,-2.1315,-2.1781,-2.1726,-2.1823,0.0,-2.1345,-2.1381,-2.113,-2.059,-2.0682,0.0,0.0,0.0,0.0,0.0,0.0,0.0,0.0,0.0,0.0,0.0,-1.3908,-1.2107,-0.8233,-0.8931,-0.9786,-1.0062,-1.1474,-1.2694,-1.3412,-1.4238,-1.5034,-1.5687,-1.6422,-1.7008,-1.7323,-1.7529,-1.7545,-1.7423,-1.7263,-1.709,-1.7014,-1.7267,-1.7552,-1.7508,-1.787,-1.8116,-1.803,-1.7547,-1.7365,-1.7706,-1.7723,-1.7627,-1.7477,-1.7198,-1.6816,-1.6582,-1.6208,-1.5706,-1.5296,-1.4972,-1.4596,-1.4346,-1.4013,-1.3677,-1.3467,-1.311,-1.2756,-1.2365,-1.2047,-1.1588,-1.0925,-1.0513,-1.021,1.8142,1.8121,1.8154,1.8157,0.0,1.8286,1.8472,1.8792,1.9112,1.9219,1.9154,1.9086,1.8988,1.8908,1.8823,1.8744,1.8663,1.9882,2.0222,1.9791,2.0505,2.0321,1.93,1.8128,1.6859,1.5542,1.403,1.2676,1.139,1.0037,0.8905,0.7844,0.4744,0.1714,-0.1252,-0.6067,-1.0811,-1.5473,-1.7624,-1.9852,-2.213,-2.2186,-2.2169,-2.2183,-2.2494,0.0,0.0,0.0,0.0,0.0,0.0,0.0,0.0,-2.1172,0.0,-2.0111,-1.9169,-1.8422,-1.7899,-1.7078,-1.6524,-1.6352,-1.6329,-1.5214,-1.2543,-1.3201,-1.3779,-1.3906,-1.4654,-1.5275,-1.5739,-1.6304,-1.6775,-1.7141,-1.7796,-1.8266,-1.837,-1.8638,-1.8768,-1.8598,-1.8403,-1.8231,-1.8066,-1.8188,-1.8311,-1.827,-1.842,-1.8535,-1.8439,-1.8062,-1.7853,-1.7984,-1.7833,-1.765,-1.7557,-1.7394,-1.7158,-1.6925,-1.6588,-1.6238,-1.5904,-1.5544,-1.5163,-1.4773,-1.4445,-1.4123,-1.3762,-1.3338,-1.2918,-1.2544,-1.2144,-1.1743,-1.1319,-1.0931,-1.0539,1.7427,1.7419,1.7421,1.7451,1.7495,1.7566,1.7574,1.7603,0.0,0.0,0.0,1.8478,1.8382,1.8252,1.8171,1.8059,1.7932,1.8908,1.9116,1.868,1.9233,1.9,1.8016,1.6875,1.5612,1.4299,1.2835,1.1494,1.021,0.8974,0.7477,0.5457,0.1028,-0.223,-0.4605,-1.2994,-1.7216,-1.6946,-2.0694,-2.2581,-2.2388,-2.2453,-2.2536,-2.2608,-2.2947,-2.3268,-2.3575,-2.3777,-2.3678,-2.3216,-2.3353,-2.3164,-2.2506,-2.2619,-2.239,-2.1646,-2.0943,-2.0212,-1.941,-1.8496,-1.7861,-1.7603,-1.748,-1.708,-1.6346,-1.6336,-1.6424,-1.6505,-1.6858,-1.7188,-1.745,-1.7744,-1.7968,-1.8101,-1.8822,-1.9286,-1.923,-1.9687,-1.9906,-1.9793,-1.952,-1.9405,-1.9168,-1.8963,-1.8869,-1.8743,-1.8584,-1.8483,-1.8383,-1.827,-1.8102,-1.8018,-1.7833,-1.7712,-1.7581,-1.7409,-1.7216,-1.6968,-1.6649,-1.6309,-1.6004,-1.5675,-1.5292,-1.4918,-1.4679,-1.4349,-1.3993,-1.3547,-1.312,-1.265,-1.2282,-1.1889,-1.1511,-1.1121,-1.0725,1.6741,1.6733,1.6672,1.6698,1.6759,1.6759,1.6708,1.6676,1.7493,1.7808,1.7729,1.7578,1.7455,1.7379,1.7261,1.7125,1.7003,1.7425,1.7348,1.6879,1.7309,1.6985,1.6004,1.5235,1.4288,1.3195,1.1841,1.0555,0.9381,0.8162,0.5052,0.0322,-0.1262,-0.6077,-1.4223,-1.9857,-2.2367,-2.2039,-2.2531,-2.2712,-2.256,-2.2738,-2.291,-2.3116,-2.3364,-2.364,-2.3926,-2.4125,-2.4247,-2.4276,-2.4419,-2.4169,-2.3465,-2.3496,-2.3215,-2.2511,-2.2374,-2.199,-2.1194,-2.03,-1.9484,-1.8762,-1.8602,-1.8079,-1.7004,-1.7499,-1.7947,-1.8097,-1.8848,-1.9427,-1.9632,-1.9801,-1.9902,-1.992,-2.0038,-2.0076,-1.9913,-1.9898,-1.9883,-1.972,-1.9527,-1.9357,-1.9193,-1.9001,-1.8807,-1.8677,-1.8535,-1.8434,-1.8256,-1.813,-1.8048,-1.7992,-1.7789,-1.7612,-1.7502,-1.7345,-1.7108,-1.6874,-1.6596,-1.6281,-1.597,-1.5668,-1.5336,-1.4949,-1.4672,-1.4406,-1.4078,-1.3715,-1.3304,-1.2896,-1.255,-1.2191,-1.1785,-1.1372,-1.0948,1.6054,1.6047,1.5978,1.5971,1.5991,1.5928,1.5828,1.5749,1.6014,1.6362,1.6695,1.6553,1.6397,1.6265,1.6103,1.5967,1.5844,1.6054,1.5876,1.5449,1.5561,1.5222,1.4504,1.3672,1.2859,1.1971,1.064,0.9472,0.8251,0.5114,0.1935,-0.1227,-0.6457,-1.2899,-1.9606,-2.2295,-2.3391,-2.3168,-2.2961,-2.2842,-2.2825,-2.3052,-2.3268,-2.3459,-2.3735,-2.3981,-2.4201,-2.4382,-2.4538,-2.4654,-2.4763,-2.4667,-2.4388,-2.4384,-2.4078,-2.3378,-2.3298,-2.2938,-2.2144,-2.1758,-2.1413,-2.1051,-2.1011,-2.0826,-2.0305,-2.0075,-2.0029,-2.015,-2.0993,-2.1374,-2.1024,-2.1053,-2.0901,-2.0376,-2.0292,-2.019,-2.0012,-1.9896,-1.9782,-1.9619,-1.9427,-1.9221,-1.9051,-1.8878,-1.8696,-1.8545,-1.8417,-1.826,-1.8138,-1.7983,-1.7909,-1.7878,-1.7712,-1.7589,-1.7464,-1.7314,-1.71,-1.6849,-1.6528,-1.6254,-1.5949,-1.5675,-1.5329,-1.5027,-1.4735,-1.4522,-1.4215,-1.3808,-1.3446,-1.3094,-1.2662,-1.2288,-1.1889,-1.1356,-1.0797,1.5419,1.5382,1.5285,1.5256,1.5196,1.5091,1.4956,1.4812,1.4456,1.4571,1.5052,1.5256,1.5279,1.511,1.4886,1.4704,1.4582,1.4572,1.4301,1.3841,1.376,1.339,1.2796,1.2009,1.128,1.0557,0.94,0.8367,0.6988,0.2435,-0.1371,-0.4374,-1.2806,-1.9072,-2.2559,-2.3131,-2.3353,-2.3241,-2.3102,-2.3061,-2.3096,-2.3374,-2.358,-2.3798,-2.404,-2.4247,-2.445,-2.4575,-2.4704,-2.4811,-2.4899,-2.4945,-2.4991,-2.4999,-2.4775,-2.4266,-2.4146,-2.3799,-2.3045,-2.2835,-2.2803,-2.2865,-2.291,-2.2955,-2.2964,-2.2503,-2.2078,-2.2049,-2.2507,-2.2654,-2.2098,-2.1944,-2.1578,-2.0694,-2.0462,-2.0298,-1.9952,-1.9785,-1.9655,-1.9462,-1.9299,-1.9099,-1.8922,-1.8734,-1.8554,-1.8443,-1.8239,-1.8057,-1.7961,-1.7833,-1.7774,-1.7698,-1.7612,-1.7511,-1.7393,-1.7248,-1.7049,-1.6805,-1.6474,-1.6207,-1.5921,-1.5617,-1.5292,-1.502,-1.4818,-1.4574,-1.4293,-1.3927,-1.3527,-1.3198,-1.2768,-1.2341,-1.1864,-1.133,-1.0682,1.4804,1.4697,1.462,1.4515,1.4401,1.4271,1.4011,1.3664,1.3084,1.259,1.2449,1.3601,1.4046,1.3919,1.3677,1.3446,1.3251,1.2834,1.2372,1.1833,1.1698,1.1266,1.0583,1.0197,0.9606,0.8834,0.8034,0.7173,0.5917,0.1448,-0.482,-1.2929,-1.9299,-2.2088,-2.2497,-2.3075,-2.3351,-2.3298,-2.3435,-2.3497,-2.3481,-2.3661,-2.384,-2.4069,-2.4256,-2.4441,-2.4566,-2.4719,-2.4818,-2.488,-2.4954,-2.4991,-2.5012,-2.5057,-2.5079,-2.5055,-2.5124,-2.4841,-2.4101,-2.338,-2.3066,-2.3059,-2.3169,-2.3183,-2.3199,-2.3745,-2.378,-2.3214,-2.3015,-2.3061,-2.2892,-2.2769,-2.2327,-2.1413,-2.1139,-2.0789,-2.0013,-1.9645,-1.9481,-1.9344,-1.9182,-1.9053,-1.8887,-1.8704,-1.8463,-1.8244,-1.8018,-1.7833,-1.7811,-1.7689,-1.7574,-1.7487,-1.7416,-1.7377,-1.7289,-1.715,-1.6922,-1.6649,-1.639,-1.6103,-1.5827,-1.5588,-1.5306,-1.5004,-1.477,-1.4556,-1.4307,-1.398,-1.3647,-1.3232,-1.2844,-1.2455,-1.1892,-1.1394,-1.0883,1.4137,1.4052,1.3927,1.3802,1.3596,1.3148,1.2725,1.2347,1.16,1.0964,1.0624,1.0936,1.1439,1.21,1.2079,1.1949,1.1631,1.1212,1.0697,1.02,0.9867,0.9418,0.8916,0.8568,0.8148,0.7566,0.6965,0.5075,0.1434,-0.4745,-1.136,-1.7077,-2.0598,-2.1902,-2.1792,-2.2821,-2.3439,-2.3476,-2.3629,-2.3768,-2.3859,-2.3946,-2.4069,-2.4265,-2.4442,-2.4582,-2.471,-2.4818,-2.4898,-2.4953,-2.4985,-2.5012,-2.5063,-2.5076,-2.5134,-2.5198,-2.5332,-2.5302,-2.5046,-2.471,-2.4573,-2.4637,-2.4648,-2.4623,-2.4581,-2.492,-2.4929,-2.4607,-2.448,-2.4273,-2.375,-2.3564,-2.3122,-2.219,-2.1527,-2.0941,-2.0479,-1.9819,-1.9392,-1.9246,-1.9075,-1.8913,-1.8733,-1.8483,-1.8218,-1.8013,-1.7789,-1.7666,-1.7618,-1.7519,-1.7393,-1.7353,-1.7297,-1.7216,-1.7158,-1.7008,-1.6795,-1.6517,-1.6246,-1.5975,-1.5726,-1.547,-1.5201,-1.4925,-1.4707,-1.4493,-1.4242,-1.3901,-1.3567,-1.3192,-1.2697,-1.2197,-1.1799,-1.1362,-1.0845,1.3581,1.352,1.3338,1.3079,1.2722,1.2119,1.1568,1.0982,1.0139,0.9462,0.8985,0.8551,0.8829,0.9647,1.0143,1.0275,1.006,0.9635,0.916,0.8751,0.8224,0.7823,0.7426,0.7089,0.6708,0.6111,0.4679,0.1093,-0.4293,-1.0116,-1.555,-1.9081,-2.0752,-2.1306,-2.1345,-2.2692,-2.3544,-2.3651,-2.3813,-2.399,-2.4155,-2.4238,-2.4337,-2.4446,-2.4588,-2.471,-2.4851,-2.4898,-2.494,-2.5025,-2.5034,-2.5051,-2.5091,-2.5094,-2.5141,-2.5233,-2.5406,-2.5529,-2.5593,-2.5613,-2.5657,-2.569,-2.5701,-2.5664,-2.5622,-2.5586,-2.5534,-2.543,-2.5434,-2.5043,-2.4586,-2.4351,-2.3863,-2.2906,-2.196,-2.1258,-2.0778,-1.9929,-1.928,-1.9135,-1.8913,-1.8725,-1.8506,-1.8225,-1.7996,-1.778,-1.7637,-1.7536,-1.7455,-1.7361,-1.7289,-1.7257,-1.7158,-1.7116,-1.7083,-1.6906,-1.6675,-1.6436,-1.6199,-1.5904,-1.5639,-1.5351,-1.5079,-1.4863,-1.4581,-1.4332,-1.4105,-1.3801,-1.3452,-1.3076,-1.2579,-1.2052,-1.1762,-1.1314,-1.0883,1.3301,1.31,1.2785,1.2309,1.1726,1.1336,1.0654,0.9722,0.8777,0.8068,0.7466,0.6847,0.6513,0.6706,0.7854,0.8472,0.852,0.8078,0.7713,0.7359,0.6945,0.6534,0.6093,0.562,0.5249,0.467,0.1162,-0.4661,-1.2192,-1.3449,-1.5526,-1.9182,-2.0644,-2.1238,-2.1363,-2.2774,-2.3642,-2.3795,-2.399,-2.4201,-2.4363,-2.4568,-2.4626,-2.4622,-2.4723,-2.4865,-2.4973,-2.4999,-2.5025,-2.5092,-2.5092,-2.5095,-2.5101,-2.5103,-2.5164,-2.5283,-2.5423,-2.5536,-2.5599,-2.566,-2.5693,-2.5702,-2.5699,-2.5666,-2.5603,-2.555,-2.5492,-2.5394,-2.5313,-2.5196,-2.5138,-2.4945,-2.455,-2.365,-2.2619,-2.1674,-2.0807,-1.9852,-1.9181,-1.893,-1.8734,-1.8489,-1.8171,-1.7992,-1.7816,-1.7635,-1.7482,-1.7378,-1.7297,-1.7216,-1.7158,-1.7108,-1.7066,-1.7031,-1.7057,-1.6847,-1.6604,-1.6371,-1.6116,-1.5875,-1.5602,-1.5321,-1.5041,-1.4794,-1.4543,-1.4261,-1.3974,-1.3668,-1.3282,-1.2896,-1.2502,-1.2083,-1.1756,-1.1431,-1.0997,1.272,1.2478,1.196,1.1509,1.1041,1.0092,0.9249,0.8474,0.7552,0.6821,0.6208,0.5631,0.5363,0.5356,0.5457,0.6076,0.6871,0.6307,0.6023,0.5973,0.5634,0.5293,0.4952,0.4698,0.4393,0.3564,0.0038,-0.5959,-1.3307,-1.6133,-1.7954,-1.9168,-2.0617,-2.1296,-2.1576,-2.2914,-2.3816,-2.4048,-2.422,-2.4417,-2.4635,-2.4779,-2.4828,-2.4854,-2.4911,-2.4972,-2.5053,-2.5066,-2.5082,-2.5088,-2.5141,-2.5168,-2.5163,-2.5209,-2.5262,-2.537,-2.545,-2.5534,-2.5589,-2.5636,-2.5659,-2.5702,-2.5698,-2.5666,-2.5618,-2.5549,-2.5471,-2.5386,-2.5283,-2.519,-2.5099,-2.5022,-2.4766,-2.4189,-2.2924,-2.1841,-2.1202,-2.0022,-1.9001,-1.8816,-1.8519,-1.8191,-1.7984,-1.7786,-1.7587,-1.7432,-1.7305,-1.7223,-1.7132,-1.7048,-1.703,-1.6972,-1.6905,-1.6837,-1.6761,-1.6675,-1.649,-1.6254,-1.6004,-1.5769,-1.5485,-1.5201,-1.4902,-1.4655,-1.4401,-1.4157,-1.3835,-1.3465,-1.3116,-1.2756,-1.2324,-1.2041,-1.1751,-1.1351,-1.0921,1.2288,1.2057,1.1416,1.0866,1.0323,0.9138,0.8153,0.7414,0.6581,0.5844,0.5233,0.4765,0.4459,0.4222,0.3843,0.4093,0.4931,0.4662,0.4674,0.4737,0.448,0.4216,0.3783,0.2566,0.1807,0.0756,-0.3608,-0.9416,-1.5252,-1.8258,-1.9464,-1.9703,-2.0835,-2.1557,-2.2041,-2.3273,-2.4069,-2.4275,-2.4459,-2.4639,-2.4842,-2.4957,-2.5019,-2.508,-2.5111,-2.5087,-2.5122,-2.5122,-2.5134,-2.5139,-2.5205,-2.5238,-2.524,-2.5283,-2.5351,-2.5406,-2.5447,-2.5531,-2.5589,-2.5609,-2.5634,-2.5691,-2.57,-2.5676,-2.5609,-2.5533,-2.5464,-2.5367,-2.5243,-2.5101,-2.4977,-2.4865,-2.464,-2.4142,-2.2868,-2.178,-2.1283,-1.9891,-1.8986,-1.8633,-1.8313,-1.8018,-1.7808,-1.7587,-1.75,-1.7535,-1.7441,-1.7376,-1.7538,-1.7274,-1.7093,-1.7069,-1.6826,-1.6644,-1.6543,-1.6436,-1.6328,-1.6116,-1.5862,-1.5624,-1.5366,-1.5079,-1.477,-1.4522,-1.4227,-1.3987,-1.3661,-1.3267,-1.2914,-1.255,-1.2252,-1.1926,-1.1606,-1.1239,-1.0807,1.2113,1.1972,1.1072,1.0376,0.9719,0.8604,0.7543,0.6649,0.5912,0.5227,0.457,0.4137,0.3723,0.3298,0.3054,0.2842,0.2301,0.259,0.3237,0.3642,0.3164,0.2882,0.2507,-0.0965,-0.2994,-0.3651,-1.0298,-1.5589,-1.9105,-1.9438,-1.9789,-2.0475,-2.1186,-2.1999,-2.2878,-2.3768,-2.4382,-2.4522,-2.4712,-2.4865,-2.4984,-2.5134,-2.5221,-2.5274,-2.5293,-2.5264,-2.5228,-2.5208,-2.52,-2.5221,-2.5262,-2.5292,-2.5313,-2.536,-2.5396,-2.5401,-2.547,-2.5538,-2.5589,-2.5613,-2.5637,-2.569,-2.5702,-2.5669,-2.5603,-2.5533,-2.543,-2.5312,-2.519,-2.5032,-2.4898,-2.4723,-2.4307,-2.3497,-2.2507,-2.1522,-2.0539,-1.9531,-1.8726,-1.8371,-1.8099,-1.7886,-1.7629,-1.7425,-1.7461,-1.7795,-1.7853,-1.794,-1.8292,-1.7937,-1.7592,-1.7336,-1.7023,-1.6694,-1.6445,-1.6226,-1.6116,-1.5975,-1.5711,-1.5477,-1.5239,-1.4949,-1.4676,-1.4401,-1.4039,-1.3755,-1.3419,-1.3047,-1.2803,-1.2478,-1.2144,-1.1811,-1.1479,-1.111,-1.0736,1.1923,1.1726,1.0916,1.0119,0.9281,0.822,0.7205,0.6288,0.5519,0.4798,0.4128,0.3499,0.3144,0.2843,0.2314,0.0209,-0.2679,-0.2451,-0.0598,0.18,0.0079,-0.1128,-0.1894,-0.5069,-0.8284,-1.0741,-1.2963,-1.6133,-1.9157,-1.9649,-1.993,-2.0658,-2.1417,-2.2268,-2.3161,-2.4089,-2.4674,-2.4849,-2.4959,-2.5077,-2.5195,-2.5284,-2.5349,-2.5383,-2.5416,-2.5414,-2.541,-2.5359,-2.5341,-2.5351,-2.536,-2.5396,-2.5432,-2.5455,-2.5485,-2.5481,-2.5534,-2.5575,-2.5591,-2.5645,-2.5676,-2.5702,-2.57,-2.5676,-2.5599,-2.5489,-2.5408,-2.5284,-2.5134,-2.4985,-2.4822,-2.4619,-2.4098,-2.3269,-2.2285,-2.1277,-2.0228,-1.9198,-1.8454,-1.812,-1.7888,-1.7637,-1.7435,-1.7248,-1.7359,-1.7786,-1.7841,-1.8021,-1.8409,-1.8397,-1.793,-1.7517,-1.714,-1.6735,-1.6373,-1.6116,-1.6004,-1.5833,-1.5602,-1.5366,-1.5095,-1.4818,-1.4536,-1.4215,-1.3848,-1.3547,-1.3207,-1.2896,-1.2656,-1.2371,-1.2035,-1.17,-1.1367,-1.0992,-1.0621,1.1751,1.1547,1.0748,1.0025,0.9284,0.8144,0.7125,0.6247,0.5393,0.4555,0.3812,0.3189,0.2744,0.2022,-0.0126,-0.3164,-0.6192,-0.6924,-0.5721,-0.3481,-0.4991,-0.6126,-0.6359,-0.9347,-1.2967,-1.5973,-1.6427,-1.7521,-1.9665,-1.9716,-2.002,-2.0791,-2.1632,-2.2519,-2.3446,-2.4348,-2.4926,-2.5094,-2.5168,-2.5263,-2.5361,-2.5447,-2.5476,-2.5483,-2.5508,-2.5535,-2.556,-2.5541,-2.5485,-2.5449,-2.5456,-2.5498,-2.5538,-2.5544,-2.5537,-2.5545,-2.5581,-2.5609,-2.5632,-2.5659,-2.5697,-2.5693,-2.5672,-2.5642,-2.5576,-2.5466,-2.5356,-2.5254,-2.5077,-2.4889,-2.4689,-2.4459,-2.3914,-2.3033,-2.2136,-2.0989,-1.9783,-1.8836,-1.8281,-1.8023,-1.7797,-1.7529,-1.7306,-1.7099,-1.7195,-1.7626,-1.7833,-1.8124,-1.8555,-1.8709,-1.8261,-1.7753,-1.7315,-1.6826,-1.6246,-1.6011,-1.587,-1.5697,-1.5492,-1.5254,-1.5011,-1.4693,-1.4415,-1.398,-1.3615,-1.3316,-1.3006,-1.2756,-1.2508,-1.2216,-1.1926,-1.1638,-1.1303,-1.0921,-1.0549,1.1608,1.1388,1.0666,1.0067,0.9493,0.8286,0.7245,0.6374,0.5384,0.4383,0.351,0.302,0.2457,0.0732,-0.342,-0.7179,-0.8954,-1.067,-1.2186,-1.2408,-1.2871,-1.2539,-1.2108,-1.4116,-1.6734,-1.923,-1.96,-1.9733,-1.983,-1.9741,-2.0135,-2.0941,-2.1862,-2.2779,-2.3707,-2.4651,-2.5197,-2.5316,-2.5379,-2.5444,-2.55,-2.5565,-2.5591,-2.5592,-2.5596,-2.5626,-2.5665,-2.5668,-2.5631,-2.5539,-2.556,-2.5581,-2.56,-2.5605,-2.5618,-2.5596,-2.5605,-2.5639,-2.5678,-2.567,-2.5683,-2.5673,-2.5639,-2.5599,-2.5566,-2.5441,-2.5303,-2.5172,-2.4975,-2.4747,-2.4533,-2.4293,-2.3693,-2.278,-2.1777,-2.0533,-1.9014,-1.8487,-1.8192,-1.7961,-1.7752,-1.7497,-1.7231,-1.6957,-1.7122,-1.7511,-1.7885,-1.8254,-1.8799,-1.8833,-1.8589,-1.8079,-1.7403,-1.6727,-1.607,-1.5833,-1.5697,-1.5529,-1.5321,-1.5102,-1.4856,-1.4543,-1.417,-1.3762,-1.3385,-1.311,-1.2838,-1.2627,-1.2365,-1.2108,-1.1822,-1.1532,-1.1158,-1.0736,-1.0312,1.1619,1.1373,1.0919,1.0178,0.9272,0.8342,0.7323,0.6143,0.5102,0.4071,0.3144,0.2665,0.1971,0.044,-0.5145,-1.1721,-1.6551,-1.7127,-1.8637,-2.0939,-2.176,-2.0645,-1.9122,-1.9224,-1.9678,-2.0134,-2.0002,-1.9905,-1.9884,-1.9804,-2.0222,-2.1138,-2.2078,-2.3006,-2.3928,-2.4867,-2.5389,-2.5503,-2.5536,-2.556,-2.5577,-2.5625,-2.5669,-2.5673,-2.5662,-2.5676,-2.5699,-2.5693,-2.5669,-2.5593,-2.5597,-2.5602,-2.5605,-2.5649,-2.5664,-2.5672,-2.566,-2.5676,-2.5693,-2.5659,-2.5634,-2.5623,-2.5566,-2.5514,-2.5461,-2.533,-2.5203,-2.5024,-2.478,-2.4494,-2.4337,-2.4069,-2.3397,-2.2341,-2.1242,-2.0107,-1.9316,-1.8593,-1.8053,-1.7803,-1.7589,-1.7361,-1.7117,-1.6922,-1.6871,-1.7241,-1.7534,-1.7792,-1.8393,-1.8533,-1.8148,-1.7876,-1.731,-1.6563,-1.598,-1.5713,-1.5522,-1.5366,-1.5147,-1.4918,-1.4637,-1.4319,-1.3921,-1.351,-1.3267,-1.299,-1.2715,-1.2478,-1.2203,-1.1968,-1.1627,-1.1298,-1.0845,-1.0428,-1.0,1.1496,1.1309,1.1007,1.0341,0.9403,0.8605,0.7538,0.6288,0.5067,0.3941,0.2976,0.2325,0.1524,0.0088,-0.3409,-1.0809,-1.9548,-1.9331,-2.1001,-2.4341,-2.4647,-2.3617,-2.2195,-2.144,-2.0609,-2.0136,-1.9959,-1.9904,-1.99,-1.9885,-2.0236,-2.0909,-2.2132,-2.3047,-2.3583,-2.489,-2.5566,-2.5627,-2.5642,-2.5641,-2.5643,-2.5644,-2.5654,-2.5654,-2.5662,-2.5661,-2.5658,-2.5648,-2.5657,-2.5644,-2.5624,-2.5605,-2.5605,-2.5635,-2.5654,-2.5662,-2.5664,-2.5643,-2.5642,-2.5597,-2.5551,-2.5521,-2.546,-2.5182,-2.4859,-2.4676,-2.4486,-2.3812,-2.3866,-2.3841,-2.3685,-2.3557,-2.3191,-2.2512,-2.1234,-2.0214,-1.956,-1.8874,-1.8293,-1.7853,-1.7511,-1.7272,-1.7026,-1.6807,-1.6743,-1.6876,-1.7047,-1.7387,-1.7779,-1.7714,-1.7635,-1.7333,-1.7001,-1.6283,-1.5712,-1.5425,-1.5246,-1.5093,-1.4839,-1.4613,-1.4337,-1.4059,-1.3708,-1.3361,-1.3107,-1.2856,-1.2609,-1.2365,-1.21,-1.1822,-1.1442,-1.1067,-1.0654,-1.0196,-0.9809,1.1373,1.1179,1.0964,1.0437,0.9674,0.8844,0.7699,0.6512,0.5136,0.3934,0.2898,0.206,0.1121,0.0089,-0.2502,-0.7628,-1.7342,-1.8118,-2.1128,-2.3537,-2.4238,-2.3166,-2.23,-2.1108,-2.0375,-2.0028,-1.9934,-1.9911,-1.9913,-1.997,-2.0078,-2.0623,-2.1951,-2.2793,-2.335,-2.463,-2.5452,-2.5644,-2.5671,-2.5654,-2.5637,-2.5603,-2.5598,-2.5595,-2.5602,-2.5603,-2.5586,-2.5589,-2.5592,-2.5661,-2.5632,-2.5613,-2.5603,-2.5603,-2.5586,-2.5587,-2.5593,-2.5571,-2.5552,-2.5496,-2.543,-2.5342,-2.5195,-2.4812,-2.4115,-2.3786,-2.3281,-2.2553,-2.2806,-2.306,-2.3017,-2.3047,-2.3005,-2.265,-2.1876,-2.0939,-1.9872,-1.9218,-1.8631,-1.7807,-1.7425,-1.7224,-1.7001,-1.6763,-1.6532,-1.6533,-1.6667,-1.6826,-1.699,-1.6918,-1.6838,-1.6669,-1.631,-1.5954,-1.552,-1.5117,-1.4956,-1.4808,-1.4461,-1.4196,-1.3973,-1.3715,-1.3459,-1.3192,-1.2949,-1.2733,-1.2437,-1.2228,-1.1974,-1.1606,-1.1223,-1.0921,-1.0587,-1.0118,-0.9651,1.1373,1.1185,1.0845,1.0321,0.9535,0.865,0.7495,0.6143,0.4988,0.3864,0.2814,0.17,0.0627,-0.0535,-0.463,-1.081,-1.5617,-1.7477,-2.0254,-2.2883,-2.2447,-2.1867,-2.1491,-2.0954,-2.0579,-2.0042,-1.9877,-1.99,-1.9927,-2.0031,-2.0148,-2.0462,-2.1419,-2.2354,-2.3175,-2.413,-2.5023,-2.55,-2.5622,-2.5589,-2.5552,-2.5522,-2.5527,-2.5522,-2.5526,-2.551,-2.5502,-2.546,-2.5444,-2.548,-2.554,-2.5576,-2.5571,-2.5537,-2.5522,-2.55,-2.546,-2.5415,-2.5369,-2.5303,-2.5232,-2.5041,-2.4517,-2.3997,-2.3682,-2.2905,-2.2407,-2.2095,-2.2471,-2.2674,-2.2865,-2.2877,-2.2782,-2.252,-2.215,-2.1547,-2.0599,-1.9496,-1.8533,-1.7738,-1.7305,-1.7109,-1.6999,-1.6701,-1.6479,-1.63,-1.6253,-1.6315,-1.6263,-1.6176,-1.6082,-1.6017,-1.5718,-1.5401,-1.5169,-1.4794,-1.4606,-1.4454,-1.4138,-1.3841,-1.3621,-1.3446,-1.322,-1.3019,-1.2838,-1.2585,-1.2282,-1.2035,-1.1754,-1.1378,-1.1002,-1.0697,-1.0356,-0.9927,-0.9532,1.1341,1.1147,1.0817,1.0249,0.9496,0.8574,0.7415,0.6101,0.481,0.3776,0.2768,0.1341,0.0179,-0.0716,-0.4154,-0.7837,-1.2299,-1.6499,-1.9625,-2.1633,-2.1503,-2.0965,-2.0464,-2.0445,-2.0198,-1.9782,-1.9852,-1.9911,-1.9971,-2.0096,-2.0215,-2.0417,-2.1268,-2.2239,-2.3086,-2.3915,-2.4771,-2.5396,-2.5523,-2.547,-2.5413,-2.541,-2.5412,-2.5395,-2.5379,-2.5363,-2.5354,-2.533,-2.5312,-2.5321,-2.5365,-2.5441,-2.5481,-2.5435,-2.5403,-2.539,-2.531,-2.5245,-2.5192,-2.5084,-2.4847,-2.4391,-2.3853,-2.3128,-2.251,-2.1727,-2.1179,-2.0862,-2.1071,-2.1643,-2.227,-2.2531,-2.2404,-2.2262,-2.2015,-2.1562,-2.0757,-1.9737,-1.875,-1.7963,-1.7437,-1.7115,-1.6839,-1.6596,-1.639,-1.6202,-1.6006,-1.6009,-1.578,-1.571,-1.5534,-1.5396,-1.5112,-1.4882,-1.4718,-1.4472,-1.4241,-1.4059,-1.3835,-1.3573,-1.3363,-1.3192,-1.299,-1.2809,-1.2621,-1.236,-1.2066,-1.1816,-1.1564,-1.1217,-1.084,-1.0467,-1.0083,-0.9725,-0.9328,1.1351,1.1185,1.0779,1.022,0.95,0.8582,0.746,0.6155,0.4767,0.3728,0.2764,0.1027,-0.0134,-0.1034,-0.1563,-0.4105,-0.9113,-1.4352,-1.8793,-2.0822,-2.0793,-2.0267,-1.9782,-1.9708,-1.9756,-1.9713,-1.9842,-1.9935,-2.0031,-2.0163,-2.0289,-2.052,-2.1114,-2.1884,-2.2818,-2.3647,-2.435,-2.501,-2.5266,-2.5312,-2.5245,-2.5235,-2.5224,-2.5204,-2.5184,-2.5154,-2.5143,-2.5141,-2.5158,-2.5149,-2.5153,-2.52,-2.5264,-2.5303,-2.5255,-2.5234,-2.5111,-2.5041,-2.4994,-2.4842,-2.4443,-2.3526,-2.318,-2.2389,-2.1211,-2.0532,-1.9996,-1.9684,-1.9764,-2.0489,-2.1291,-2.1682,-2.1894,-2.187,-2.1686,-2.1256,-2.0638,-1.9898,-1.8936,-1.8243,-1.7405,-1.6863,-1.6675,-1.6455,-1.6281,-1.6103,-1.5906,-1.5704,-1.55,-1.5275,-1.5151,-1.4986,-1.4798,-1.4518,-1.4351,-1.4222,-1.3993,-1.3755,-1.3539,-1.3295,-1.3053,-1.2832,-1.2656,-1.255,-1.233,-1.2102,-1.1811,-1.1558,-1.1298,-1.0986,-1.0649,-1.0235,-0.9883,-0.9527,-0.9128,1.1459,1.1185,1.0812,1.0249,0.9496,0.8622,0.7415,0.6061,0.4813,0.3641,0.2502,0.1027,-0.0492,-0.1528,-0.1848,-0.5218,-1.0211,-1.4336,-1.7357,-1.9571,-1.9763,-1.9426,-1.9411,-1.9467,-1.9587,-1.9695,-1.9858,-1.999,-2.0077,-2.021,-2.0342,-2.05,-2.0671,-2.1221,-2.2023,-2.2696,-2.357,-2.4378,-2.4846,-2.5091,-2.5034,-2.4965,-2.4949,-2.4949,-2.4936,-2.4926,-2.4926,-2.4942,-2.4944,-2.4944,-2.4907,-2.4888,-2.4923,-2.5041,-2.5041,-2.4975,-2.4877,-2.4814,-2.4749,-2.4535,-2.4064,-2.3301,-2.246,-2.1561,-2.0482,-1.9691,-1.9174,-1.899,-1.9125,-1.9797,-2.0932,-2.1078,-2.1238,-2.1387,-2.1355,-2.1134,-2.0702,-1.9761,-1.8701,-1.8075,-1.7289,-1.657,-1.6436,-1.6309,-1.6159,-1.597,-1.5762,-1.5558,-1.5388,-1.514,-1.494,-1.476,-1.455,-1.4287,-1.4,-1.3908,-1.3741,-1.3493,-1.326,-1.3019,-1.2768,-1.2467,-1.2282,-1.2168,-1.2066,-1.1853,-1.159,-1.1298,-1.1035,-1.0731,-1.0351,-0.9966,-0.9646,-0.9284,-0.8931,1.1496,1.1271,1.0822,1.0293,0.9619,0.8748,0.763,0.6359,0.5026,0.3862,0.2586,0.1072,-0.0761,-0.2063,-0.233,-0.5459,-0.9997,-1.2378,-1.5296,-1.7866,-1.8876,-1.9118,-1.9212,-1.94,-1.9612,-1.9797,-1.9971,-2.0086,-2.0158,-2.0276,-2.0392,-2.0458,-2.0466,-2.0851,-2.1623,-2.2356,-2.3026,-2.3753,-2.4416,-2.4795,-2.4746,-2.4672,-2.4642,-2.4642,-2.4632,-2.4632,-2.4626,-2.4636,-2.4639,-2.4639,-2.4614,-2.4579,-2.4588,-2.4629,-2.471,-2.4706,-2.4636,-2.455,-2.4331,-2.3987,-2.3187,-2.2308,-2.1416,-2.0499,-1.9696,-1.9039,-1.8584,-1.8455,-1.8726,-1.9309,-2.01,-2.0311,-2.0727,-2.1123,-2.1023,-2.0819,-2.05,-1.9505,-1.8742,-1.7975,-1.7127,-1.6545,-1.6262,-1.6131,-1.6006,-1.5835,-1.5603,-1.5476,-1.5339,-1.511,-1.4935,-1.4757,-1.4603,-1.4319,-1.4077,-1.3919,-1.3691,-1.3386,-1.3099,-1.2847,-1.2508,-1.2204,-1.1976,-1.1819,-1.1684,-1.1521,-1.1287,-1.1024,-1.0769,-1.051,-1.0123,-0.9769,-0.9403,-0.9043,-0.8732,1.138,1.1201,1.0819,1.0341,0.9746,0.8905,0.7919,0.6745,0.5326,0.4121,0.294,0.1115,-0.076,-0.2242,-0.3288,-0.5415,-0.9941,-1.1125,-1.3955,-1.7521,-1.8616,-1.8989,-1.9225,-1.9467,-1.97,-1.9945,-2.0134,-2.0224,-2.0253,-2.0334,-2.042,-2.0439,-2.0426,-2.0614,-2.1234,-2.1761,-2.2578,-2.3241,-2.3883,-2.4223,-2.4334,-2.4337,-2.4301,-2.4284,-2.4274,-2.4292,-2.4274,-2.4274,-2.4274,-2.4284,-2.4265,-2.4256,-2.422,-2.4182,-2.4238,-2.4355,-2.431,-2.4238,-2.3933,-2.3288,-2.2462,-2.1518,-2.0566,-1.9654,-1.8905,-1.848,-1.8184,-1.8024,-1.8158,-1.8709,-1.9345,-1.9702,-2.0227,-2.0735,-2.0654,-2.0379,-2.0138,-1.9541,-1.8768,-1.7942,-1.7021,-1.6458,-1.6146,-1.5958,-1.5866,-1.5876,-1.5681,-1.5787,-1.5652,-1.5322,-1.5087,-1.4902,-1.4694,-1.4475,-1.4242,-1.4042,-1.3772,-1.3408,-1.3089,-1.2763,-1.2344,-1.1945,-1.1715,-1.1483,-1.1287,-1.1115,-1.0916,-1.0759,-1.05,-1.0201,-0.9927,-0.9567,-0.9123,-0.8805,-0.8492,1.1013,1.0698,1.0792,1.0544,0.9887,0.911,0.8162,0.7049,0.5671,0.4243,0.293,0.1244,-0.0268,-0.1699,-0.3034,-0.6495,-0.9973,-1.1555,-1.396,-1.8046,-1.8808,-1.9052,-1.93,-1.9622,-1.9857,-2.0076,-2.0274,-2.0366,-2.0356,-2.0371,-2.0391,-2.0402,-2.0337,-2.0313,-2.0402,-2.1028,-2.1459,-2.2123,-2.2763,-2.3372,-2.3803,-2.3939,-2.391,-2.3901,-2.391,-2.3939,-2.389,-2.3881,-2.3881,-2.3869,-2.3869,-2.386,-2.3849,-2.3726,-2.3662,-2.3726,-2.3798,-2.3881,-2.3557,-2.2746,-2.1822,-2.088,-2.0076,-1.9246,-1.8463,-1.798,-1.7724,-1.7424,-1.7461,-1.7974,-1.8724,-1.8922,-1.9492,-2.0038,-2.0315,-2.015,-1.9919,-1.9524,-1.8768,-1.8233,-1.7406,-1.6589,-1.6024,-1.5861,-1.5721,-1.5776,-1.5848,-1.5966,-1.5934,-1.5627,-1.5338,-1.518,-1.4959,-1.4729,-1.437,-1.4194,-1.3791,-1.3429,-1.2957,-1.2608,-1.2139,-1.1658,-1.1345,-1.1121,-1.0921,-1.0756,-1.0608,-1.0409,-1.0205,-0.9927,-0.9616,-0.9248,-0.8841,-0.8525,-0.8291,1.0547,1.0761,1.0635,1.0469,1.0113,0.939,0.8488,0.7415,0.6098,0.4715,0.3315,0.1821,0.0045,-0.2082,-0.321,-0.6214,-1.0031,-1.1386,-1.3988,-1.7858,-1.8898,-1.928,-1.9554,-1.9827,-2.0057,-2.0203,-2.0344,-2.0417,-2.0408,-2.0389,-2.0384,-2.0327,-2.0202,-2.003,-1.9877,-2.0427,-2.1035,-2.1761,-2.2575,-2.3237,-2.3464,-2.3531,-2.3531,-2.3508,-2.3553,-2.354,-2.3531,-2.3508,-2.3486,-2.3463,-2.3472,-2.344,-2.3391,-2.3289,-2.3194,-2.3117,-2.2679,-2.2564,-2.2549,-2.1772,-2.0934,-2.004,-1.9182,-1.8339,-1.778,-1.7547,-1.7368,-1.7101,-1.701,-1.7522,-1.8337,-1.8505,-1.92,-1.9713,-1.9995,-1.9841,-1.9624,-1.9287,-1.8797,-1.8288,-1.7776,-1.7047,-1.6463,-1.642,-1.6395,-1.6377,-1.632,-1.628,-1.6215,-1.6013,-1.5723,-1.5475,-1.528,-1.5018,-1.4657,-1.4344,-1.3782,-1.3344,-1.2586,-1.2222,-1.1782,-1.141,-1.1094,-1.0797,-1.0592,-1.0424,-1.0288,-1.0112,-0.9892,-0.9611,-0.9337,-0.8967,-0.8598,-0.8234,-0.7912,1.0051,1.0593,1.0452,1.0329,1.017,0.9635,0.8812,0.7826,0.6515,0.5146,0.3389,0.1142,-0.166,-0.387,-0.5647,-0.8524,-1.1642,-1.2372,-1.4911,-1.7525,-1.9029,-1.9573,-1.9821,-2.0046,-2.0205,-2.0328,-2.0404,-2.0444,-2.0414,-2.0362,-2.0303,-2.0244,-2.0047,-1.9842,-1.9763,-1.992,-2.0369,-2.1227,-2.2478,-2.3097,-2.3157,-2.3184,-2.3168,-2.3168,-2.3168,-2.316,-2.3168,-2.316,-2.3111,-2.3061,-2.3028,-2.2985,-2.29,-2.2555,-2.2375,-2.2142,-2.1584,-2.0959,-2.0839,-2.0323,-1.9762,-1.9049,-1.8236,-1.7577,-1.7345,-1.7183,-1.7052,-1.6781,-1.6712,-1.7231,-1.7966,-1.8215,-1.8806,-1.9318,-1.9705,-1.9531,-1.9295,-1.903,-1.8808,-1.8412,-1.803,-1.7712,-1.7275,-1.722,-1.7135,-1.7015,-1.6853,-1.6619,-1.6473,-1.6335,-1.6231,-1.6029,-1.5813,-1.5541,-1.5175,-1.4708,-1.4054,-1.3263,-1.2508,-1.1888,-1.1519,-1.1126,-1.0802,-1.051,-1.0259,-1.0004,-0.9825,-0.9718,-0.9611,-0.9297,-0.902,-0.8728,-0.8361,-0.7991,-0.7621,0.9538,0.9892,1.0241,1.0235,1.0014,0.9704,0.908,0.8074,0.6797,0.5182,0.2557,-0.1752,-0.5607,-0.7697,-0.9791,-1.2201,-1.5363,-1.5699,-1.7188,-1.871,-1.9792,-1.9925,-2.0065,-2.0192,-2.0309,-2.0361,-2.0406,-2.0409,-2.0381,-2.026,-2.019,-2.0084,-1.9883,-1.9673,-1.9544,-1.9571,-2.0064,-2.0956,-2.2179,-2.2772,-2.2781,-2.2799,-2.2816,-2.2782,-2.2816,-2.2825,-2.2773,-2.2764,-2.2703,-2.2659,-2.258,-2.2465,-2.2281,-2.1722,-2.1429,-2.1128,-2.0316,-1.9635,-1.9152,-1.9085,-1.8858,-1.8385,-1.7774,-1.7027,-1.6858,-1.6738,-1.6588,-1.6463,-1.639,-1.6879,-1.7525,-1.7997,-1.8399,-1.9047,-1.9362,-1.9228,-1.904,-1.8874,-1.8626,-1.8479,-1.8145,-1.7774,-1.7571,-1.7417,-1.7395,-1.7304,-1.6984,-1.675,-1.6753,-1.6659,-1.6741,-1.6622,-1.6403,-1.6174,-1.5899,-1.5313,-1.4546,-1.3504,-1.2555,-1.1883,-1.1308,-1.094,-1.0539,-1.0239,-0.9946,-0.9652,-0.939,-0.9279,-0.9141,-0.8943,-0.87,-0.8365,-0.7946,-0.753,-0.7202,0.9512,0.9706,0.9889,0.9868,0.9665,0.9398,0.8793,0.7842,0.6642,0.3165,-0.1547,-0.6113,-0.9696,-1.1612,-1.1532,-1.3371,-1.576,-1.6039,-1.784,-1.9341,-2.0172,-2.0181,-2.0251,-2.0253,-2.0303,-2.0327,-2.034,-2.0316,-2.0272,-2.0175,-2.0041,-1.9889,-1.9747,-1.943,-1.9292,-1.9661,-2.0315,-2.0961,-2.1892,-2.2446,-2.2475,-2.2463,-2.2487,-2.2451,-2.2451,-2.2487,-2.2451,-2.239,-2.2298,-2.2215,-2.213,-2.199,-2.1678,-2.0999,-2.0558,-2.0225,-1.9207,-1.8348,-1.8074,-1.807,-1.8058,-1.7405,-1.6959,-1.6659,-1.6466,-1.6394,-1.6274,-1.6143,-1.61,-1.6599,-1.7371,-1.7623,-1.7936,-1.8724,-1.9049,-1.8882,-1.8728,-1.8528,-1.839,-1.8166,-1.7941,-1.7626,-1.7565,-1.7463,-1.7505,-1.7536,-1.7215,-1.6936,-1.6868,-1.6773,-1.6773,-1.665,-1.6349,-1.6076,-1.5774,-1.5342,-1.4946,-1.3768,-1.2582,-1.1829,-1.1108,-1.07,-1.0312,-0.9971,-0.966,-0.9395,-0.9118,-0.8907,-0.8741,-0.8618,-0.8328,-0.7908,-0.7489,-0.707,-0.6777,0.9277,0.9325,0.9464,0.9495,0.9372,0.9113,0.8508,0.7318,0.508,-0.0,-0.7046,-1.0331,-1.344,-1.5175,-1.5193,-1.5288,-1.7254,-1.7714,-1.869,-1.9667,-2.0276,-2.0269,-2.0258,-2.0256,-2.0254,-2.0266,-2.0247,-2.0209,-2.0177,-2.0079,-1.9919,-1.9779,-1.9736,-1.9598,-1.9642,-2.0171,-2.0849,-2.1265,-2.1792,-2.213,-2.2153,-2.2138,-2.2168,-2.214,-2.216,-2.2143,-2.2135,-2.2044,-2.194,-2.1832,-2.1691,-2.1509,-2.1038,-2.0449,-1.9805,-1.9081,-1.825,-1.7297,-1.7247,-1.7298,-1.7205,-1.6642,-1.6456,-1.6238,-1.61,-1.6024,-1.5928,-1.6114,-1.6084,-1.6404,-1.7364,-1.7646,-1.7897,-1.8652,-1.8647,-1.8542,-1.8326,-1.8161,-1.8021,-1.7841,-1.7578,-1.7358,-1.7157,-1.708,-1.7076,-1.7151,-1.7024,-1.6797,-1.6658,-1.6555,-1.6471,-1.6312,-1.6044,-1.5774,-1.5451,-1.5163,-1.4721,-1.355,-1.2445,-1.1567,-1.0884,-1.0474,-1.004,-0.9686,-0.9368,-0.9096,-0.8814,-0.8533,-0.841,-0.8324,-0.7908,-0.7409,-0.715,-0.6729,-0.6392,0.8621,0.8674,0.9033,0.9074,0.8669,0.8855,0.8193,0.618,0.146,-0.462,-1.1195,-1.3787,-1.654,-1.9095,-1.88,-1.9054,-1.9324,-1.9689,-2.002,-2.0119,-2.0181,-2.0173,-2.016,-2.0154,-2.0125,-2.0163,-2.0131,-2.0088,-2.0089,-1.9979,-1.9802,-1.9838,-1.9993,-2.0192,-2.0095,-2.0813,-2.1111,-2.1072,-2.1665,-2.1795,-2.1819,-2.1827,-2.1809,-2.1812,-2.1801,-2.1797,-2.1768,-2.17,-2.1601,-2.1409,-2.1269,-2.1047,-2.0749,-1.9508,-1.8796,-1.8408,-1.7093,-1.6275,-1.6017,-1.6162,-1.6146,-1.6075,-1.5968,-1.5833,-1.5668,-1.5647,-1.575,-1.6023,-1.6194,-1.6768,-1.7395,-1.7841,-1.8065,-1.8236,-1.8277,-1.8182,-1.7969,-1.772,-1.7585,-1.7462,-1.7227,-1.6954,-1.6748,-1.662,-1.6577,-1.6637,-1.6723,-1.6644,-1.6442,-1.6262,-1.6132,-1.5913,-1.5697,-1.5385,-1.5125,-1.5017,-1.4496,-1.3319,-1.2199,-1.122,-1.0636,-1.0248,-0.9853,-0.9403,-0.9123,-0.8854,-0.8488,-0.8122,-0.7949,-0.7693,-0.7321,-0.6904,-0.6647,-0.6389,-0.605,0.6579,0.8028,0.8284,0.684,0.4954,0.7042,0.6346,0.2423,-0.451,-1.0017,-1.3145,-1.6577,-1.8842,-2.0058,-2.0162,-2.0147,-2.0181,-2.0124,-2.0079,-2.0018,-1.9953,-1.9907,-1.9877,-1.9885,-1.9903,-1.9922,-1.992,-1.9939,-1.9966,-1.9879,-1.9732,-1.9736,-2.0318,-2.0794,-2.0912,-2.1199,-2.1152,-2.1437,-2.1592,-2.1556,-2.1528,-2.152,-2.1466,-2.1461,-2.1458,-2.1456,-2.1411,-2.1348,-2.1206,-2.0999,-2.0819,-2.0587,-2.0234,-1.9091,-1.8543,-1.8117,-1.7053,-1.5987,-1.5602,-1.544,-1.5455,-1.5507,-1.5617,-1.5514,-1.5254,-1.5597,-1.5784,-1.6009,-1.6333,-1.6888,-1.7369,-1.7427,-1.7588,-1.7923,-1.7963,-1.7781,-1.7605,-1.7365,-1.7164,-1.7044,-1.6852,-1.6571,-1.6306,-1.6094,-1.605,-1.5957,-1.6032,-1.6126,-1.6007,-1.5824,-1.5686,-1.5513,-1.5295,-1.5028,-1.4782,-1.4647,-1.4016,-1.2833,-1.1706,-1.0624,-1.0163,-0.9953,-0.9625,-0.9212,-0.8931,-0.8651,-0.8197,-0.7742,-0.736,-0.7024,-0.6732,-0.6483,-0.627,-0.5964,-0.562,0.3255,0.4643,0.4977,0.3364,0.1328,0.4166,0.2519,-0.3232,-0.9445,-1.2936,-1.5073,-1.8023,-1.9332,-1.9409,-1.9516,-1.9715,-1.9788,-1.9811,-1.9713,-1.9672,-1.9645,-1.9585,-1.9552,-1.958,-1.9645,-1.9688,-1.9726,-1.9757,-1.9833,-1.9773,-1.9941,-2.0298,-2.0603,-2.1178,-2.148,-2.1627,-2.1419,-2.1568,-2.1487,-2.1348,-2.1262,-2.1191,-2.1167,-2.1151,-2.1143,-2.1127,-2.1038,-2.0941,-2.0794,-2.0579,-2.0334,-2.01,-1.9665,-1.9066,-1.8462,-1.7885,-1.6941,-1.5913,-1.5411,-1.4882,-1.4947,-1.4966,-1.5246,-1.5389,-1.5329,-1.5752,-1.6081,-1.6313,-1.6513,-1.6913,-1.7342,-1.7272,-1.7373,-1.7706,-1.7508,-1.7358,-1.724,-1.696,-1.6784,-1.6675,-1.6461,-1.6182,-1.5907,-1.5647,-1.548,-1.5385,-1.5289,-1.543,-1.5525,-1.5334,-1.5238,-1.5108,-1.488,-1.4605,-1.44,-1.4298,-1.3501,-1.2356,-1.1318,-1.0314,-0.9912,-0.9704,-0.9386,-0.9024,-0.8696,-0.8328,-0.7821,-0.736,-0.7027,-0.6686,-0.6389,-0.6139,-0.5847,-0.5583,-0.5277,-0.0979,-0.1004,-0.0592,-0.1015,-0.177,-0.013,-0.3596,-1.0645,-1.1412,-1.3838,-1.7275,-1.7219,-1.7833,-1.8223,-1.8345,-1.8703,-1.9152,-1.9267,-1.9287,-1.9237,-1.924,-1.9222,-1.9265,-1.9314,-1.9414,-1.9499,-1.9564,-1.9627,-1.9688,-1.9587,-2.0055,-2.0805,-2.0806,-2.1407,-2.1831,-2.1953,-2.1686,-2.1515,-2.1293,-2.1143,-2.1007,-2.0917,-2.086,-2.0835,-2.081,-2.0761,-2.0695,-2.0587,-2.041,-2.0189,-1.9929,-1.9667,-1.9192,-1.8506,-1.8108,-1.7426,-1.6396,-1.5882,-1.5302,-1.479,-1.4465,-1.4557,-1.5197,-1.5451,-1.5666,-1.5917,-1.6347,-1.6644,-1.6831,-1.7166,-1.7464,-1.7383,-1.7321,-1.7234,-1.7031,-1.6905,-1.6827,-1.6614,-1.6436,-1.6269,-1.6044,-1.5818,-1.5552,-1.5295,-1.5074,-1.4886,-1.4834,-1.4789,-1.4834,-1.4794,-1.4697,-1.4645,-1.4414,-1.4129,-1.3968,-1.381,-1.3114,-1.2022,-1.1238,-1.0342,-0.9921,-0.9475,-0.9145,-0.8781,-0.8418,-0.8002,-0.7489,-0.7073,-0.6741,-0.6398,-0.6093,-0.5836,-0.5583,-0.5236,-0.493,-0.2042,-0.073,-0.0881,-0.2721,-0.5681,-0.7824,-0.954,-1.0543,-1.3149,-1.5447,-1.6158,-1.6634,-1.6792,-1.7059,-1.7533,-1.7851,-1.8185,-1.8515,-1.8743,-1.8824,-1.8869,-1.8886,-1.8956,-1.9067,-1.9196,-1.9329,-1.9427,-1.9504,-1.9555,-1.9451,-1.9966,-2.0892,-2.0776,-2.139,-2.1817,-2.1957,-2.1661,-2.1386,-2.1166,-2.0966,-2.0803,-2.072,-2.0628,-2.0543,-2.0525,-2.0475,-2.0315,-2.022,-2.0045,-1.9846,-1.961,-1.9339,-1.9094,-1.8612,-1.8176,-1.7352,-1.6653,-1.6122,-1.5309,-1.4862,-1.4472,-1.4306,-1.4988,-1.5259,-1.5503,-1.5978,-1.659,-1.6828,-1.697,-1.7201,-1.7155,-1.707,-1.6976,-1.6808,-1.6601,-1.6436,-1.6312,-1.6175,-1.5957,-1.5818,-1.5641,-1.5418,-1.5198,-1.4977,-1.4754,-1.4523,-1.4378,-1.4285,-1.4233,-1.4186,-1.4186,-1.4134,-1.3947,-1.3663,-1.3472,-1.3306,-1.2515,-1.1722,-1.1032,-1.0316,-0.97,-0.9251,-0.8924,-0.8537,-0.8126,-0.7663,-0.7192,-0.682,-0.6532,-0.6145,-0.5841,-0.558,-0.532,-0.4973,-0.4624,-0.4553,-0.3652,-0.3891,-0.58,-0.8707,-1.1565,-1.2057,-1.1771,-1.4015,-1.4988,-1.4817,-1.5133,-1.5451,-1.5734,-1.6326,-1.6869,-1.7263,-1.7936,-1.8301,-1.8441,-1.8545,-1.8632,-1.8715,-1.8878,-1.9078,-1.9184,-1.9286,-1.9357,-1.9396,-1.9426,-1.9804,-2.0892,-2.0669,-2.1232,-2.1767,-2.1848,-2.1526,-2.1269,-2.1047,-2.0778,-2.062,-2.0486,-2.0392,-2.0285,-2.0266,-2.0146,-2.0018,-1.9919,-1.9762,-1.9545,-1.931,-1.9055,-1.8803,-1.845,-1.8126,-1.7365,-1.6794,-1.6137,-1.5372,-1.4793,-1.4324,-1.4211,-1.4755,-1.5123,-1.559,-1.6112,-1.6533,-1.6807,-1.694,-1.6996,-1.682,-1.6607,-1.6472,-1.6343,-1.6126,-1.5957,-1.5786,-1.5653,-1.5519,-1.5379,-1.5198,-1.5011,-1.4789,-1.4616,-1.4384,-1.4098,-1.391,-1.3768,-1.3716,-1.3705,-1.3705,-1.3652,-1.3472,-1.319,-1.3002,-1.2779,-1.2206,-1.163,-1.1117,-1.0405,-0.9596,-0.9047,-0.8739,-0.8268,-0.7787,-0.7367,-0.6985,-0.6696,-0.6404,-0.6016,-0.5626,-0.532,-0.506,-0.4799,-0.4408,-0.7509,-0.7788,-0.8274,-0.8958,-1.0888,-1.1728,-1.2347,-1.3033,-1.3514,-1.366,-1.3501,-1.3426,-1.3795,-1.4394,-1.5223,-1.5954,-1.6608,-1.7352,-1.7984,-1.8113,-1.8275,-1.8408,-1.8629,-1.8797,-1.8967,-1.9087,-1.9161,-1.9207,-1.9214,-1.9238,-1.9631,-2.0775,-2.0524,-2.0935,-2.1792,-2.1691,-2.1356,-2.1055,-2.0827,-2.0587,-2.0426,-2.0273,-2.0181,-2.0018,-1.9978,-1.9922,-1.982,-1.9697,-1.9537,-1.9302,-1.9093,-1.8834,-1.8478,-1.8109,-1.7801,-1.7504,-1.6903,-1.6284,-1.5586,-1.4943,-1.4362,-1.4262,-1.4569,-1.505,-1.5569,-1.6247,-1.6651,-1.6671,-1.6752,-1.6577,-1.6355,-1.6175,-1.6038,-1.5863,-1.5691,-1.5507,-1.5418,-1.5289,-1.5159,-1.5062,-1.492,-1.4731,-1.4577,-1.4398,-1.4098,-1.3768,-1.3488,-1.3349,-1.3243,-1.3233,-1.318,-1.3175,-1.2992,-1.2759,-1.2564,-1.2311,-1.1988,-1.1479,-1.0984,-1.0406,-0.9602,-0.9047,-0.8559,-0.8082,-0.7603,-0.7226,-0.6865,-0.6529,-0.6187,-0.5838,-0.545,-0.5104,-0.4801,-0.4539,-0.4142,-0.6126,-0.6683,-0.7568,-0.885,-1.0248,-1.0535,-1.1353,-1.2383,-1.2476,-1.2712,-1.2862,-1.2893,-1.2987,-1.3413,-1.4624,-1.5395,-1.5874,-1.7043,-1.7631,-1.7957,-1.8138,-1.8345,-1.8542,-1.8741,-1.8887,-1.9002,-1.907,-1.906,-1.8991,-1.9049,-1.9413,-2.0427,-2.0347,-2.0746,-2.174,-2.1489,-2.1175,-2.0835,-2.0561,-2.0426,-2.0254,-2.0108,-1.9987,-1.9876,-1.9792,-1.972,-1.9632,-1.9479,-1.9325,-1.9139,-1.895,-1.8651,-1.8268,-1.7848,-1.7577,-1.7393,-1.7035,-1.6462,-1.5852,-1.5255,-1.4771,-1.4651,-1.4879,-1.5148,-1.5614,-1.6321,-1.6644,-1.6571,-1.6405,-1.6188,-1.5969,-1.5786,-1.5603,-1.5379,-1.5204,-1.5102,-1.5045,-1.4926,-1.4846,-1.4748,-1.4599,-1.449,-1.4335,-1.4102,-1.38,-1.3483,-1.321,-1.2973,-1.2866,-1.2813,-1.2662,-1.2608,-1.2559,-1.2372,-1.2126,-1.1891,-1.1603,-1.1204,-1.0753,-1.0168,-0.9537,-0.8907,-0.8324,-0.7943,-0.7511,-0.7069,-0.6688,-0.6319,-0.5976,-0.5669,-0.5275,-0.4886,-0.4539,-0.4234,-0.3834,-0.5639,-0.6231,-0.7362,-0.8539,-0.9598,-1.0073,-1.0872,-1.1769,-1.194,-1.2161,-1.2455,-1.2562,-1.2756,-1.3159,-1.4398,-1.5288,-1.5748,-1.6878,-1.7532,-1.7892,-1.8108,-1.8333,-1.8522,-1.8723,-1.8833,-1.8958,-1.8932,-1.8887,-1.8753,-1.8746,-1.9113,-2.0136,-2.0187,-2.0506,-2.1437,-2.1333,-2.0974,-2.0636,-2.0323,-2.015,-2.0073,-1.9937,-1.976,-1.9675,-1.9596,-1.9523,-1.9442,-1.9332,-1.9176,-1.8943,-1.8683,-1.8443,-1.8095,-1.7727,-1.7447,-1.7288,-1.7002,-1.6667,-1.6064,-1.5608,-1.5252,-1.5143,-1.5151,-1.5377,-1.548,-1.6105,-1.6238,-1.6182,-1.61,-1.5937,-1.5564,-1.5379,-1.5204,-1.4977,-1.4794,-1.4697,-1.4564,-1.4436,-1.4389,-1.4337,-1.4239,-1.4134,-1.3983,-1.3878,-1.3573,-1.3253,-1.2929,-1.2681,-1.2578,-1.2377,-1.218,-1.2031,-1.1977,-1.1873,-1.1673,-1.1506,-1.1253,-1.0855,-1.0475,-0.9995,-0.9461,-0.8712,-0.8105,-0.7754,-0.7385,-0.6911,-0.6498,-0.6102,-0.5809,-0.5499,-0.5104,-0.4666,-0.4318,-0.3924,-0.3435,-0.587,-0.6472,-0.7526,-0.8467,-0.9219,-1.0009,-1.08,-1.149,-1.1718,-1.1976,-1.2336,-1.2569,-1.303,-1.3669,-1.4516,-1.5405,-1.6281,-1.7151,-1.7651,-1.7932,-1.8154,-1.8377,-1.8572,-1.8741,-1.8833,-1.8824,-1.8797,-1.8651,-1.8471,-1.8601,-1.9073,-1.9906,-2.0233,-2.0444,-2.1119,-2.1191,-2.0794,-2.046,-2.0185,-1.9947,-1.9803,-1.9687,-1.958,-1.9479,-1.9398,-1.9354,-1.9302,-1.9221,-1.9064,-1.8791,-1.8489,-1.8228,-1.7975,-1.7679,-1.7393,-1.7199,-1.6996,-1.6584,-1.6128,-1.5812,-1.5514,-1.5333,-1.5442,-1.555,-1.5609,-1.5709,-1.5884,-1.583,-1.5798,-1.562,-1.5295,-1.5028,-1.4851,-1.4621,-1.4477,-1.4291,-1.4156,-1.4025,-1.3973,-1.3968,-1.3868,-1.3768,-1.371,-1.361,-1.3344,-1.3027,-1.2735,-1.2485,-1.2234,-1.2026,-1.1828,-1.1628,-1.1473,-1.1322,-1.1221,-1.1108,-1.0884,-1.0657,-1.0241,-0.9849,-0.9355,-0.8706,-0.8112,-0.7676,-0.725,-0.6743,-0.6285,-0.5864,-0.5576,-0.5287,-0.4847,-0.4364,-0.4008,-0.3612,-0.308,-0.6727,-0.7678,-0.8212,-0.8834,-0.9576,-0.9958,-1.0605,-1.1439,-1.1725,-1.2026,-1.2596,-1.3296,-1.3735,-1.3836,-1.4729,-1.5672,-1.6678,-1.744,-1.7794,-1.8069,-1.831,-1.8487,-1.862,-1.8742,-1.8779,-1.8724,-1.8594,-1.8441,-1.8345,-1.8654,-1.9151,-1.9814,-2.0226,-2.0543,-2.0957,-2.0868,-2.0569,-2.0289,-2.001,-1.9769,-1.9662,-1.9582,-1.9531,-1.9435,-1.9361,-1.9302,-1.9242,-1.9123,-1.8957,-1.8721,-1.8418,-1.8156,-1.7909,-1.7645,-1.7358,-1.7115,-1.6954,-1.6714,-1.634,-1.6011,-1.5737,-1.5899,-1.5909,-1.5689,-1.5721,-1.5787,-1.5786,-1.5647,-1.557,-1.5435,-1.5165,-1.4949,-1.4771,-1.4436,-1.4249,-1.4057,-1.3873,-1.3815,-1.3763,-1.3668,-1.3568,-1.351,-1.3447,-1.3276,-1.308,-1.2749,-1.244,-1.2234,-1.2026,-1.1723,-1.1473,-1.1221,-1.1023,-1.0871,-1.082,-1.0663,-1.0498,-1.0304,-0.9988,-0.953,-0.911,-0.872,-0.819,-0.7627,-0.7086,-0.6553,-0.6105,-0.5668,-0.5279,-0.4948,-0.4506,-0.4062,-0.3704,-0.3301,-0.2814]},{"header":{"parameterUnit":"m.s-1","parameterCategory":1,"la1":31.0,"la2":29.5877,"lo1":-88.7671,"lo2":-86.6584,"dy":0.0162,"dx":0.0185,"nx":115,"ny":88,"refTime":"2024-04-22T18:00:00:Z","depth":0,"parameterNumber":3,"parameterNumberName":"V-component_of_WINDS"},"data":[0.0,0.0,0.0,0.0,0.0,0.0,0.0,0.0,0.0,0.0,0.0,0.0,0.0,0.0,0.0,0.0,0.0,0.0,0.0,0.0,0.0,0.0,0.0,0.0,0.0,0.0,0.0,0.0,0.0,0.0,0.0,0.0,0.0,0.0,0.0,0.0,0.0,0.0,0.0,0.0,0.0,0.0,0.0,0.0,0.0,0.0,0.0,0.0,0.0,0.0,0.0,0.0,0.0,0.0,0.0,0.0,0.0,0.0,0.0,0.0,0.0,0.0,0.0,0.0,0.0,0.0,0.0,0.0,0.0,0.0,0.0,0.0,0.0,0.0,0.0,0.0,0.0,0.0,0.0,0.0,0.0,0.0,0.0,0.0,0.0,0.0,0.0,0.0,0.0,0.0,0.0,0.0,0.0,0.0,0.0,0.0,0.0,0.0,0.0,0.0,0.0,0.0,0.0,0.0,0.0,0.0,0.0,0.0,0.0,0.0,0.0,0.0,0.0,0.0,0.0,0.0,0.0,0.0,0.0,0.0,0.0,0.0,0.0,0.0,0.0,0.0,0.0,0.0,0.0,0.0,0.0,0.0,0.0,0.0,0.0,0.0,0.0,0.0,0.0,0.0,0.0,0.0,0.0,0.0,0.0,0.0,0.0,0.0,0.0,0.0,0.0,0.0,0.0,0.0,0.0,0.0,0.0,0.0,0.0,0.0,0.0,0.0,0.0,0.0,0.0,0.0,0.0,0.0,0.0,0.0,0.0,0.0,0.0,0.0,0.0,0.0,0.0,0.0,0.0,0.0,0.0,0.0,0.0,0.0,0.0,0.0,0.0,0.0,0.0,0.0,0.0,0.0,0.0,0.0,0.0,0.0,0.0,0.0,0.0,0.0,0.0,0.0,0.0,0.0,0.0,0.0,0.0,0.0,0.0,0.0,0.0,0.0,0.0,0.0,0.0,0.0,0.0,0.0,0.0,0.0,0.0,0.0,0.0,0.0,0.0,0.0,0.0,0.0,0.0,0.0,0.0,0.0,0.0,0.0,0.0,0.0,0.0,0.0,0.0,0.0,0.0,0.0,0.0,0.0,0.0,0.0,0.0,0.0,0.0,0.0,0.0,0.0,0.0,0.0,0.0,0.0,0.0,0.0,0.0,0.0,0.0,0.0,0.0,0.0,0.0,0.0,0.0,0.0,0.0,0.0,0.0,0.0,0.0,0.0,0.0,0.0,0.0,0.0,0.0,0.0,0.0,0.0,0.0,0.0,0.0,0.0,0.0,0.0,0.0,0.0,0.0,0.0,0.0,0.0,0.0,0.0,0.0,0.0,0.0,0.0,0.0,0.0,0.0,0.0,0.0,0.0,0.0,0.0,0.0,0.0,0.0,0.0,0.0,0.0,0.0,0.0,0.0,0.0,0.0,0.0,0.0,0.0,0.0,0.0,0.0,0.0,0.0,0.0,0.0,0.0,0.0,0.0,0.0,0.0,0.0,0.0,0.0,0.0,0.0,0.0,0.0,0.0,0.0,0.0,0.0,0.0,0.0,0.0,0.0,0.0,0.0,0.0,0.0,0.0,0.0,0.0,0.0,0.0,0.0,0.0,0.0,0.0,0.0,0.0,0.0,0.0,0.0,0.0,0.0,0.0,0.0,0.0,0.0,0.0,0.0,0.0,0.0,0.0,0.0,0.0,0.0,0.0,0.0,0.0,0.0,0.0,0.0,0.0,0.0,0.0,0.0,0.0,0.0,0.0,0.0,0.0,0.0,0.0,0.0,0.0,0.0,0.0,0.0,0.0,0.0,0.0,0.0,0.0,0.0,0.0,0.0,0.0,0.0,0.0,0.0,0.0,0.0,0.0,0.0,0.0,0.0,0.0,0.0,0.0,0.0,0.0,0.0,0.0,0.0,0.0,0.0,0.0,0.0,0.0,0.0,0.0,0.0,0.0,0.0,0.0,0.0,0.0,0.0,0.0,0.0,0.0,0.0,0.0,0.0,0.0,0.0,0.0,0.0,0.0,0.0,0.0,0.0,0.0,0.0,0.0,0.0,0.0,0.0,0.0,0.0,0.0,0.0,0.0,0.0,0.0,0.0,0.0,0.0,0.0,0.0,0.0,0.0,0.0,0.0,0.0,0.0,0.0,0.0,0.0,0.0,0.0,0.0,0.0,0.0,0.0,0.0,0.0,0.0,0.0,0.0,0.0,0.0,0.0,0.0,0.0,0.0,0.0,0.0,0.0,0.0,0.0,0.0,0.0,0.0,0.0,0.0,0.0,0.0,0.0,0.0,0.0,0.0,0.0,0.0,0.0,0.0,0.0,0.0,0.0,0.0,0.0,0.0,0.0,0.0,0.0,0.0,0.0,0.0,0.0,0.0,0.0,0.0,0.0,0.0,0.0,0.0,0.0,0.0,0.0,0.0,0.0,0.0,0.0,0.0,0.0,0.0,0.0,0.0,0.0,0.0,0.0,0.0,0.0,0.0,0.0,0.0,0.0,0.0,0.0,0.0,0.0,0.0,0.0,0.0,0.0,0.0,0.0,0.0,0.0,0.0,0.0,0.0,0.0,0.0,0.0,0.0,0.0,0.0,0.0,0.0,0.0,0.0,0.0,0.0,0.0,0.0,0.0,0.0,0.0,0.0,0.0,0.0,0.0,0.0,0.0,0.0,0.0,0.0,0.0,0.0,0.0,0.0,0.0,0.0,0.0,0.0,0.0,0.0,0.0,0.0,0.0,0.0,0.0,0.0,0.0,0.0,0.0,0.0,0.0,0.0,0.0,0.0,0.0,0.0,0.0,0.0,0.0,0.0,0.0,0.0,0.0,0.0,0.0,0.0,0.0,0.0,0.0,0.0,0.0,0.0,0.0,0.0,0.0,0.0,0.0,0.0,0.0,0.0,0.0,0.0,0.0,0.0,0.0,0.0,0.0,0.0,0.0,0.0,0.0,0.0,0.0,0.0,0.0,0.0,0.0,0.0,0.0,0.0,0.0,0.0,0.0,0.0,0.0,0.0,0.0,0.0,0.0,0.0,0.0,0.0,0.0,0.0,0.0,0.0,0.0,0.0,0.0,0.0,0.0,0.0,0.0,0.0,0.0,0.0,0.0,0.0,0.0,0.0,0.0,0.0,0.0,0.0,0.0,0.0,0.0,0.0,0.0,0.0,0.0,0.0,0.0,0.0,0.0,0.0,0.0,0.0,0.0,0.0,0.0,0.0,0.0,0.0,0.0,0.0,0.0,0.0,0.0,0.0,0.0,0.0,0.0,0.0,0.0,0.0,0.0,0.0,0.0,0.0,0.0,0.0,0.0,0.0,0.0,0.0,0.0,0.0,0.0,0.0,0.0,0.0,0.0,0.0,0.0,0.0,0.0,0.0,0.0,0.0,0.0,0.0,0.0,0.0,0.0,0.0,0.0,0.0,0.0,0.0,0.0,0.0,0.0,0.0,0.0,0.0,0.0,0.0,0.0,0.0,0.0,0.0,0.0,0.0,0.0,0.0,0.0,0.0,0.0,0.0,0.0,0.0,0.0,0.0,0.0,0.0,0.0,0.0,0.0,0.0,0.0,0.0,0.0,0.0,0.0,0.0,0.0,0.0,0.0,0.0,0.0,0.0,0.0,0.0,0.0,0.0,0.0,0.0,0.0,0.0,0.0,0.0,0.0,0.0,0.0,0.0,0.0,0.0,0.0,0.0,0.0,0.0,0.0,0.0,0.0,0.0,0.0,0.0,0.0,0.0,0.0,0.0,0.0,0.0,0.0,0.0,0.0,0.0,0.0,0.0,0.0,0.0,0.0,0.0,0.0,0.0,0.0,0.0,0.0,0.0,0.0,0.0,0.0,0.0,0.0,0.0,0.0,0.0,0.0,0.0,0.0,0.0,0.0,0.0,0.0,0.0,0.0,0.0,0.0,0.0,0.0,0.0,0.0,0.0,0.0,0.0,0.0,0.0,0.0,0.0,0.0,0.0,0.0,0.0,0.0,0.0,0.0,0.0,0.0,0.0,0.0,0.0,0.0,0.0,0.0,0.0,0.0,0.0,0.0,0.0,0.0,0.0,0.0,0.0,0.0,0.0,0.0,0.0,0.0,0.0,0.0,0.0,0.0,0.0,0.0,0.0,0.0,0.0,0.0,0.0,0.0,0.0,0.0,0.0,0.0,0.0,0.0,0.0,0.0,0.0,0.0,0.0,0.0,0.0,0.0,0.0,0.0,0.0,0.0,0.0,0.0,0.0,0.0,0.0,0.0,0.0,0.0,0.0,0.0,0.0,0.0,0.0,0.0,0.1942,0.0,0.0,0.0,0.0,0.0,0.0,0.0,0.0,0.0,0.0,0.0,0.0,0.0,0.0,0.0,0.0,0.0,0.0,0.0,0.0,0.0,0.0,0.0,0.0,0.0,0.0,0.0,0.0,0.0,0.0,0.0,0.0,0.0,0.0,0.0,0.0,0.0,0.0,0.0,0.0,0.0,0.0,0.0,0.0,0.0,0.0,0.0,0.0,0.0,0.0,0.0,0.0,0.0,0.0,0.0,0.0,0.0,0.0,0.0,0.0,0.0,0.0,0.0,0.0,0.0,0.0,0.0,0.0,0.0,0.0,0.0,0.0,0.0,0.0,0.0,0.0,0.0,0.0,0.0,0.0,0.0,0.0,0.0,0.0,0.0,0.0,0.0,0.0,0.0,0.0,0.0,0.0,0.0,0.0,0.0,0.0,0.0,0.0,0.0,0.0,0.0,0.0,0.0,0.0,0.0,0.0,0.0,0.0,0.0,0.0,0.0913,0.1449,0.1677,0.1898,0.2158,0.0,0.0,0.0,0.0,0.0,0.0,0.0,0.0,0.0,0.0,0.0,0.0,0.0,0.0,0.0,0.0,0.0,0.0,0.0,0.0,0.0,0.0,0.0,0.0,0.0,0.0,0.0,0.0,0.0,0.0,0.0,0.0,0.0,0.0,0.0,0.0,0.0,0.0,0.0,0.0,0.0,0.0,0.0,0.0,0.0,0.0,0.0,0.0,0.0,0.0,0.0,0.0,0.0,0.0,0.0,0.0,0.0,0.0,0.0,0.0,0.0,0.0,0.0,0.0,0.0,0.0,0.0,0.0,0.0,0.0,0.0,0.0,0.0,0.0,0.0,0.0,0.0,0.0,0.0,0.0,0.0,0.0,0.0,0.0,0.0,0.0,0.0,0.0,0.0,0.0,0.0,0.0,0.0,0.0,0.0,0.0,0.0,0.0,0.0,0.0,0.0,0.0,0.0,0.0,0.0,0.0,0.0,0.0,0.0,0.0,0.0,0.0,0.2046,0.2267,0.2464,0.0,0.0,0.0,0.0,0.0,0.0,0.0,0.0,0.0,0.0,0.0,0.0,0.0,0.0,0.0,0.0,0.0,0.0,0.0,0.0,0.0,0.0,0.0,0.0,0.0,0.0,0.0,0.0,0.0,0.0,0.0,0.0,0.0,0.0,0.0,0.0,0.0,0.0,0.0,0.0,0.0,0.0,0.0,0.0,0.0,0.0,0.0,0.0,0.0,0.0,0.0,0.0,0.0,0.0,0.0,0.0,0.0,0.0,0.0,0.0,0.0,0.0,0.0,0.0,0.0,0.0,0.0,0.0,0.0,0.0,0.0,0.0,0.0,0.0,0.0,0.0,0.0,0.0,0.0,0.0,0.0,0.0,0.0,0.0,0.0,0.0,0.0,0.0,0.0,0.0,0.0,0.0,0.0,0.0,0.0,0.0,0.0,0.0,0.0,0.0,0.0,0.0,0.0,0.0,0.0,0.0,0.0,0.0,0.0,0.0,0.1887,0.2406,0.2567,0.0,0.2982,0.0,0.0,0.0,0.0,0.0,0.0,0.0,0.0,0.0,0.0,0.0,0.0,0.0,0.0,0.0,0.0,0.0,0.0,0.0,0.0,0.0,0.0,0.0,0.0,0.0,0.0,0.0,0.0,0.0,0.0,0.0,0.0,0.0,0.0,0.0,0.0,0.0,0.0,0.0,0.0,0.0,0.0,0.0,0.0,0.0,0.0,0.0,0.0,0.0,0.0,0.0,0.0,0.0,0.0,0.0,0.0,0.0,0.0,0.0,0.0,0.0,0.0,0.0,0.0,0.0,0.0,0.0,0.0,0.0,0.0,0.0,0.0,0.0,0.0,0.0,0.0,0.0,0.0,0.0,0.0,0.0,0.0,0.0,0.0,0.0,0.0,0.0,0.0,0.0,0.0,0.0,0.0,0.0,0.0,0.0,0.0,0.0,0.0,0.0,0.0,0.0,0.0,0.0,0.0,0.0,0.0,0.0,0.0,0.0,0.0,0.2757,0.3478,0.3633,0.3696,0.0,0.0,0.0,0.0,0.0,0.0,0.0,0.0,0.0,0.0,0.0,0.0,0.0,0.0,0.0,0.0,0.0,0.0,0.0,0.0,0.0,0.0,0.0,0.0,0.0,0.0,0.0,0.0,0.0,0.0,0.0,0.0,0.0,0.0,0.0,0.0,0.0,0.0,0.0,0.0,0.0,0.0,0.0,0.0,0.0,0.0,0.0,0.0,0.0,0.0,0.0,0.0,0.0,0.0,0.0,0.0,0.0,0.0,0.0,0.0,0.0,0.0,0.0,0.0,0.0,0.0,0.0,0.0,0.0,0.0,0.0,0.0,0.0,0.0,0.0,0.0,0.0,0.0,0.0,0.0,0.0,0.0,0.0,0.0,0.0,0.0,0.0,0.0,0.0,0.0,0.0,0.0,0.0,0.0,0.0,0.0,0.0,0.0,0.0,0.0,0.0,0.0,0.0,0.0,0.0,0.0,0.0,0.0,0.0,0.0,0.3142,0.3669,0.4527,0.4659,0.4655,0.4553,0.0,0.0,0.0,0.0,0.0,0.0,0.0,0.0,0.0,0.0,0.0,0.0,0.0,0.0,0.0,0.0,0.0,0.0,0.0,0.0,0.0,0.0,0.0,0.0,0.0,0.0,0.0,0.0,0.0,0.0,0.0,0.0,0.0,0.0,0.0,0.0,0.0,0.0,0.0,0.0,0.0,0.0,0.0,0.0,0.0,0.0,0.0,0.0,0.0,0.0,0.0,0.0,0.0,0.0,0.0,0.0,0.0,0.0,0.0,0.0,0.0,0.0,0.0,0.0,0.0,0.0,0.0,0.0,0.0,0.0,0.0,0.0,0.0,0.0,0.0,0.0,0.0,0.0,0.0,0.0,0.0,0.0,0.0,0.0,0.0,0.0,0.0,0.0,0.0,0.0,0.0,0.0,0.0,0.0,0.0,0.0,0.0,0.0,0.0,0.0,0.0,0.0,0.0,0.0,0.0,0.0,0.0,0.0,0.3019,0.3706,0.4534,0.5486,0.5469,0.5592,0.0,0.0,0.0,0.0,0.0,0.0,0.0,0.0,0.0,0.0,0.0,0.0,0.0,0.0,0.0,0.0,0.0,0.0,0.0,0.0,0.0,0.0,0.0,0.0,0.0,0.0,0.0,0.0,0.0,0.0,0.0,0.0,0.0,0.0,0.0,0.0,0.0,0.0,0.0,0.0,0.0,0.0,0.0,0.0,0.0,0.0,0.0,0.0,0.0,0.0,0.0,0.0,0.0,0.0,0.0,0.0,0.0,0.0,0.0,0.0,0.0,0.0,0.0,0.0,0.0,0.0,0.0,0.0,0.0,0.0,0.0,0.0,0.0,0.0,0.0,0.0,0.0,0.0,0.0,0.0,0.0,0.0,0.0,0.0,0.0,0.0,0.0,0.0,0.0,0.0,0.0,0.0,0.0,0.0,0.0,0.0,0.0,0.0,0.0,0.0,0.0,0.0,0.0,0.0,0.0,0.0,0.0,0.0,0.0,0.3895,0.5061,0.59,0.6304,0.6641,0.6763,0.0,0.0,0.0,0.0,0.0,0.0,0.0,0.0,0.0,0.0,0.0,0.0,0.0,0.0,0.0,0.0,0.0,0.0,0.0,0.0,0.0,0.0,0.0,0.0,0.0,0.0,0.0,0.0,0.0,0.0,0.0,0.0,0.0,0.0,0.0,0.0,0.0,0.0,0.0,0.0,0.0,0.0,0.0,0.0,0.0,0.0,0.0,0.0,0.0,0.0,0.0,0.0,0.0,0.0,0.0,0.0,0.0,0.0,0.0,0.0,0.0,0.0,0.0,0.0,0.0,0.0,0.0,0.0,0.0,0.0,0.0,0.0,0.0,0.0,0.0,0.0,0.0,0.0,0.0,0.0,0.0,0.0,0.0,0.0,0.0,0.0,0.0,0.0,0.0,0.0,0.0,0.0,0.0,0.0,0.0,0.0,0.0,0.0,0.0,0.0,0.0,0.0,0.0,0.0,0.0,0.0,0.0,0.0,0.0,0.4854,0.0,0.6795,0.7077,0.7519,0.7639,0.0,0.0,0.0,0.0,0.0,0.0,0.0,0.0,0.0,0.0,0.0,0.0,0.0,0.0,0.0,0.0,0.0,0.0,0.0,0.0,0.0,0.0,0.0,0.0,0.0,0.0,0.0,0.0,0.0,0.0,0.0,0.0,0.0,0.0,0.0,0.0,0.0,0.0,0.0,0.0,0.0,0.0,0.0,0.0,0.0,0.0,0.0,0.0,0.0,0.0,0.0,0.0,0.0,0.0,0.0,0.0,0.0,0.0,0.0,0.0,0.0,0.0,0.0,0.0,0.0,0.0,0.0,0.0,0.0,0.0,0.0,0.0,0.0,0.0,0.0,0.0,0.0,0.0,0.0,0.0,0.0,0.0,0.0,0.0,0.0,0.0,0.0,0.0,0.0,0.0,0.0,0.0,0.0,0.0,0.0,0.0,0.0,0.0,0.0,0.0,0.0,0.0,0.0,0.0,0.0,0.0,0.0,0.0,0.4481,0.5836,0.6535,0.7171,0.7748,0.8005,0.8132,0.0,0.0,0.0,0.0,0.0,0.0,0.0,0.0,0.0,0.0,0.0,0.0,0.0,0.0,0.0,0.0,0.0,0.0,0.0,0.0,0.0,0.0,0.0,0.0,0.0,0.0,0.0,0.0,0.0,0.0,0.0,0.0,0.0,0.0,0.0,0.0,0.0,0.0,0.0,0.0,0.0,0.0,0.0,0.0,0.0,0.0,0.0,0.0,0.0,0.0,0.0,0.0,0.0,0.0,0.0,0.0,0.0,0.0,0.0,0.0,0.0,0.0,0.0,0.0,0.0,0.0,0.0,0.0,0.0,0.0,0.0,0.0,0.0,0.0,0.0,0.0,0.0,0.0,0.0,0.0,0.0,0.0,0.0,0.0,0.0,0.0,0.0,0.0,0.0,0.0,0.0,0.0,0.0,0.0,0.0,0.0,0.0,0.0,0.0,0.0,0.0,0.0,0.0,0.0,0.0,0.0,0.0,0.0,0.0,0.5879,0.6587,0.7225,0.7792,0.841,0.8776,0.0,0.0,0.0,0.0,0.0,0.0,0.0,0.0,0.0,0.0,0.0,0.0,0.0,0.0,0.0,0.0,0.0,0.0,0.0,0.0,0.0,0.0,0.0,0.0,0.0,0.0,0.0,0.0,0.0,0.0,0.0,0.0,0.0,0.0,0.0,0.0,0.0,0.0,0.0,0.0,0.0,0.0,0.0,0.0,0.0,0.0,0.0,0.0,0.0,0.0,0.0,0.0,0.0,0.0,0.0,0.0,0.0,0.0,0.0,0.0,0.0,0.0,0.0,0.0,0.0,0.0,0.0,0.0,0.0,0.0,0.0,0.0,0.0,0.0,0.0,0.0,0.0,0.0,0.0,0.0,0.0,0.0,0.0,0.0,0.0,0.0,0.0,0.0,0.0,0.0,0.0,0.0,0.0,0.0,0.0,0.0,0.0,0.0,0.0,0.0,0.0,0.0,0.0,0.0,0.0,0.0,0.0,0.0,0.0,0.5599,0.6405,0.7136,0.7705,0.8473,0.8946,0.9071,0.0,0.0,0.0,0.0,0.0,0.0,0.0,0.0,0.0,0.0,0.0,0.0,0.0,0.0,0.0,0.0,0.0,0.0,0.0,0.0,0.0,0.0,0.0,0.0,0.0,0.0,0.0,0.0,0.0,0.0,0.0,0.0,0.0,0.0,0.0,0.0,0.0,0.0,0.0,0.0,0.0,0.0,0.0,0.0,0.0,0.0,0.0,0.0,0.0,0.0,0.0,0.0,0.0,0.0,0.0,0.0,0.0,0.0,0.0,0.0,0.0,0.0,0.0,0.0,0.0,0.0,0.0,0.0,0.0,0.0,0.0,0.0,0.0,0.0,0.0,0.0,0.0,0.0,0.0,0.0,0.0,0.0,0.0,0.0,0.0,0.0,0.0,0.0,0.0,0.0,0.0,0.0,0.0,0.0,0.0,0.0,0.0,0.0,0.0,0.0,0.0,0.0,0.0,0.0,0.0,0.0,0.0,0.0,0.509,0.6083,0.6906,0.7559,0.8298,0.8758,0.0,0.0,0.0,0.0,0.0,0.0,0.0,0.0,0.0,0.0,0.0,0.0,0.0,0.0,0.0,0.0,0.0,0.0,0.0,0.0,0.0,0.0,0.0,0.0,0.0,0.0,0.0,0.0,0.0,0.0,0.0,0.0,0.0,0.0,0.0,0.0,0.0,0.0,0.0,0.0,0.0,0.0,0.0,0.0,0.0,0.0,0.0,0.0,0.0,0.0,0.0,0.0,0.0,0.0,0.0,0.0,0.0,0.0,0.0,0.0,0.0,0.0,0.0,0.0,0.0,0.0,0.0,0.0,0.0,0.0,0.0,0.0,0.0,0.0,0.0,0.0,0.0,0.0,0.0,0.0,0.0,0.0,0.0,0.0,0.0,0.0,0.0,0.0,0.0,0.0,0.0,0.0,0.0,0.0,0.0,0.0,0.0,0.0,0.0,0.0,0.0,0.0,0.0,0.0,0.0,0.0,0.0,0.0,0.0,0.5169,0.5972,0.6635,0.7159,0.8008,0.8722,0.0,0.0,0.0,0.0,0.0,0.0,0.0,0.0,0.0,0.0,0.0,0.0,0.0,0.0,0.0,0.0,0.0,0.0,0.0,0.0,0.0,0.0,0.0,0.0,0.0,0.0,0.0,0.0,0.0,0.0,0.0,0.0,0.0,0.0,0.0,0.0,0.0,0.0,0.0,0.0,0.0,0.0,0.0,0.0,0.0,0.0,0.0,0.0,0.0,0.0,0.0,0.0,0.0,0.0,0.0,0.0,0.0,0.0,0.0,0.0,0.0,0.0,0.0,0.0,0.0,0.0,0.0,0.0,0.0,0.0,0.0,0.0,0.0,0.0,0.0,0.0,0.0,0.0,0.0,0.0,0.0,0.0,0.0,0.0,0.0,0.0,0.0,0.0,0.0,0.0,0.0,0.0,0.0,0.0,0.0,0.0,0.0,0.0,0.0,0.0,0.0,0.0,0.0,0.0,0.0,0.0,0.0,0.0,0.4365,0.4898,0.5655,0.6286,0.6832,0.7824,0.8639,0.0,0.0,0.0,0.0,0.0,0.0,0.0,0.0,0.0,0.0,0.0,0.0,0.0,0.0,0.0,0.0,0.0,0.0,0.0,0.0,0.0,0.0,0.0,0.0,0.0,0.0,0.0,0.0,0.0,0.0,0.0,0.0,0.0,0.0,0.0,0.0,0.0,0.0,0.0,0.0,0.0,0.0,0.0,0.0,0.0,0.0,0.0,0.0,0.0,0.0,0.0,0.0,0.0,0.0,0.0,0.0,0.0,0.0,0.0,0.0,0.0,0.0,0.0,0.0,0.0,0.0,0.0,0.0,0.0,0.0,0.0,0.0,0.0,0.0,0.0,0.0,0.0,0.0,0.0,0.0,0.0,0.0,0.0,0.0,0.0,0.0,0.0,0.0,0.0,0.0,0.0,0.0,0.0,0.0,0.0,0.0,0.0,0.0,0.0,0.0,0.0,0.0,0.0,0.0,0.0,0.0,0.0,0.0,0.3921,0.4493,0.5273,0.5951,0.6585,0.7659,0.8485,0.0,0.0,0.0,0.0,0.0,0.0,0.0,0.0,0.0,0.0,0.0,0.0,0.0,0.0,0.0,0.0,0.0,0.0,0.0,0.0,0.0,0.0,0.0,0.0,0.0,0.0,0.0,0.0,0.0,0.0,0.0,0.0,0.0,0.0,0.0,0.0,0.0,0.0,0.0,0.0,0.0,0.0,0.0,0.0,0.0,0.0,0.0,0.0,0.0,0.0,0.0,0.0,0.0,0.0,0.0,0.0,0.0,0.0,0.0,0.0,0.0,0.0,0.0,0.0,0.0,0.0,0.0,0.0,0.0,0.0,0.0,0.0,0.0,0.0,0.0,0.0,0.0,0.0,0.0,0.0,0.0,0.0,0.0,0.0,0.0,0.0,0.0,0.0,0.0,0.0,0.0,0.0,0.0,0.0,0.0,0.0,0.0,0.0,0.0,0.0,0.0,0.0,0.0,0.0,0.0,0.0,0.0,0.0,0.3654,0.4266,0.5083,0.5824,0.6437,0.7381,0.8262,0.0,0.0,0.0,0.0,0.0,0.0,0.0,0.0,0.0,0.0,0.0,0.0,0.0,0.0,0.0,0.0,0.0,0.0,0.0,0.0,0.0,0.0,0.0,0.0,0.0,0.0,0.0,0.0,0.0,0.0,0.0,0.0,0.0,0.0,0.0,0.0,0.0,0.0,0.0,0.0,0.0,0.0,0.0,0.0,0.0,0.0,0.0,0.0,1.0179,0.0,0.0,0.0,0.0,0.0,0.0,0.0,0.0,0.0,0.0,0.0,0.0,0.0,0.0,0.0,0.0,0.0,0.0,0.0,0.0,0.0,0.0,0.0,0.0,0.0,0.0,0.0,0.0,0.0,0.0,0.0,0.0,0.0,0.0,0.0,0.0,0.0,0.0,0.0,0.0,0.0,0.0,0.0,0.0,0.0,0.0,0.0,0.0,0.0,0.0,0.0,0.0,0.0,0.0,0.0,0.0,0.0,0.0,0.0,0.3218,0.3786,0.4651,0.542,0.6146,0.6877,0.7743,0.0,0.0,0.0,0.0,0.0,0.0,0.0,0.0,0.0,0.0,0.0,0.0,0.0,0.0,0.0,0.0,0.0,0.0,0.0,0.0,0.0,0.0,0.0,0.0,0.0,0.0,0.0,0.0,0.0,0.0,0.0,0.0,0.0,0.0,0.0,0.0,0.0,0.0,0.0,0.0,0.0,0.0,0.0,0.0,0.0,0.0,0.0,0.0,0.0,0.0,0.0,0.0,0.0,0.0,0.0,0.0,0.0,0.0,0.0,0.0,0.0,0.0,0.0,0.0,0.0,0.0,0.0,0.0,0.0,0.0,0.0,0.0,0.0,0.0,0.0,0.0,0.0,0.0,0.0,0.0,0.0,0.0,0.0,0.0,0.0,0.0,0.0,0.0,0.0,0.0,0.0,0.0,0.0,0.0,0.0,0.0,0.0,0.0,0.0,0.0,0.0,0.0,0.0,0.0,0.0,0.0,0.0,0.2213,0.2611,0.321,0.4005,0.4872,0.5762,0.6272,0.7087,0.8318,0.0,0.0,0.0,0.0,0.0,0.0,0.0,0.0,0.0,0.0,0.0,0.0,0.0,0.0,0.0,0.0,0.0,0.0,0.0,0.0,0.0,0.0,0.0,0.0,0.0,0.0,0.0,0.0,0.0,0.0,0.0,0.0,0.0,0.0,0.0,0.0,0.0,0.0,1.0102,1.0219,0.0,0.0,0.0,0.0,0.0,0.0,0.0,0.0,1.0236,0.0,0.0,0.0,0.0,0.0,0.0,0.0,0.0,0.0,0.0,0.0,0.0,0.0,0.0,0.0,0.0,0.0,0.0,0.0,0.0,0.0,0.0,0.0,0.0,0.0,0.0,0.0,0.0,0.0,0.0,0.0,0.0,0.0,0.0,0.0,0.0,0.0,0.0,0.0,0.0,0.0,0.0,0.0,0.0,0.0,0.0,0.0,0.0,0.0,0.0,0.0,0.0,0.0,0.0,0.0,0.0,0.1409,0.1599,0.2013,0.2771,0.3478,0.4303,0.5194,0.5653,0.6416,0.7602,0.0,0.0,0.0,0.0,0.0,0.0,0.0,0.0,0.0,0.0,0.0,0.0,0.0,0.0,0.0,0.0,0.0,0.0,0.0,0.0,0.0,0.0,0.0,0.0,0.0,0.0,0.0,0.0,0.0,0.0,0.0,0.0,0.0,0.0,0.0,0.0,0.0,0.0,0.0,1.0191,1.023,0.0,0.0,0.0,0.0,0.0,0.0,0.0,0.0,1.1066,0.0,0.0,0.0,0.0,0.0,0.0,0.0,0.0,0.0,0.0,0.0,0.0,0.0,0.0,0.0,0.0,0.0,0.0,0.0,0.0,0.0,0.0,0.0,0.0,0.0,0.0,0.0,0.0,0.0,0.0,0.0,0.0,0.0,0.0,0.0,0.0,0.0,0.0,0.0,0.0,0.0,0.0,0.0,0.0,0.0,0.0,0.0,0.0,0.0,0.0,0.0,0.0,0.0,0.0,0.0,0.0772,0.1104,0.149,0.2013,0.2681,0.3559,0.4646,0.4947,0.5664,0.0,0.0,0.0,0.0,0.0,0.0,0.0,0.0,0.0,0.0,0.0,0.0,0.0,0.0,0.0,0.0,0.0,0.0,0.0,0.0,0.0,0.0,0.0,0.0,0.0,0.0,0.0,0.0,0.0,0.0,0.0,0.0,0.0,0.0,0.0,0.0,0.0,0.0,0.0,0.0,1.0591,1.0887,1.0913,0.0,0.0,0.0,0.0,0.0,0.0,1.1641,1.185,0.0,0.0,0.0,0.0,0.0,0.0,0.0,0.0,0.0,0.0,0.0,0.0,0.0,0.0,0.0,0.0,0.0,0.0,0.0,0.0,0.0,0.0,0.0,0.0,0.0,0.0,0.0,0.0,0.0,0.0,0.0,0.0,0.0,0.0,0.0,0.0,0.0,0.0,0.0,0.0,0.0,0.0,0.0,0.0,0.0,0.0,0.0,0.0,0.0,0.0,0.0,0.0,0.0,0.0,0.0,0.0126,0.0482,0.0895,0.1254,0.1877,0.2764,0.382,0.4149,0.4915,0.0,0.0,0.0,0.0,0.0,0.0,0.0,0.0,0.0,0.0,0.0,0.0,0.0,0.0,0.0,0.0,0.0,0.0,0.0,0.0,0.0,0.0,0.0,0.0,0.0,0.0,0.0,0.0,0.0,0.0,0.0,0.0,0.0,0.0,0.0,0.0,0.0,0.0,0.0,0.0,0.0,1.1504,1.1476,1.2199,0.0,0.0,0.0,0.0,1.2486,1.2553,0.0,0.0,0.0,0.0,0.0,0.0,0.0,0.0,0.0,0.0,0.0,0.0,0.0,0.0,0.0,0.0,0.0,0.0,0.0,0.0,0.0,0.0,0.0,0.0,0.0,0.0,0.0,0.0,0.0,0.0,0.0,0.0,0.0,0.0,0.0,0.0,0.0,0.0,0.0,0.0,0.0,0.0,0.0,0.0,0.0,0.0,0.0,0.0,0.0,0.0,0.0,0.0,0.0,0.0,0.0,0.0,-0.0589,-0.0395,0.0045,0.0761,0.1251,0.1826,0.2442,0.314,0.4016,0.0,0.0,0.0,0.0,0.0,0.0,0.0,0.0,0.0,0.0,0.0,0.0,0.0,0.0,0.0,0.0,0.0,0.0,0.0,0.0,0.0,0.0,0.0,0.0,0.0,0.0,0.0,0.0,0.0,0.0,0.0,0.0,0.0,0.0,0.0,0.0,0.0,0.0,0.0,0.0,0.0,1.147,1.1419,1.2103,1.2608,0.0,0.0,1.2411,1.2331,1.2913,0.0,0.0,0.0,0.0,0.0,0.0,0.0,0.0,0.0,0.0,0.0,0.0,0.0,0.0,0.0,0.0,0.0,0.0,0.0,0.0,0.0,0.0,0.0,0.0,0.0,0.0,0.0,0.0,0.0,0.0,0.0,0.0,0.0,0.0,0.0,0.0,0.0,0.0,0.0,0.0,0.0,0.0,0.0,0.0,0.0,0.0,0.0,0.0,0.0,0.0,0.0,0.0,0.0,0.0,0.0,-0.1378,-0.1308,-0.1244,-0.0895,-0.0313,-0.0089,0.0401,0.1245,0.1917,0.2708,0.0,0.0,0.0,0.0,0.0,0.0,0.0,0.0,0.0,0.0,0.0,0.0,0.0,0.0,0.0,0.0,0.0,0.0,0.0,0.0,0.0,0.0,0.0,0.0,0.0,0.0,0.0,0.0,0.0,0.0,0.0,0.0,0.0,0.0,0.0,0.0,0.0,0.0,0.0,0.0,0.0,0.0,1.2076,1.3122,0.0,0.0,0.0,1.3579,1.3501,0.0,0.0,0.0,0.0,0.0,0.0,0.0,0.0,0.0,0.0,0.0,0.0,0.0,0.0,0.0,0.0,0.0,0.0,0.0,0.0,0.0,0.0,0.0,0.0,0.0,0.0,0.0,0.0,0.0,0.0,0.0,0.0,0.0,0.0,0.0,0.0,0.0,0.0,0.0,0.0,0.0,0.0,0.0,0.0,0.0,0.0,0.0,0.0,0.0,0.0,0.0,0.0,0.0,0.0,0.0,0.0,0.0,-0.2015,-0.2015,-0.1879,-0.1609,-0.143,-0.0981,-0.0311,0.0408,0.0,0.0,0.0,0.0,0.0,0.0,0.0,0.0,0.0,0.0,0.0,0.0,0.0,0.0,0.0,0.0,0.0,0.0,0.0,0.0,0.0,0.0,0.0,0.0,0.0,0.0,0.0,1.1881,0.0,0.0,0.0,0.0,0.0,0.0,0.0,0.0,0.0,0.0,0.0,0.0,0.0,0.0,1.2607,1.2515,1.3805,1.4736,0.0,0.0,1.4328,1.4292,1.4264,1.4301,0.0,0.0,0.0,0.0,0.0,0.0,0.0,0.0,0.0,0.0,0.0,0.0,0.0,0.0,0.0,0.0,0.0,0.0,0.0,0.0,0.0,0.0,0.0,0.0,0.0,0.0,0.0,0.0,0.0,0.0,0.0,0.0,0.0,0.0,0.0,0.0,0.0,0.0,0.0,0.0,0.0,0.0,0.0,0.0,0.0,0.0,0.0,0.0,0.0,0.0,0.0,0.0,0.0,0.0,0.0,-0.2636,-0.2768,-0.2898,-0.2946,-0.2449,-0.2268,-0.2356,-0.1425,-0.0502,0.0,0.0,0.0,0.0,0.0,0.0,0.0,0.0,0.0,0.0,0.0,0.0,0.0,0.0,0.0,0.0,0.0,0.0,0.0,0.0,0.0,0.0,0.0,0.0,0.0,0.0,0.0,0.0,0.0,0.0,0.0,0.0,0.0,0.0,0.0,0.0,0.0,0.0,0.0,0.0,0.0,1.2446,1.2246,1.3486,1.4364,0.0,1.402,1.3934,1.3924,1.3933,1.3973,1.4105,0.0,0.0,0.0,0.0,0.0,0.0,0.0,0.0,0.0,0.0,0.0,0.0,0.0,0.0,0.0,0.0,0.0,0.0,0.0,0.0,0.0,0.0,0.0,0.0,0.0,0.0,0.0,0.0,0.0,0.0,0.0,0.0,0.0,0.0,0.0,0.0,0.0,0.0,0.0,0.0,0.0,0.0,0.0,0.0,0.0,0.0,0.0,0.0,0.0,0.0,0.0,0.0,0.0,-0.346,-0.37,-0.3957,-0.4081,-0.4127,-0.3982,-0.3929,-0.3974,-0.3454,-0.2696,0.0,0.0,0.0,0.0,0.0,0.0,0.0,0.0,0.0,0.0,0.0,0.0,0.0,0.0,0.0,0.0,0.0,0.0,0.0,0.0,0.0,0.0,0.0,0.0,0.0,0.0,0.0,0.0,1.3318,1.2845,1.2004,0.0,0.0,0.0,0.0,0.0,0.0,0.0,0.0,0.0,0.0,1.2063,1.1864,1.302,0.0,0.0,1.3493,1.3415,1.3467,1.3465,1.3529,1.3702,1.3865,0.0,0.0,0.0,0.0,0.0,0.0,0.0,0.0,0.0,0.0,0.0,0.0,0.0,0.0,0.0,0.0,0.0,0.0,0.0,0.0,0.0,0.0,0.0,0.0,0.0,0.0,0.0,0.0,0.0,0.0,0.0,0.0,0.0,0.0,0.0,0.0,0.0,0.0,0.0,0.0,0.0,0.0,0.0,0.0,0.0,0.0,0.0,0.0,0.0,0.0,0.0,0.0,-0.4464,-0.4826,-0.5161,-0.5417,-0.55,-0.5575,-0.561,-0.5596,-0.5343,-0.4831,0.0,0.0,0.0,0.0,0.0,0.0,0.0,0.0,0.0,0.0,0.0,0.0,0.0,0.0,0.0,0.0,0.0,0.0,0.0,0.0,0.0,0.0,0.0,0.0,0.0,0.0,0.0,0.0,1.332,1.2878,1.185,0.0,0.0,0.0,0.0,0.0,0.0,0.0,0.0,0.0,0.0,1.1643,1.1632,1.2556,1.3177,1.2972,1.2864,1.2816,1.2903,1.2949,1.3064,1.3261,0.0,0.0,0.0,0.0,0.0,0.0,0.0,0.0,0.0,0.0,0.0,0.0,0.0,0.0,0.0,0.0,0.0,0.0,0.0,0.0,0.0,0.0,0.0,0.0,0.0,0.0,0.0,0.3663,0.0,0.0,0.25,0.0,0.0,0.0,0.0,0.0,0.0,0.0,0.0,0.0,0.0,0.0,0.0,0.0,0.0,0.0,0.0,0.0,0.0,0.0,0.0,0.0,0.0,-0.541,-0.605,-0.6428,-0.6719,-0.7051,-0.7172,-0.7328,-0.7445,-0.6953,-0.6866,-0.7265,0.0,0.0,0.0,0.0,0.0,0.0,0.0,0.0,0.0,0.0,0.0,0.0,0.0,0.0,0.0,0.0,0.0,0.0,0.0,0.0,0.0,0.0,0.0,0.0,0.0,0.0,1.2918,1.2836,1.2644,0.0,0.0,0.0,0.0,0.0,0.0,0.0,0.0,0.0,0.0,1.0813,1.1238,1.1621,1.2088,1.2352,1.2147,1.2112,1.2128,1.2212,1.2364,1.2586,0.0,0.0,0.0,0.0,0.0,0.0,0.0,0.0,0.0,0.0,0.0,0.0,0.0,0.0,0.0,0.0,0.0,0.0,0.0,0.0,0.0,0.0,0.0,0.0,0.0,0.0,0.0,0.3673,0.3339,0.0,0.0,0.0,0.0,0.0,0.0,0.0,0.0,0.0,0.0,0.0,-0.0879,-0.1565,0.0,0.0,0.0,0.0,0.0,0.0,0.0,0.0,0.0,0.0,0.0,0.0,-0.687,-0.7598,-0.8242,-0.8648,-0.8896,-0.9134,-0.9252,-0.9317,-0.953,-0.9414,-0.9007,0.0,0.0,0.0,0.0,0.0,0.0,0.0,0.0,0.0,0.0,0.0,0.0,0.0,0.0,0.0,0.0,0.0,0.0,0.0,0.0,0.0,0.0,0.0,0.0,0.0,1.2549,0.0,0.0,0.0,0.0,0.0,0.0,0.0,0.0,0.0,0.0,0.0,0.9432,0.9695,1.0073,1.0413,1.072,1.1195,1.1476,0.0,0.0,0.0,0.0,0.0,0.0,0.0,0.0,0.0,0.0,0.0,0.0,0.0,0.0,1.4183,1.4451,1.4554,1.4629,1.4681,0.0,0.0,0.0,0.0,0.0,0.0,0.0,0.0,0.0,0.0,0.0,0.0,0.0,0.0,0.3306,0.0,0.2629,0.0,0.0,0.0,0.0,0.0,0.0,0.0,0.0,-0.1165,-0.1444,-0.184,-0.2596,-0.3362,0.0,-0.4252,-0.4202,0.0,0.0,0.0,0.0,0.0,0.0,0.0,0.0,-0.8582,-0.9433,-1.0093,-1.0547,-1.0792,-1.0952,-1.1083,-1.1135,-1.1773,-1.1836,-1.1291,-1.081,-0.9408,0.0,0.0,0.0,0.0,0.0,0.0,0.0,0.0,0.0,0.0,0.0,0.0,0.0,0.0,0.0,0.0,0.0,0.0,0.0,0.0,0.0,0.0,0.0,1.1212,0.0,0.0,0.0,0.0,0.0,0.0,0.0,0.0,0.0,0.9483,0.9222,0.9134,0.9554,0.9705,0.9857,1.0198,0.0,0.0,0.0,0.0,0.0,0.0,0.0,1.1297,1.1607,1.202,1.2447,1.2838,1.3142,1.3395,1.3543,0.0,0.0,1.418,1.432,1.4398,1.4489,1.459,1.4729,1.482,1.4924,1.5002,0.0,0.0,0.0,0.0,0.0,0.0,0.0,0.0,0.3453,0.3039,0.0,0.2192,0.0,0.0,0.0,0.0,-0.0786,-0.1334,0.0,0.0,-0.214,-0.2387,-0.2885,-0.3499,-0.4094,-0.4711,-0.5732,-0.6478,-0.6974,-0.5547,0.0,0.0,0.0,0.0,0.0,0.0,-1.0547,-1.1464,-1.1948,-1.2334,-1.2675,-1.267,-1.2753,-1.2929,-1.3613,-1.3974,-1.4011,-1.4326,-1.332,-1.0658,-0.8816,0.0,0.0,0.0,0.0,0.0,0.0,0.0,0.0,0.0,0.0,0.0,0.0,0.0,0.0,0.0,0.0,0.0,0.0,0.0,0.0,1.0342,0.0,0.0,0.0,0.0,0.0,0.0,0.0,0.0,0.0,0.0,0.9223,0.8989,0.9073,0.982,0.0,0.0,0.0,0.0,0.9854,0.9776,0.9822,0.9919,1.0065,1.0396,1.0753,1.0943,0.0,0.0,1.2561,1.2805,1.2979,1.3225,1.3278,1.3429,1.3865,1.401,1.4127,1.4255,1.4379,1.4532,1.4631,1.471,1.4783,0.5471,0.0,0.0,0.0,0.0,0.3834,0.3398,0.3063,0.2673,0.2443,0.2245,0.1626,0.0,0.0,0.0,0.0,0.0,0.0,-0.2274,-0.2673,-0.302,-0.345,-0.3964,-0.4846,-0.5716,-0.66,-0.7475,-0.831,-0.9026,-0.8888,-0.8599,-0.8196,0.0,0.0,0.0,0.0,-1.2371,-1.3226,-1.3823,-1.4173,-1.4301,-1.3942,-1.3796,-1.3901,-1.4204,-1.4435,-1.464,-1.4935,-1.414,-1.208,-0.9937,0.0,0.0,0.0,0.0,0.0,0.0,0.0,0.0,0.0,0.0,0.0,0.0,0.0,0.0,0.0,0.0,0.0,0.0,0.0,0.6248,0.4985,0.3359,0.0,0.0,0.0,0.0,0.0,0.0,0.0,0.0,0.0,0.8057,0.8218,0.8456,0.0,0.0,0.8702,0.913,0.911,0.9041,0.9013,0.911,0.0,0.944,0.979,1.016,1.0445,1.1113,1.1703,1.2133,1.2352,1.2538,1.2767,1.2887,1.3025,1.3244,1.3549,1.3789,1.3911,1.4051,1.4166,1.4265,1.4357,1.4487,0.3143,0.3492,0.4059,0.4165,0.3797,0.3014,0.245,0.2066,0.1692,0.1495,0.1349,0.0771,0.0274,-0.0118,-0.0918,0.0,0.0,0.0,-0.3002,-0.3382,-0.3997,-0.4604,-0.529,-0.6292,-0.7121,-0.7803,-0.9135,-1.0273,-1.1147,-1.1745,-1.1896,-1.1585,0.0,0.0,-1.2943,-1.3613,-1.4341,-1.5059,-1.5781,-1.59,-1.5363,-1.4892,-1.4699,-1.4802,-1.4793,-1.4853,-1.5001,-1.474,-1.4194,-1.322,-1.1086,-0.8883,0.0,0.0,0.0,0.0,0.0,0.0,0.0,0.0,0.0,0.0,0.0,1.3892,1.3717,0.0,0.0,0.0,0.7293,0.4346,0.1119,0.03,0.0,0.0,0.0,0.0,0.0,0.0,0.0,0.5721,0.6281,0.6671,0.7156,0.7498,0.7818,0.821,0.8147,0.8177,0.839,0.0,0.8624,0.8704,0.8961,0.9223,0.9427,0.9828,1.0236,1.0541,1.0893,1.1294,1.163,1.1868,1.2222,1.278,1.295,1.3167,1.3767,1.3977,1.3944,1.3728,1.399,1.4214,1.4031,1.4078,1.4306,0.0647,0.0234,0.2268,0.3171,0.3247,0.2027,0.1326,0.1016,0.0549,0.0275,0.0157,-0.0316,-0.0711,-0.107,-0.2357,0.0,-0.2819,-0.3444,-0.3935,-0.4288,-0.513,-0.5955,-0.68,-0.7874,-0.8528,-0.8789,-1.0904,-1.2425,-1.3357,-1.426,-1.5056,-1.5662,-1.4428,-1.4278,-1.522,-1.5843,-1.6425,-1.7019,-1.7706,-1.7303,-1.5785,-1.5429,-1.5333,-1.546,-1.525,-1.5107,-1.5046,-1.4128,-1.368,-1.3848,-1.2119,-0.9807,-0.6996,0.0,0.0,0.0,0.0,0.0,0.0,0.0,0.0,0.0,0.0,0.0,0.0,0.0,0.0,0.0,0.0527,0.0,-0.3452,-0.3772,0.0,0.0,0.0,-0.198,-0.0305,0.0997,0.2604,0.4726,0.0,0.0,0.6563,0.6824,0.7193,0.7729,0.7835,0.7831,0.7812,0.8172,0.8528,0.8692,0.9183,0.9611,0.9701,1.0191,1.064,1.09,1.088,1.0996,1.1315,1.1588,1.2201,1.3229,1.3374,1.3588,1.4881,1.4878,1.4597,1.373,1.4178,1.459,1.4162,1.4167,1.452,-0.1636,-0.1879,-0.1322,-0.0452,0.0544,0.0117,-0.0156,-0.0352,-0.065,-0.0825,-0.095,-0.1408,-0.1949,-0.2512,-0.3149,-0.3574,-0.3787,-0.4585,-0.5241,-0.5794,-0.6918,-0.7958,-0.9016,-1.0288,-1.1491,-1.2575,-1.4044,-1.5324,-1.6304,-1.7167,-1.7942,-1.8573,-1.8693,-1.8344,-1.7562,-1.8019,-1.8718,-1.9665,-1.8333,-1.6611,-1.455,-1.4755,-1.4765,-1.4469,-1.4437,-1.4256,-1.3858,-1.3554,-1.3064,-1.2361,-1.161,-1.0623,-0.9366,-0.4478,0.0,0.0,0.0,0.0,0.0,0.0,0.0,0.0,0.0,0.773,0.7775,0.0,0.1446,0.0,-0.1791,-0.4197,-0.6808,-0.6961,0.0,0.0,-0.7642,-0.5522,-0.3127,-0.0845,0.1419,0.368,0.466,0.5401,0.5944,0.6466,0.6828,0.7046,0.7178,0.7444,0.7875,0.8025,0.8316,0.8822,0.9114,0.9293,0.9597,1.0118,1.0659,1.104,1.1305,1.1648,1.2028,1.2444,1.2836,1.3352,1.3563,1.3837,1.4301,1.4859,1.5106,1.4635,1.4854,1.5157,1.511,1.5234,1.548,-0.3857,-0.4034,-0.4034,-0.35,-0.266,-0.227,-0.2156,-0.2245,-0.2214,-0.2195,-0.2285,-0.2733,-0.3246,-0.3822,-0.413,-0.4437,-0.4838,-0.5752,-0.6407,-0.6961,-0.8359,-0.9579,-1.0661,-1.2016,-1.3552,-1.5112,-1.6138,-1.7418,-1.883,-1.9194,-1.9639,-2.017,-2.0721,-2.0806,-2.0453,-2.0233,-1.9866,-1.9338,-1.7058,-1.5601,-1.5106,-1.4761,-1.4518,-1.439,-1.409,-1.3742,-1.3246,-1.29,-1.2335,-1.1466,-1.0796,-1.0112,-0.9276,-0.5161,-0.2174,0.0,0.0,0.0,0.0,0.0,0.0,0.0,0.0,0.0,0.0,0.0,-0.1837,-0.4005,-0.6063,-0.7905,-0.9455,-0.9086,-0.9013,-0.9606,-0.7748,-0.5528,-0.3168,-0.0826,0.1398,0.3411,0.448,0.5283,0.5905,0.6465,0.685,0.6969,0.7161,0.7469,0.7888,0.8198,0.8572,0.8967,0.9336,0.9705,1.0097,1.037,1.067,1.1099,1.1388,1.1674,1.2039,1.2447,1.2914,1.3485,1.3836,1.4232,1.4773,1.5368,1.5733,1.5726,1.5868,1.5868,1.55,1.5561,1.5841,-0.6026,-0.6156,-0.6117,-0.6035,-0.5874,-0.4911,-0.4401,-0.4186,-0.3825,-0.3686,-0.3772,-0.4212,-0.465,-0.5036,-0.5265,-0.5524,-0.5873,-0.6909,-0.763,-0.8216,-0.9772,-1.1151,-1.2324,-1.3662,-1.5242,-1.7022,-1.7779,-1.91,-2.0965,-2.0802,-2.0899,-2.1301,-2.1771,-2.2247,-2.2678,-2.1887,-2.0085,-1.733,-1.5135,-1.4625,-1.5893,-1.4844,-1.4362,-1.4509,-1.3914,-1.3313,-1.2806,-1.2167,-1.1511,-1.0835,-0.9889,-0.9019,-0.8093,-0.5753,-0.3176,0.0,0.174,0.0,0.0,0.0,0.0,0.0,0.0,0.0,0.0,-0.1028,-0.3978,-0.7836,-1.0405,-1.1564,-1.092,-0.9971,-0.8827,-0.7432,-0.5535,-0.3606,-0.1646,0.0259,0.204,0.3599,0.46,0.5435,0.6096,0.6658,0.7017,0.7251,0.7581,0.7859,0.807,0.852,0.8907,0.9189,0.9725,1.0281,1.0721,1.0782,1.0867,1.1268,1.142,1.1499,1.1923,1.2351,1.2903,1.3765,1.4206,1.4702,1.5672,1.5996,1.6274,1.6478,1.6709,1.6613,1.5918,1.5846,1.6118,-0.7893,-0.7967,-0.7852,-0.7762,-0.7676,-0.7345,-0.6473,-0.5214,-0.5163,-0.525,-0.551,-0.5757,-0.6055,-0.6355,-0.657,-0.6781,-0.7063,-0.8316,-0.9255,-0.9962,-1.1843,-1.3426,-1.4833,-1.6176,-1.7532,-1.889,-1.9977,-2.0983,-2.2015,-2.2558,-2.3043,-2.3501,-2.3854,-2.2974,-2.0955,0.0,0.0,0.0,-1.498,-1.4629,-1.3541,-1.3579,-1.361,-1.3642,-1.3112,0.0,-1.1771,-1.1249,-1.065,-0.9821,-0.9154,0.0,0.0,0.0,0.0,0.0,0.0,0.0,0.0,0.0,0.0,0.0,-0.0881,-0.2026,-0.2936,-0.6761,-0.945,-1.0018,-1.0331,-1.0098,-0.9175,-0.7852,-0.642,-0.4871,-0.3081,-0.1339,0.0227,0.1765,0.3133,0.4063,0.495,0.5677,0.6192,0.6845,0.736,0.7613,0.8097,0.8544,0.8745,0.8797,0.9088,0.9714,1.0181,1.0539,1.071,1.1009,1.1289,1.1665,1.2048,1.2382,1.2778,1.3246,1.373,1.4283,1.4638,1.4991,1.5492,1.5833,1.6108,1.6409,1.6657,1.6861,1.6904,1.7072,1.7334,-0.9394,-0.9433,-0.935,-0.9301,0.0,-0.9067,-0.8565,-0.7736,-0.7051,-0.69,-0.7161,-0.7231,-0.7432,-0.7736,-0.7941,-0.8102,-0.8407,-0.9805,-1.0809,-1.1599,-1.3572,-1.5174,-1.6484,-1.7736,-1.8972,-2.0164,-2.1197,-2.2067,-2.2845,-2.3503,-2.3976,-2.4323,-2.3062,-2.1778,-2.047,-1.8534,-1.6489,-1.4365,-1.3893,-1.339,-1.2841,-1.2939,-1.2929,-1.2808,-1.2213,0.0,0.0,0.0,0.0,0.0,0.0,0.0,0.0,-0.6021,0.0,-0.3864,-0.2609,-0.1652,-0.1056,-0.0858,-0.1264,-0.2371,-0.3545,-0.4615,-0.5585,-0.7893,-0.912,-0.8816,-0.8249,-0.7533,-0.6559,-0.5219,-0.3873,-0.2447,-0.0972,0.0438,0.1688,0.2869,0.3904,0.4767,0.5539,0.6144,0.6754,0.7302,0.7773,0.8039,0.8492,0.889,0.9043,0.9055,0.9294,0.9917,1.0244,1.05,1.0654,1.0975,1.1357,1.1632,1.2108,1.2573,1.2994,1.3452,1.3894,1.4266,1.4571,1.4883,1.5284,1.5617,1.5953,1.6274,1.6562,1.6849,1.7183,1.7409,1.7627,-1.068,-1.0674,-1.0728,-1.0642,-1.0512,-1.0451,-1.0456,-1.0369,0.0,0.0,0.0,-0.8715,-0.8916,-0.92,-0.9359,-0.9552,-0.9889,-1.1193,-1.2178,-1.2958,-1.4959,-1.6517,-1.7627,-1.8906,-2.0073,-2.11,-2.2009,-2.2804,-2.3482,-2.4002,-2.4081,-2.3636,-2.1411,-1.9964,-1.9181,-1.5281,-1.3511,-1.4094,-1.2619,-1.2133,-1.2666,-1.251,-1.23,-1.2021,-1.1316,-1.0665,-1.0068,-0.9607,-0.903,-0.8221,-0.7701,-0.7137,-0.6507,-0.5797,-0.5169,-0.4552,-0.3929,-0.3473,-0.3292,-0.3303,-0.3512,-0.4064,-0.4643,-0.555,-0.6854,-0.6976,-0.6845,-0.646,-0.5722,-0.4929,-0.3989,-0.2771,-0.1572,-0.0395,0.0781,0.1857,0.2874,0.3738,0.4596,0.5443,0.6061,0.6634,0.7262,0.7758,0.8156,0.8443,0.8765,0.9065,0.9266,0.9359,0.9575,0.9936,1.0244,1.0433,1.0616,1.0931,1.1234,1.1553,1.2041,1.2514,1.2902,1.3269,1.3709,1.4157,1.4363,1.4665,1.5072,1.5448,1.5775,1.6191,1.6448,1.6746,1.7066,1.7289,1.7502,-1.1777,-1.1771,-1.1892,-1.1856,-1.1735,-1.1735,-1.1808,-1.1785,-1.0459,-0.9973,-1.0133,-1.0354,-1.054,-1.0702,-1.0891,-1.1068,-1.1361,-1.2315,-1.3132,-1.3914,-1.586,-1.736,-1.8411,-1.9945,-2.1083,-2.1852,-2.2626,-2.3296,-2.3815,-2.4218,-2.3266,-2.1072,-2.0625,-1.8428,-1.4474,-1.1814,-1.097,-1.178,-1.1854,-1.2076,-1.2377,-1.2026,-1.161,-1.115,-1.0525,-0.9913,-0.9364,-0.884,-0.8349,-0.7829,-0.7407,-0.6873,-0.6342,-0.5913,-0.5413,-0.4939,-0.4501,-0.4175,-0.4024,-0.3808,-0.3655,-0.3689,-0.3742,-0.4216,-0.5239,-0.5392,-0.5189,-0.4638,-0.4092,-0.3425,-0.2454,-0.1298,-0.0174,0.0913,0.1885,0.2822,0.3646,0.4457,0.5142,0.5701,0.6392,0.695,0.7416,0.787,0.8324,0.861,0.889,0.9141,0.9554,0.9793,0.9902,1.0024,1.0322,1.0582,1.0725,1.105,1.1431,1.1706,1.2113,1.255,1.299,1.3323,1.3688,1.4124,1.4356,1.4596,1.4966,1.5299,1.5646,1.5996,1.6281,1.6551,1.6831,1.7101,1.7352,-1.2713,-1.2707,-1.2824,-1.2818,-1.2777,-1.2841,-1.2932,-1.2982,-1.2512,-1.2052,-1.169,-1.1807,-1.2022,-1.2201,-1.2412,-1.2587,-1.2773,-1.3772,-1.4548,-1.5182,-1.6761,-1.8141,-1.9335,-2.0462,-2.1507,-2.2513,-2.2688,-2.3009,-2.3299,-2.1931,-2.0563,-1.9375,-1.727,-1.4326,-1.098,-1.0396,-1.0537,-1.1175,-1.1573,-1.1828,-1.1882,-1.1368,-1.085,-1.0383,-0.971,-0.9086,-0.8511,-0.804,-0.7619,-0.7303,-0.6925,-0.6609,-0.625,-0.6023,-0.567,-0.5183,-0.4952,-0.4719,-0.4405,-0.4033,-0.3631,-0.324,-0.2906,-0.2742,-0.2808,-0.3404,-0.3442,-0.2787,-0.216,-0.1495,-0.0688,0.0276,0.1233,0.2142,0.2897,0.3651,0.4391,0.5053,0.5626,0.6139,0.6689,0.7234,0.7697,0.816,0.857,0.8846,0.9132,0.9506,0.9797,1.0019,1.0132,1.0166,1.0433,1.0621,1.0807,1.1136,1.148,1.1743,1.2174,1.2585,1.3031,1.3329,1.3682,1.4013,1.4292,1.4522,1.4849,1.5202,1.5536,1.5885,1.6207,1.6455,1.6746,1.7076,1.7447,-1.3522,-1.3549,-1.3643,-1.3676,-1.3742,-1.3828,-1.3946,-1.4056,-1.4144,-1.3828,-1.3258,-1.3262,-1.3399,-1.3605,-1.3821,-1.4014,-1.4267,-1.5089,-1.5744,-1.6278,-1.7455,-1.8686,-1.9799,-2.0592,-2.1553,-2.2511,-2.2416,-2.2529,-2.2504,-1.9831,-1.7916,-1.6914,-1.3319,-1.0572,-0.8943,-0.9938,-1.0643,-1.1023,-1.1267,-1.1372,-1.139,-1.0714,-1.0131,-0.9555,-0.8928,-0.8349,-0.7768,-0.7396,-0.7025,-0.6823,-0.6497,-0.6277,-0.6173,-0.6059,-0.5777,-0.5324,-0.5188,-0.4842,-0.4271,-0.377,-0.3205,-0.2555,-0.2004,-0.1404,-0.0802,-0.1278,-0.1495,-0.0963,-0.0344,0.0346,0.0965,0.1727,0.2554,0.3185,0.3792,0.4407,0.5067,0.558,0.6056,0.6559,0.7024,0.7523,0.7983,0.8439,0.885,0.9145,0.9545,0.9906,1.0059,1.0244,1.0366,1.0477,1.0582,1.0731,1.0921,1.1255,1.1554,1.1822,1.2246,1.2662,1.3066,1.3397,1.3709,1.4006,1.4248,1.4511,1.4801,1.5133,1.5492,1.5799,1.6123,1.6452,1.6787,1.7117,1.7517,-1.4234,-1.4317,-1.4367,-1.4515,-1.4655,-1.4714,-1.4895,-1.5043,-1.4659,-1.4611,-1.4706,-1.465,-1.4673,-1.4861,-1.5057,-1.5264,-1.5447,-1.592,-1.6343,-1.6821,-1.7927,-1.875,-1.939,-2.0341,-2.1078,-2.1593,-2.1778,-2.1913,-2.189,-1.9487,-1.6274,-1.2323,-0.9833,-0.9093,-0.9434,-1.0213,-1.0765,-1.0926,-1.0557,-1.0585,-1.0949,-1.0165,-0.9451,-0.8879,-0.8293,-0.7765,-0.7393,-0.6972,-0.665,-0.6492,-0.628,-0.6173,-0.6005,-0.59,-0.5675,-0.5326,-0.4941,-0.4268,-0.3227,-0.2612,-0.2018,-0.1309,-0.0809,-0.0202,0.0456,0.0829,0.0934,0.0912,0.1206,0.1714,0.2305,0.2947,0.3486,0.3969,0.4541,0.5183,0.5597,0.6053,0.6471,0.6898,0.7363,0.7795,0.8164,0.8623,0.9105,0.9599,0.9936,1.0244,1.0283,1.0472,1.0664,1.0769,1.0883,1.0964,1.1121,1.1405,1.1739,1.2041,1.2407,1.2809,1.3163,1.3431,1.3722,1.4052,1.4326,1.4556,1.4815,1.5124,1.5425,1.577,1.6075,1.6379,1.6827,1.7133,1.7416,-1.4897,-1.4937,-1.5066,-1.5195,-1.5301,-1.5058,-1.5099,-1.5247,-1.4781,-1.475,-1.5033,-1.5122,-1.5249,-1.5418,-1.567,-1.6075,-1.6688,-1.702,-1.7371,-1.7667,-1.8267,-1.8994,-1.9793,-2.0308,-2.0952,-2.1666,-2.1436,-2.0545,-1.8744,-1.5164,-1.151,-0.8795,-0.8479,-0.8904,-0.9419,-1.028,-1.062,-1.0514,-1.0091,-0.9784,-0.964,-0.9312,-0.8879,-0.8296,-0.7824,-0.734,-0.6969,-0.665,-0.6381,-0.6164,-0.6114,-0.6005,-0.5786,-0.5732,-0.5515,-0.5069,-0.441,-0.3669,-0.2743,-0.2162,-0.1503,-0.0753,-0.0054,0.0537,0.1181,0.1743,0.2126,0.2424,0.2519,0.2712,0.3127,0.3732,0.4285,0.4717,0.5168,0.5611,0.6164,0.6535,0.682,0.7196,0.761,0.8028,0.8488,0.9065,0.9585,0.9985,1.0322,1.051,1.0534,1.0736,1.0921,1.1002,1.1126,1.1287,1.1357,1.158,1.187,1.2222,1.2579,1.2937,1.3254,1.3567,1.3868,1.4164,1.439,1.462,1.4878,1.517,1.547,1.5791,1.6179,1.6559,1.6929,1.7166,1.744,-1.5418,-1.5485,-1.5617,-1.5656,-1.5571,-1.5304,-1.5213,-1.5185,-1.4752,-1.471,-1.5028,-1.5269,-1.5605,-1.5976,-1.6232,-1.685,-1.7691,-1.8026,-1.8272,-1.845,-1.8691,-1.9242,-1.9994,-2.0157,-2.0646,-2.1136,-2.0067,-1.7877,-1.4851,-1.1535,-0.8487,-0.6992,-0.807,-0.8989,-0.9392,-1.0162,-1.036,-1.0039,-0.9621,-0.9089,-0.8613,-0.8405,-0.8084,-0.7649,-0.7283,-0.6969,-0.6601,-0.6381,-0.6218,-0.595,-0.5952,-0.5841,-0.562,-0.5563,-0.5344,-0.4791,-0.4024,-0.3304,-0.2577,-0.1903,-0.1176,-0.0392,0.0336,0.1008,0.1623,0.2238,0.2853,0.3461,0.3574,0.3687,0.3894,0.4458,0.5018,0.5446,0.573,0.6146,0.6651,0.6911,0.716,0.7538,0.7979,0.8386,0.8926,0.9487,0.9976,1.0317,1.0597,1.0746,1.0802,1.1007,1.1174,1.1207,1.141,1.1491,1.1522,1.1728,1.2004,1.233,1.2656,1.2994,1.3357,1.3701,1.4,1.4229,1.4518,1.4777,1.4994,1.5261,1.5544,1.5862,1.6246,1.6665,1.6954,1.7175,1.7416,-1.5712,-1.5892,-1.6072,-1.5826,-1.535,-1.5531,-1.5429,-1.5042,-1.4607,-1.4554,-1.4893,-1.5199,-1.5821,-1.6702,-1.7037,-1.7663,-1.8482,-1.869,-1.8854,-1.9048,-1.9213,-1.9387,-1.9623,-1.9763,-1.9936,-2.0029,-1.7735,-1.4134,-0.9741,-0.9549,-0.8829,-0.7172,-0.8341,-0.9125,-0.94,-0.9903,-1.0035,-0.9614,-0.9089,-0.8511,-0.7975,-0.7453,-0.712,-0.6886,-0.674,-0.6547,-0.6284,-0.6059,-0.595,-0.5793,-0.5793,-0.5736,-0.5622,-0.5565,-0.5234,-0.4572,-0.3913,-0.3249,-0.2521,-0.1794,-0.1009,-0.028,0.0449,0.1177,0.1903,0.2516,0.313,0.3909,0.4349,0.467,0.4716,0.5188,0.5668,0.6061,0.6432,0.673,0.7063,0.7274,0.7555,0.7938,0.839,0.8918,0.9611,0.9922,1.0235,1.0544,1.0871,1.1071,1.1126,1.1287,1.141,1.1485,1.1565,1.1651,1.156,1.1796,1.2119,1.2449,1.2762,1.3029,1.3385,1.3735,1.4026,1.4287,1.4543,1.4832,1.5117,1.5381,1.5689,1.5996,1.6293,1.6631,1.6946,1.7108,1.7345,-1.6136,-1.6262,-1.5944,-1.5768,-1.5623,-1.5032,-1.473,-1.4751,-1.4278,-1.4544,-1.5271,-1.5576,-1.6504,-1.7938,-1.8132,-1.8562,-1.9136,-1.9267,-1.9399,-1.9537,-1.9648,-1.9752,-1.9861,-1.9952,-2.0022,-1.971,-1.7275,-1.3542,-0.9275,-0.8088,-0.7437,-0.7454,-0.8435,-0.9039,-0.9103,-0.955,-0.9562,-0.8991,-0.8458,-0.7934,-0.7297,-0.6756,-0.6421,-0.6197,-0.6211,-0.6168,-0.5957,-0.5902,-0.5791,-0.5677,-0.5574,-0.5407,-0.5291,-0.5014,-0.4739,-0.4302,-0.3803,-0.3192,-0.252,-0.1849,-0.112,-0.028,0.0505,0.1177,0.196,0.2629,0.3297,0.3964,0.4572,0.5011,0.5449,0.5834,0.6347,0.6765,0.6954,0.7202,0.756,0.7736,0.787,0.8279,0.8833,0.9469,0.9917,1.0269,1.0567,1.084,1.1131,1.14,1.1501,1.1608,1.1704,1.1719,1.1782,1.1844,1.1901,1.2004,1.2258,1.2585,1.2902,1.3173,1.352,1.3868,1.4203,1.4401,1.4655,1.4918,1.5231,1.5558,1.5841,1.6108,1.6429,1.6649,1.6938,1.715,1.7393,-1.6455,-1.6444,-1.5931,-1.5663,-1.5523,-1.4695,-1.4338,-1.4394,-1.444,-1.4932,-1.5755,-1.6483,-1.7558,-1.8659,-1.91,-1.9467,-1.9775,-1.98,-1.9848,-1.9923,-2.0002,-2.005,-1.9927,-1.9165,-1.8771,-1.8217,-1.5173,-1.1525,-0.8195,-0.6826,-0.6702,-0.7367,-0.8365,-0.8819,-0.8793,-0.905,-0.8879,-0.8299,-0.7771,-0.7182,-0.6598,-0.6107,-0.5719,-0.5445,-0.5395,-0.5504,-0.557,-0.557,-0.5515,-0.5401,-0.5185,-0.502,-0.4906,-0.4629,-0.4299,-0.4024,-0.369,-0.3135,-0.252,-0.1959,-0.1231,-0.0336,0.0393,0.1177,0.1959,0.2684,0.3352,0.4018,0.4736,0.5393,0.5939,0.6431,0.6891,0.7209,0.7265,0.7446,0.7852,0.7936,0.8157,0.859,0.9231,0.9834,1.023,1.0567,1.0988,1.1333,1.1654,1.1942,1.2223,1.2208,1.2192,1.2175,1.2113,1.2148,1.2186,1.233,1.2473,1.2762,1.3076,1.3344,1.3655,1.4,1.4326,1.4522,1.4797,1.5065,1.5374,1.5741,1.6019,1.6281,1.6482,1.672,1.6967,1.7224,1.7464,-1.6596,-1.6554,-1.6185,-1.5676,-1.5183,-1.4754,-1.4338,-1.4258,-1.5105,-1.5737,-1.6478,-1.7917,-1.8715,-1.9191,-1.9844,-2.0221,-1.9808,-1.9674,-1.9875,-2.0142,-1.9976,-1.988,-1.9704,-1.6994,-1.5584,-1.5353,-1.0947,-0.7646,-0.575,-0.6129,-0.6718,-0.7503,-0.7974,-0.828,-0.844,-0.83,-0.804,-0.7439,-0.6853,-0.6315,-0.5825,-0.5285,-0.4903,-0.457,-0.4346,-0.4512,-0.5018,-0.5071,-0.5013,-0.4903,-0.4739,-0.4631,-0.4463,-0.4244,-0.4022,-0.3796,-0.3523,-0.3079,-0.252,-0.1903,-0.1175,-0.0392,0.028,0.1121,0.1903,0.2684,0.3461,0.4179,0.5011,0.5837,0.6381,0.7031,0.7373,0.7184,0.7367,0.7621,0.7833,0.7941,0.8289,0.896,0.9623,1.0171,1.0592,1.0888,1.1286,1.2003,1.2385,1.2737,1.3168,1.3092,1.3018,1.2887,1.2654,1.2523,1.2561,1.2621,1.2762,1.2937,1.3242,1.3514,1.3782,1.4124,1.4422,1.4655,1.4989,1.5277,1.5573,1.5898,1.6095,1.6336,1.6562,1.6789,1.7018,1.7272,1.7519,-1.6793,-1.6825,-1.6337,-1.5808,-1.5295,-1.4905,-1.4772,-1.4995,-1.5585,-1.6596,-1.7879,-1.8649,-1.9306,-1.9915,-2.0308,-1.9179,-1.7155,-1.717,-1.8271,-1.9585,-1.8144,-1.7209,-1.6621,-1.4118,-1.1831,-1.0372,-0.9289,-0.748,-0.5811,-0.6007,-0.6668,-0.7164,-0.7479,-0.7559,-0.747,-0.725,-0.6843,-0.6138,-0.5762,-0.5273,-0.4727,-0.4401,-0.4072,-0.385,-0.3629,-0.3572,-0.3741,-0.413,-0.4298,-0.4242,-0.4187,-0.4022,-0.3858,-0.3634,-0.3412,-0.3298,-0.2853,-0.2463,-0.2183,-0.1569,-0.0953,-0.028,0.0393,0.1177,0.1958,0.2904,0.3684,0.4401,0.5285,0.6114,0.6709,0.7351,0.7714,0.7673,0.7837,0.8008,0.8224,0.8598,0.9101,0.9584,1.0069,1.0597,1.1001,1.1255,1.1654,1.2396,1.2726,1.3093,1.3622,1.38,1.3511,1.32,1.3034,1.2841,1.2734,1.2762,1.2902,1.311,1.3385,1.3655,1.3954,1.4248,1.4536,1.4849,1.5179,1.5448,1.574,1.5996,1.6199,1.6417,1.6641,1.6866,1.7093,1.7337,1.7589,-1.6938,-1.696,-1.6471,-1.6122,-1.5839,-1.5479,-1.5544,-1.596,-1.6597,-1.7614,-1.8737,-1.9319,-1.984,-2.0084,-1.9209,-1.7499,-1.5519,-1.4517,-1.5001,-1.6552,-1.5249,-1.4172,-1.3715,-1.1189,-0.8542,-0.6657,-0.6888,-0.6594,-0.55,-0.5887,-0.636,-0.6705,-0.6769,-0.667,-0.6447,-0.6127,-0.564,-0.4992,-0.4608,-0.4171,-0.3734,-0.3407,-0.3184,-0.296,-0.2737,-0.2571,-0.2517,-0.2797,-0.3186,-0.3463,-0.3408,-0.3244,-0.3079,-0.2854,-0.274,-0.2572,-0.2294,-0.1959,-0.1624,-0.112,-0.0561,0.0112,0.0784,0.1456,0.2238,0.3183,0.3903,0.4624,0.5502,0.6379,0.7079,0.7771,0.8176,0.827,0.8221,0.8374,0.8602,0.8984,0.9466,0.9887,1.0327,1.0794,1.1238,1.1533,1.1929,1.2572,1.3135,1.3595,1.4174,1.4486,1.414,1.3808,1.3528,1.3265,1.2865,1.2908,1.3082,1.3288,1.3527,1.3795,1.4059,1.4376,1.4669,1.5058,1.5389,1.566,1.5919,1.6108,1.6301,1.6509,1.672,1.6933,1.7158,1.7393,1.7643,-1.7048,-1.7043,-1.6583,-1.6509,-1.6609,-1.635,-1.6465,-1.6936,-1.7889,-1.8612,-1.9173,-1.9909,-2.038,-1.9732,-1.7391,-1.5573,-1.4683,-1.1799,-1.0317,-1.0644,-1.0423,-1.0428,-0.9937,-0.8109,-0.6132,-0.444,-0.466,-0.5057,-0.5453,-0.5661,-0.5917,-0.6153,-0.5909,-0.5679,-0.5364,-0.5015,-0.4443,-0.384,-0.3398,-0.2955,-0.2624,-0.2462,-0.2183,-0.179,-0.1734,-0.1567,-0.1401,-0.1345,-0.1792,-0.2628,-0.2517,-0.2294,-0.2183,-0.2128,-0.196,-0.1734,-0.1734,-0.1344,-0.0897,-0.0448,0.0056,0.0728,0.1344,0.1958,0.2744,0.3519,0.4291,0.495,0.5823,0.6689,0.7501,0.8246,0.8741,0.8916,0.8743,0.861,0.8766,0.9167,0.9571,1.0059,1.0404,1.0827,1.1405,1.1654,1.2101,1.2781,1.3539,1.4134,1.4753,1.4914,1.4986,1.4575,1.403,1.3545,1.313,1.311,1.3288,1.3499,1.3735,1.396,1.4222,1.4543,1.4932,1.5284,1.5602,1.5833,1.6067,1.6234,1.6409,1.6588,1.6805,1.7017,1.7265,1.7519,1.7772,-1.7065,-1.7183,-1.714,-1.7023,-1.6901,-1.701,-1.7356,-1.7839,-1.8397,-1.9152,-1.985,-2.0245,-2.0472,-2.0171,-1.6961,-1.4219,-1.186,-0.8868,-0.5876,-0.4355,-0.4625,-0.4909,-0.5079,-0.4882,-0.4498,-0.4051,-0.4572,-0.5055,-0.5328,-0.5399,-0.5466,-0.5516,-0.4996,-0.4576,-0.4219,-0.3606,-0.3005,-0.2399,-0.201,-0.1675,-0.1396,-0.1231,-0.1121,-0.1009,-0.0784,-0.0616,-0.0449,-0.0168,-0.0504,-0.1453,-0.1397,-0.1286,-0.123,-0.112,-0.1008,-0.0784,-0.084,-0.0616,0.0,0.0504,0.1007,0.1455,0.2124,0.2682,0.3296,0.4125,0.4842,0.5605,0.6524,0.743,0.8084,0.8879,0.9453,0.9772,0.9457,0.9217,0.9473,0.9627,0.9853,1.0278,1.0621,1.1007,1.1383,1.1739,1.2201,1.2933,1.3515,1.4089,1.4762,1.5008,1.4893,1.467,1.4206,1.3775,1.3468,1.342,1.3493,1.3714,1.3941,1.4157,1.4447,1.4763,1.5192,1.561,1.5741,1.597,1.6202,1.641,1.6567,1.6701,1.6917,1.715,1.744,1.7704,1.7949,-1.7124,-1.7248,-1.7361,-1.7381,-1.7408,-1.774,-1.8198,-1.8656,-1.9075,-1.9588,-2.0212,-2.0405,-2.051,-2.0254,-1.7334,-1.3961,-1.0558,-0.781,-0.48,-0.213,-0.2699,-0.3162,-0.3317,-0.3588,-0.3959,-0.4326,-0.4838,-0.5101,-0.5193,-0.5096,-0.4858,-0.454,-0.4052,-0.3496,-0.2896,-0.2342,-0.1732,-0.1175,-0.0783,-0.0448,-0.0224,-0.0112,0.0,0.0056,0.028,0.0392,0.056,0.0896,0.0616,-0.0112,-0.0224,-0.0112,-0.0112,-0.0056,0.0112,0.028,0.0056,0.028,0.1064,0.1566,0.2067,0.2514,0.307,0.3539,0.4104,0.4741,0.5372,0.5937,0.69,0.7747,0.8621,0.9578,1.0386,1.0738,1.0529,1.0189,1.0074,1.0141,1.0245,1.0464,1.0731,1.111,1.1484,1.1768,1.2277,1.2833,1.3379,1.3955,1.4526,1.4667,1.4732,1.4544,1.4393,1.403,1.3779,1.3707,1.3788,1.4013,1.4268,1.4486,1.4718,1.5011,1.5358,1.5713,1.59,1.609,1.6285,1.6483,1.6654,1.6805,1.7043,1.7288,1.7557,1.7839,1.8065,-1.7183,-1.7297,-1.7377,-1.7631,-1.8005,-1.8438,-1.8818,-1.9323,-1.9683,-2.0007,-2.0302,-2.0453,-2.0536,-2.042,-1.7527,-1.4271,-1.0369,-0.7972,-0.5072,-0.3099,-0.2922,-0.3617,-0.3832,-0.4055,-0.4377,-0.4716,-0.5062,-0.5149,-0.5104,-0.4794,-0.4222,-0.3729,-0.3232,-0.2496,-0.1786,-0.1183,-0.0611,-0.0056,0.0392,0.0728,0.0951,0.1062,0.1174,0.1229,0.1286,0.1454,0.1733,0.1958,0.179,0.1064,0.1063,0.1062,0.1062,0.1062,0.1229,0.1397,0.1285,0.1508,0.2292,0.2849,0.3235,0.3731,0.4103,0.4487,0.4906,0.5328,0.5805,0.6307,0.7136,0.8223,0.9299,1.0443,1.122,1.1603,1.1754,1.131,1.0677,1.0653,1.0757,1.0542,1.0888,1.1185,1.1521,1.1847,1.2233,1.2686,1.3198,1.3748,1.4193,1.4385,1.4509,1.4554,1.443,1.4302,1.4097,1.3974,1.4131,1.43,1.4651,1.4894,1.505,1.5299,1.5551,1.5791,1.5991,1.6151,1.6355,1.6525,1.6709,1.6967,1.7199,1.7393,1.762,1.7883,1.815,-1.7183,-1.7306,-1.744,-1.7698,-1.8123,-1.8551,-1.9026,-1.9484,-1.9821,-2.0111,-2.0343,-2.0457,-2.0527,-2.0423,-1.7433,-1.3712,-1.0534,-0.7781,-0.4863,-0.3267,-0.3605,-0.4399,-0.4715,-0.4789,-0.4893,-0.523,-0.528,-0.5193,-0.4968,-0.4441,-0.3825,-0.3149,-0.2393,-0.1612,-0.0911,-0.0158,0.0546,0.1169,0.1623,0.1958,0.2179,0.2289,0.2346,0.2401,0.2458,0.2625,0.2793,0.307,0.3124,0.2903,0.2516,0.2238,0.2181,0.2234,0.2401,0.2624,0.2901,0.3121,0.3678,0.4348,0.4847,0.4754,0.4988,0.532,0.5686,0.5977,0.6425,0.702,0.7957,0.9104,1.042,1.1282,1.1859,1.2227,1.2532,1.2503,1.2074,1.1541,1.1136,1.0976,1.1078,1.1378,1.1628,1.1968,1.2305,1.2621,1.3044,1.3509,1.3829,1.4124,1.429,1.4422,1.4402,1.4299,1.4332,1.4287,1.4479,1.4644,1.4963,1.5238,1.5396,1.5536,1.5755,1.5934,1.6067,1.6254,1.6448,1.6641,1.6865,1.7109,1.7353,1.7542,1.7758,1.8001,1.8213,-1.7215,-1.733,-1.748,-1.7752,-1.8144,-1.8597,-1.9068,-1.9497,-1.9845,-2.0127,-2.034,-2.0454,-2.0517,-2.0505,-1.8934,-1.643,-1.2353,-0.8316,-0.5351,-0.3961,-0.4277,-0.5082,-0.5579,-0.5574,-0.5554,-0.5626,-0.5412,-0.5149,-0.4748,-0.4089,-0.3337,-0.2552,-0.1721,-0.0874,-0.005,0.0731,0.1461,0.2166,0.2683,0.3071,0.3289,0.3458,0.3515,0.3569,0.368,0.379,0.3846,0.4068,0.4179,0.4124,0.3904,0.3519,0.3298,0.3349,0.3514,0.3738,0.4065,0.4395,0.4897,0.5561,0.6023,0.5743,0.5892,0.6089,0.6349,0.6591,0.6933,0.7439,0.83,0.9467,1.1164,1.198,1.2418,1.2788,1.3228,1.3278,1.2908,1.2273,1.1716,1.1444,1.1378,1.1544,1.1791,1.2113,1.2407,1.2715,1.2961,1.3433,1.3657,1.3899,1.411,1.4232,1.4279,1.4308,1.4463,1.4599,1.4811,1.5011,1.5231,1.5477,1.5646,1.5791,1.597,1.6103,1.6226,1.6402,1.6607,1.6797,1.6984,1.7191,1.7432,1.7681,1.7914,1.81,1.8307,-1.7232,-1.7306,-1.7504,-1.7791,-1.8153,-1.8615,-1.9061,-1.9521,-1.9856,-2.0116,-2.0311,-2.0453,-2.0507,-2.0579,-2.1036,-1.8905,-1.4168,-0.991,-0.6061,-0.4095,-0.5088,-0.5812,-0.6237,-0.6214,-0.5993,-0.5793,-0.541,-0.5017,-0.4441,-0.3691,-0.2851,-0.1976,-0.1107,-0.0143,0.0797,0.1602,0.2345,0.3126,0.3776,0.4179,0.4338,0.462,0.4732,0.4785,0.4838,0.4889,0.4944,0.5058,0.5119,0.5117,0.5289,0.5013,0.4625,0.4405,0.451,0.4734,0.5109,0.5437,0.5828,0.6482,0.6836,0.6635,0.6811,0.6898,0.6994,0.717,0.7476,0.7903,0.8645,0.9828,1.144,1.2267,1.2897,1.3336,1.3815,1.387,1.3531,1.2984,1.2474,1.2018,1.1795,1.1808,1.2004,1.2288,1.255,1.2809,1.3053,1.3295,1.3533,1.3815,1.4066,1.4284,1.4353,1.4581,1.4732,1.4856,1.5072,1.5277,1.5507,1.5704,1.5906,1.606,1.6199,1.6281,1.6436,1.6581,1.6789,1.6976,1.715,1.7328,1.7549,1.7816,1.8014,1.8205,1.8408,-1.7149,-1.7306,-1.7472,-1.7752,-1.8144,-1.8596,-1.9068,-1.952,-1.9855,-2.0132,-2.0374,-2.0453,-2.0512,-2.0568,-2.0601,-1.7337,-1.2666,-0.9534,-0.7013,-0.5061,-0.5901,-0.6784,-0.6826,-0.6513,-0.6176,-0.5787,-0.5275,-0.4707,-0.4085,-0.3246,-0.2273,-0.1389,-0.0361,0.0648,0.1588,0.2486,0.3365,0.4134,0.4886,0.5391,0.5607,0.5821,0.5932,0.5932,0.5987,0.5984,0.5984,0.6046,0.6161,0.6161,0.6268,0.6263,0.6041,0.5666,0.5666,0.5823,0.6145,0.6475,0.6864,0.7326,0.753,0.7515,0.7569,0.7688,0.7709,0.7806,0.8089,0.8654,0.9484,1.0693,1.2085,1.2665,1.3207,1.3757,1.4269,1.4525,1.4361,1.3901,1.3217,1.2715,1.2389,1.215,1.233,1.2514,1.2739,1.299,1.3226,1.3465,1.3674,1.3934,1.4177,1.4378,1.455,1.4794,1.5079,1.5178,1.5328,1.5522,1.5733,1.5934,1.6123,1.632,1.6448,1.652,1.6607,1.6771,1.6942,1.715,1.7321,1.7511,1.7749,1.7979,1.8142,1.8319,1.8515,-1.7124,-1.7273,-1.7489,-1.7738,-1.809,-1.8548,-1.9004,-1.9425,-1.9792,-2.0101,-2.0324,-2.045,-2.0503,-2.0492,-2.0454,-1.7447,-1.351,-1.1798,-0.9466,-0.7446,-0.7152,-0.7339,-0.7231,-0.668,-0.5996,-0.5351,-0.4703,-0.4087,-0.3554,-0.2579,-0.165,-0.067,0.0357,0.1412,0.2416,0.3491,0.4372,0.5157,0.5975,0.6586,0.6804,0.6958,0.7066,0.7066,0.7063,0.7063,0.712,0.7122,0.7182,0.7182,0.7233,0.7281,0.7283,0.7179,0.6969,0.691,0.7122,0.7447,0.7788,0.8084,0.8097,0.812,0.8221,0.823,0.8259,0.8377,0.8765,0.9403,1.0168,1.1204,1.2317,1.2939,1.359,1.4247,1.4789,1.5057,1.5031,1.4765,1.4187,1.3484,1.2906,1.2639,1.2591,1.2774,1.2961,1.317,1.3444,1.3692,1.3933,1.4152,1.4422,1.4757,1.4991,1.5289,1.5565,1.5732,1.575,1.5883,1.6032,1.6223,1.6301,1.6493,1.6636,1.6724,1.6842,1.7001,1.7134,1.7304,1.7487,1.7666,1.7892,1.8087,1.8258,1.8439,1.862,-1.6872,-1.7003,-1.7399,-1.7732,-1.8044,-1.8463,-1.8885,-1.9315,-1.9703,-2.003,-2.0276,-2.0419,-2.0494,-2.0473,-1.9916,-1.8135,-1.4532,-1.3924,-1.1658,-0.8451,-0.7854,-0.772,-0.714,-0.6419,-0.5556,-0.4559,-0.3686,-0.3158,-0.2756,-0.1868,-0.0892,0.0134,0.116,0.2212,0.3268,0.4329,0.5264,0.6119,0.7018,0.7579,0.7906,0.8084,0.819,0.8243,0.824,0.8187,0.824,0.824,0.824,0.8243,0.8296,0.8293,0.8399,0.8623,0.8464,0.8031,0.8134,0.8405,0.8711,0.8765,0.8791,0.8913,0.8783,0.875,0.8816,0.9114,0.9567,1.0146,1.0696,1.1578,1.2563,1.3227,1.3966,1.4722,1.5283,1.5567,1.5592,1.5405,1.5198,1.4465,1.36,1.3209,1.3192,1.3097,1.3254,1.362,1.3874,1.434,1.4532,1.454,1.4826,1.5231,1.5553,1.5797,1.6098,1.6441,1.6413,1.641,1.6529,1.6708,1.6682,1.667,1.6809,1.6944,1.7134,1.7281,1.7384,1.7471,1.765,1.7847,1.8001,1.8184,1.8399,1.8565,1.8742,-1.6024,-1.6317,-1.7104,-1.7635,-1.8023,-1.8373,-1.8771,-1.9237,-1.9617,-1.9964,-2.0209,-2.0343,-2.0447,-2.0447,-2.0302,-1.737,-1.4511,-1.371,-1.1818,-0.7894,-0.7647,-0.7457,-0.6787,-0.5859,-0.4721,-0.3676,-0.2669,-0.223,-0.1736,-0.0889,0.0,0.1069,0.2138,0.3217,0.4151,0.5194,0.6153,0.7029,0.7949,0.868,0.9197,0.9249,0.9298,0.9295,0.9298,0.9249,0.935,0.9347,0.9347,0.9402,0.9402,0.9399,0.9454,0.9707,0.9862,0.9707,0.9555,0.9347,0.9578,0.9597,0.9545,0.9571,0.9469,0.9439,0.956,0.9864,1.0336,1.0835,1.1124,1.184,1.2929,1.3497,1.4292,1.5031,1.573,1.5957,1.6058,1.6094,1.5888,1.5642,1.4866,1.4169,1.3807,1.3667,1.3606,1.3958,1.4332,1.4824,1.5187,1.5223,1.5473,1.5927,1.6254,1.6502,1.6751,1.7066,1.703,1.6958,1.7039,1.7117,1.694,1.6884,1.706,1.7207,1.7393,1.7552,1.7654,1.776,1.7856,1.8001,1.818,1.8348,1.8536,1.8706,1.8843,-1.5063,-1.6029,-1.6533,-1.7167,-1.7875,-1.8232,-1.8626,-1.9068,-1.9488,-1.9828,-2.008,-2.0309,-2.041,-2.0235,-2.0265,-1.7794,-1.4459,-1.3812,-1.1634,-0.7765,-0.7066,-0.6639,-0.5746,-0.476,-0.3672,-0.2615,-0.1646,-0.0713,-0.0312,0.0222,0.1024,0.2047,0.3109,0.4121,0.5048,0.6099,0.7089,0.8082,0.9063,0.9864,1.0202,1.0293,1.0293,1.0344,1.0241,1.0297,1.0293,1.0344,1.0395,1.0446,1.045,1.0498,1.0537,1.0736,1.0939,1.0965,1.0817,1.0582,1.0336,1.0268,1.021,1.0101,1.0039,1.0061,1.0317,1.0596,1.0905,1.1319,1.1473,1.2212,1.3323,1.3819,1.4666,1.5471,1.612,1.6355,1.6539,1.6619,1.6557,1.6394,1.6218,1.5553,1.502,1.498,1.4892,1.4941,1.5218,1.5517,1.5865,1.6013,1.6353,1.6814,1.7044,1.7276,1.7468,1.7713,1.7562,1.7469,1.7484,1.7455,1.7142,1.7076,1.7248,1.7447,1.7629,1.7785,1.791,1.7965,1.8031,1.8171,1.8325,1.8487,1.8651,1.8825,1.8984,-1.4026,-1.5341,-1.5942,-1.6691,-1.7527,-1.8026,-1.8475,-1.8893,-1.9332,-1.972,-1.9721,-1.9361,-1.897,-1.8606,-1.751,-1.4914,-1.243,-1.2211,-1.001,-0.7575,-0.6091,-0.5245,-0.4349,-0.3399,-0.2436,-0.1466,-0.049,0.0446,0.1204,0.1781,0.2268,0.3025,0.3988,0.4947,0.5901,0.6908,0.7921,0.9175,1.0303,1.0893,1.1108,1.112,1.1175,1.1175,1.1175,1.1171,1.1175,1.1171,1.1272,1.1372,1.1418,1.146,1.1543,1.1617,1.171,1.1711,1.1658,1.1439,1.1022,1.0806,1.0674,1.0614,1.0582,1.0771,1.105,1.1212,1.1394,1.1805,1.192,1.275,1.3723,1.4231,1.5026,1.5854,1.6534,1.6754,1.6996,1.7059,1.7159,1.717,1.7035,1.7029,1.661,1.6484,1.6332,1.6147,1.6204,1.6332,1.6617,1.6916,1.7405,1.7881,1.8111,1.8358,1.8573,1.8573,1.8315,1.8006,1.803,1.7708,1.732,1.7297,1.7455,1.7666,1.7859,1.8048,1.819,1.8181,1.8171,1.8345,1.8494,1.8612,1.8779,1.894,1.9102,-1.289,-1.3804,-1.5472,-1.6301,-1.6666,-1.7689,-1.8312,-1.8681,-1.9193,-1.9509,-1.9097,-1.7029,-1.5512,-1.4786,-1.2588,-1.0147,-0.7618,-0.753,-0.6341,-0.5145,-0.4162,-0.3468,-0.2686,-0.1811,-0.0975,-0.0044,0.0757,0.1561,0.2367,0.2983,0.3424,0.3949,0.4819,0.5688,0.6682,0.7709,0.8933,1.0164,1.1301,1.1729,1.1796,1.1805,1.1877,1.1923,1.1877,1.1882,1.1981,1.1977,1.2071,1.2175,1.226,1.2388,1.2478,1.2415,1.2434,1.2446,1.2207,1.1974,1.1679,1.1354,1.1219,1.1322,1.1378,1.1431,1.1695,1.1884,1.2108,1.2294,1.2407,1.3069,1.4002,1.4769,1.537,1.6268,1.6905,1.7086,1.7295,1.7447,1.7598,1.7767,1.7831,1.7774,1.788,1.7647,1.7395,1.7153,1.7059,1.7194,1.7732,1.81,1.8593,1.9038,1.9291,1.9534,1.9809,1.9688,1.9303,1.8845,1.8613,1.8039,1.7412,1.7508,1.7627,1.7825,1.8035,1.8249,1.8429,1.8409,1.8434,1.8542,1.8657,1.8788,1.8948,1.9117,1.9264,-1.2396,-1.2764,-1.4058,-1.5051,-1.585,-1.6954,-1.7636,-1.8143,-1.902,-1.8421,-1.6833,-1.373,-1.2027,-1.1312,-1.0383,-0.7837,-0.5697,-0.5758,-0.4037,-0.2503,-0.1588,-0.1323,-0.0707,-0.0133,0.062,0.1332,0.1914,0.2495,0.3165,0.3785,0.4397,0.4959,0.5569,0.6407,0.7405,0.8805,1.0184,1.1145,1.2011,1.2442,1.233,1.2452,1.2529,1.2573,1.2573,1.2529,1.2573,1.2603,1.2745,1.289,1.3035,1.3213,1.335,1.3185,1.3097,1.3072,1.2773,1.2493,1.2306,1.196,1.1783,1.1795,1.1875,1.1993,1.224,1.2354,1.2544,1.2726,1.2922,1.3501,1.4193,1.4853,1.5523,1.6639,1.7227,1.7454,1.7618,1.7814,1.7915,1.8087,1.8337,1.8493,1.8591,1.8727,1.8446,1.8159,1.8061,1.8083,1.857,1.8958,1.9295,1.9581,1.9833,2.003,2.0281,2.0268,2.0198,1.9663,1.9099,1.8389,1.769,1.7633,1.7772,1.7988,1.8168,1.8339,1.8489,1.857,1.8638,1.8695,1.8815,1.8975,1.9134,1.9292,1.9407,-1.1874,-1.1936,-1.2848,-1.388,-1.4998,-1.6107,-1.6971,-1.7559,-1.7571,-1.626,-1.3463,-1.0108,-0.8196,-0.7774,-0.6139,-0.4674,-0.2617,-0.2293,-0.1225,-0.0172,0.0531,0.0752,0.1195,0.1639,0.2084,0.2578,0.2936,0.3427,0.3831,0.4314,0.492,0.5672,0.6413,0.723,0.8236,1.0057,1.1497,1.2092,1.2645,1.3035,1.2919,1.304,1.3123,1.3172,1.3118,1.3109,1.3104,1.318,1.3314,1.351,1.3752,1.4035,1.4057,1.3988,1.3803,1.361,1.326,1.2858,1.2762,1.251,1.2272,1.2315,1.2401,1.2573,1.275,1.2861,1.3072,1.3521,1.3617,1.3949,1.4765,1.5543,1.6186,1.7242,1.7619,1.7828,1.8009,1.8161,1.8259,1.8394,1.8686,1.8943,1.9139,1.9221,1.9132,1.8881,1.8825,1.8819,1.9163,1.947,1.963,1.9876,2.008,2.0281,2.0504,2.0585,2.0543,1.9624,1.9072,1.8601,1.8114,1.796,1.7927,1.8121,1.8287,1.8445,1.8582,1.8723,1.8779,1.8807,1.8975,1.9175,1.9252,1.9404,1.9527,-1.1184,-1.1304,-1.2097,-1.3019,-1.394,-1.5185,-1.6255,-1.6529,-1.4497,-1.2275,-0.9732,-0.5959,-0.3895,-0.2982,-0.0821,0.0582,0.1097,0.1506,0.1972,0.2159,0.2389,0.2611,0.2923,0.3282,0.3458,0.3691,0.3913,0.4178,0.4408,0.4797,0.5445,0.635,0.7228,0.8261,0.879,1.0777,1.2066,1.2599,1.3147,1.3421,1.3568,1.3573,1.3694,1.3762,1.3689,1.3621,1.3668,1.3758,1.3894,1.417,1.4414,1.4737,1.4937,1.4435,1.4228,1.4253,1.3415,1.3062,1.3087,1.2798,1.2786,1.2844,1.2931,1.311,1.3323,1.3482,1.3751,1.4239,1.4517,1.5164,1.594,1.6565,1.7069,1.7611,1.7961,1.8182,1.8365,1.8592,1.8693,1.8808,1.9049,1.9332,1.9523,1.9632,1.9669,1.9566,1.9493,1.9574,1.9769,1.9904,2.001,2.0185,2.0365,2.0603,2.0818,2.1052,2.0798,1.984,1.9149,1.8767,1.8329,1.8022,1.8053,1.8258,1.8399,1.8563,1.8733,1.8905,1.8957,1.9042,1.9198,1.9362,1.9442,1.9518,1.9636,-1.0131,-1.0654,-1.1508,-1.1555,-1.153,-1.397,-1.4683,-1.3237,-0.9782,-0.7079,-0.5211,-0.156,0.0452,0.1403,0.2119,0.3326,0.3422,0.3684,0.3767,0.3982,0.4105,0.4368,0.4635,0.4728,0.4778,0.4783,0.4874,0.4879,0.4932,0.5234,0.5658,0.6508,0.8209,0.9641,1.054,1.1811,1.2521,1.3201,1.369,1.3999,1.4114,1.4109,1.4208,1.434,1.4203,1.4134,1.4239,1.4332,1.4507,1.4772,1.5057,1.5373,1.5596,1.5186,1.515,1.5068,1.4437,1.3836,1.3743,1.36,1.3554,1.348,1.3457,1.3605,1.3795,1.423,1.459,1.4994,1.5432,1.6026,1.6483,1.6902,1.7435,1.8081,1.8439,1.8574,1.8714,1.895,1.9146,1.9265,1.9472,1.9661,1.9869,2.0053,2.0088,2.015,2.0065,2.0003,2.0123,2.0254,2.035,2.0494,2.0669,2.0876,2.1111,2.1311,2.0878,1.9856,1.9386,1.9166,1.8718,1.8142,1.8197,1.8377,1.8515,1.8658,1.8852,1.9043,1.9173,1.9299,1.9413,1.9518,1.9587,1.9662,1.9763,-0.8006,-0.8779,-0.9663,-0.95,-0.9162,-1.193,-1.1725,-0.8821,-0.5536,-0.3255,-0.1153,0.1616,0.3105,0.3685,0.4193,0.4642,0.4796,0.5031,0.5328,0.5548,0.5679,0.5848,0.6024,0.6033,0.5819,0.5739,0.561,0.5572,0.5407,0.5623,0.6383,0.7589,0.9066,1.0444,1.1542,1.2424,1.3062,1.3674,1.4087,1.4332,1.4477,1.4564,1.4616,1.4673,1.4667,1.4656,1.48,1.4937,1.5108,1.5367,1.5674,1.5988,1.6139,1.614,1.6049,1.5893,1.5321,1.471,1.456,1.4308,1.4184,1.4078,1.4093,1.4226,1.4547,1.508,1.5597,1.6031,1.637,1.684,1.7267,1.7653,1.799,1.8659,1.8858,1.8943,1.9064,1.9339,1.9479,1.9611,1.9792,1.9983,2.0177,2.0392,2.0543,2.0603,2.0662,2.0569,2.0509,2.0628,2.0687,2.0794,2.0958,2.1151,2.1349,2.15,2.089,1.987,1.9604,1.9501,1.8741,1.8155,1.8322,1.8502,1.8648,1.8815,1.9,1.9173,1.9308,1.9418,1.9518,1.9619,1.9738,1.9794,1.9868,-0.4923,-0.5693,-0.6604,-0.679,-0.6906,-0.8495,-0.7133,-0.3485,-0.2951,-0.0725,0.2543,0.3386,0.4446,0.5182,0.5391,0.5763,0.6315,0.6493,0.6735,0.6907,0.6955,0.7091,0.7059,0.6982,0.6638,0.6383,0.6215,0.6047,0.5879,0.6176,0.7201,0.8618,0.9592,1.0966,1.2101,1.2931,1.3485,1.3972,1.4362,1.4599,1.4777,1.492,1.5017,1.5068,1.5119,1.5153,1.5244,1.5373,1.5591,1.5844,1.6139,1.6503,1.6683,1.6663,1.6665,1.6465,1.5833,1.5675,1.5302,1.4985,1.4784,1.4749,1.5131,1.525,1.5462,1.5917,1.6563,1.7011,1.7428,1.7932,1.8403,1.856,1.8738,1.9056,1.925,1.9362,1.9442,1.9625,1.9762,1.9912,2.008,2.0247,2.0452,2.0669,2.0843,2.0966,2.099,2.1023,2.099,2.103,2.1087,2.1111,2.1269,2.1448,2.1612,2.1782,2.1089,2.0108,1.9965,1.9762,1.8957,1.8298,1.8443,1.8619,1.8797,1.8967,1.9134,1.9301,1.944,1.9546,1.9623,1.9701,1.9794,1.9889,1.9957,-0.2339,-0.3329,-0.3976,-0.3611,-0.2485,-0.161,-0.1235,-0.1318,0.0632,0.2933,0.4443,0.5245,0.5823,0.6378,0.6862,0.7122,0.744,0.7716,0.7956,0.8039,0.8009,0.7968,0.7852,0.7655,0.7273,0.694,0.6689,0.6526,0.6401,0.665,0.7664,0.9138,1.0021,1.1254,1.2406,1.3324,1.38,1.4222,1.4547,1.4817,1.5045,1.5193,1.5334,1.548,1.5537,1.557,1.573,1.5869,1.6088,1.6287,1.6601,1.696,1.7192,1.7356,1.7476,1.7202,1.6947,1.6768,1.5992,1.573,1.552,1.5408,1.5933,1.608,1.6266,1.6691,1.7483,1.7889,1.8278,1.869,1.8969,1.9125,1.9273,1.942,1.961,1.9762,1.9876,1.9975,2.015,2.0247,2.0384,2.0553,2.0728,2.0901,2.1071,2.123,2.1317,2.1379,2.1402,2.1433,2.1433,2.1456,2.1579,2.1759,2.1878,2.2036,2.1246,2.0509,2.0424,2.0029,1.9038,1.8554,1.8605,1.8732,1.8914,1.9086,1.9236,1.9392,1.9522,1.9637,1.9719,1.9785,1.9856,1.9946,2.003,0.0937,-0.0024,-0.0521,0.0063,0.1457,0.3099,0.3146,0.2799,0.4019,0.5124,0.5949,0.6463,0.7001,0.7504,0.8007,0.8319,0.8513,0.8894,0.9124,0.8994,0.8846,0.8639,0.848,0.816,0.7708,0.7412,0.7115,0.695,0.6868,0.7215,0.8152,0.9521,1.0305,1.1468,1.263,1.352,1.4046,1.4414,1.4737,1.5096,1.5328,1.5507,1.5647,1.5848,1.5905,1.6025,1.6138,1.6275,1.6436,1.6693,1.7009,1.7308,1.761,1.7895,1.8126,1.7903,1.7774,1.7305,1.663,1.6286,1.5908,1.5852,1.6531,1.687,1.7238,1.7661,1.8202,1.8666,1.8979,1.9295,1.9435,1.9617,1.9718,1.9826,2.0003,2.015,2.0296,2.0399,2.0501,2.0595,2.0728,2.0852,2.1023,2.1167,2.1325,2.1503,2.1625,2.1716,2.1738,2.1721,2.1721,2.1743,2.1878,2.2061,2.2183,2.2245,2.1684,2.1199,2.1131,2.0532,1.9353,1.8968,1.9177,1.9129,1.9035,1.9191,1.9323,1.9446,1.9564,1.9677,1.9782,1.9856,1.9924,1.9989,2.0089,0.4512,0.3611,0.3322,0.3688,0.4933,0.5626,0.6462,0.7563,0.6665,0.6589,0.7141,0.7404,0.7844,0.8311,0.8789,0.9164,0.9396,0.9767,0.9815,0.9783,0.9412,0.9128,0.8737,0.8418,0.8002,0.7712,0.7499,0.7325,0.728,0.7675,0.8536,0.9909,1.057,1.1664,1.303,1.3752,1.4337,1.4743,1.5062,1.5373,1.5603,1.5768,1.5838,1.6138,1.625,1.6349,1.6411,1.6528,1.6686,1.7002,1.7267,1.7563,1.7922,1.8268,1.8514,1.8608,1.8446,1.8006,1.7386,1.6965,1.6448,1.6406,1.676,1.739,1.791,1.8445,1.8987,1.9177,1.9442,1.9669,1.9841,1.9975,2.0073,2.0212,2.0357,2.0486,2.0553,2.0662,2.0769,2.0827,2.0917,2.1039,2.1111,2.1245,2.1503,2.1716,2.1903,2.1999,2.204,2.2023,2.2044,2.2036,2.2166,2.2324,2.2434,2.244,2.2194,2.1934,2.1792,2.1218,2.0132,1.9852,1.9802,1.9632,1.9425,1.9328,1.9387,1.9513,1.9624,1.971,1.9821,1.9913,1.9998,2.0059,2.0135,0.6234,0.5708,0.5549,0.6054,0.688,0.7206,0.7912,0.8874,0.8777,0.8414,0.8273,0.8333,0.8474,0.8752,0.9361,0.9713,0.9775,1.024,1.0282,1.0005,0.9695,0.9297,0.8943,0.8541,0.8164,0.7919,0.7753,0.7701,0.7818,0.8233,0.895,1.0352,1.099,1.1978,1.3453,1.4156,1.4621,1.5068,1.5424,1.5603,1.5824,1.5994,1.6113,1.6312,1.6461,1.6547,1.662,1.6784,1.6947,1.7157,1.7365,1.77,1.8109,1.8482,1.8767,1.8898,1.892,1.8607,1.8155,1.7626,1.7218,1.7154,1.7498,1.7973,1.8526,1.9194,1.9574,1.9661,1.9812,1.999,2.0166,2.0296,2.0426,2.0595,2.0736,2.0786,2.0803,2.0925,2.1006,2.1063,2.1143,2.1182,2.1252,2.1407,2.1661,2.1894,2.2094,2.2245,2.2285,2.2304,2.2379,2.2398,2.2426,2.2552,2.2685,2.2721,2.2529,2.2349,2.2169,2.156,2.0927,2.0609,2.0346,2.0036,1.9826,1.9687,1.9562,1.9592,1.9699,1.977,1.9858,1.9967,2.0059,2.0136,2.0196,0.7587,0.7264,0.7235,0.7621,0.8234,0.849,0.9042,0.9658,0.9712,0.9416,0.9008,0.896,0.8973,0.9129,0.9757,1.0023,1.0032,1.0547,1.0431,1.0123,0.973,0.9341,0.8984,0.8582,0.8336,0.8047,0.8085,0.8115,0.8349,0.8741,0.953,1.0763,1.1479,1.2383,1.3788,1.4389,1.4891,1.534,1.5736,1.5957,1.6038,1.6145,1.6361,1.6509,1.6663,1.6748,1.6827,1.6954,1.7115,1.7358,1.7652,1.7888,1.8254,1.8599,1.8874,1.9033,1.9133,1.9089,1.8643,1.8275,1.7937,1.7888,1.8137,1.8571,1.8778,1.9364,1.9874,1.9983,2.0061,2.0216,2.0467,2.0595,2.0736,2.0901,2.103,2.1087,2.1191,2.1302,2.1333,2.1356,2.1411,2.1456,2.1532,2.1576,2.1827,2.2057,2.2282,2.2413,2.246,2.256,2.2667,2.2747,2.2764,2.2808,2.291,2.2951,2.2946,2.2758,2.2592,2.2317,2.189,2.1295,2.0843,2.0601,2.029,1.9929,1.9852,1.9804,1.977,1.9828,1.9913,2.001,2.0098,2.0188,2.0258,0.8703,0.8549,0.8545,0.8807,0.9259,0.9498,0.9853,1.0166,1.0008,0.9698,0.9381,0.9216,0.938,0.966,0.993,1.0148,1.0322,1.0458,1.0345,0.9991,0.9602,0.9212,0.8858,0.8541,0.8336,0.8332,0.8369,0.8598,0.891,0.9376,1.0141,1.1262,1.2097,1.2837,1.3847,1.4564,1.5108,1.5558,1.5913,1.6225,1.6324,1.6373,1.6576,1.6784,1.6937,1.6973,1.7002,1.708,1.724,1.7523,1.7855,1.8149,1.8372,1.863,1.8898,1.9101,1.9295,1.9162,1.8884,1.8678,1.8407,1.8354,1.8733,1.8948,1.919,1.9573,2.0058,2.0262,2.0312,2.0449,2.0669,2.0876,2.1014,2.1175,2.1262,2.1388,2.1489,2.1597,2.162,2.1612,2.1664,2.1716,2.173,2.1781,2.1991,2.2225,2.2394,2.2523,2.2649,2.2738,2.2842,2.2944,2.3011,2.3086,2.3135,2.3157,2.3209,2.325,2.3138,2.3063,2.2867,2.2244,2.1697,2.1233,2.0907,2.045,2.0085,1.9957,1.9938,1.9905,1.9997,2.0098,2.0152,2.0227,2.0305,0.9607,0.974,0.9489,0.9641,1.0003,0.9915,1.002,1.0209,1.0014,0.9652,0.9278,0.9223,0.9308,0.942,0.9611,0.9841,1.0071,1.0222,1.0016,0.9658,0.9279,0.8967,0.8732,0.8492,0.841,0.8484,0.872,0.8994,0.9448,1.0076,1.089,1.1847,1.2762,1.3533,1.4404,1.5023,1.543,1.578,1.6132,1.6442,1.6645,1.6725,1.6829,1.6969,1.7054,1.7077,1.7099,1.7218,1.7371,1.7611,1.7942,1.8235,1.8464,1.8676,1.8943,1.9176,1.9332,1.9398,1.9217,1.8996,1.8755,1.9116,1.9386,1.9288,1.9588,1.9936,2.0296,2.0392,2.0475,2.0577,2.0777,2.0957,2.1095,2.1302,2.1427,2.1542,2.1672,2.1686,2.1708,2.1768,2.1819,2.1832,2.1836,2.1986,2.2205,2.242,2.2559,2.2649,2.2738,2.2885,2.3011,2.3135,2.3241,2.3313,2.3336,2.3398,2.344,2.3558,2.3673,2.3587,2.3428,2.3169,2.2657,2.2151,2.1489,2.0942,2.0609,2.0267,2.0049,2.0033,2.0117,2.0191,2.023,2.027,2.0343]}]]